[[{"header":{"parameterUnit":"m.s-1","parameterCategory":1,"la1":31.0,"la2":29.5877,"lo1":-88.7671,"lo2":-86.6584,"dy":0.0162,"dx":0.0185,"nx":115,"ny":88,"refTime":"2026-04-11T00:00:00:Z","depth":0,"parameterNumber":2,"parameterNumberName":"U-component_of_WINDS"},"data":[0.0,0.0,0.0,0.0,0.0,0.0,0.0,0.0,0.0,0.0,0.0,0.0,0.0,0.0,0.0,0.0,0.0,0.0,0.0,0.0,0.0,0.0,0.0,0.0,0.0,0.0,0.0,0.0,0.0,0.0,0.0,0.0,0.0,0.0,0.0,0.0,0.0,0.0,0.0,0.0,0.0,0.0,0.0,0.0,0.0,0.0,0.0,0.0,0.0,0.0,0.0,0.0,0.0,0.0,0.0,0.0,0.0,0.0,0.0,0.0,0.0,0.0,0.0,0.0,0.0,0.0,0.0,0.0,0.0,0.0,0.0,0.0,0.0,0.0,0.0,0.0,0.0,0.0,0.0,0.0,0.0,0.0,0.0,0.0,0.0,0.0,0.0,0.0,0.0,0.0,0.0,0.0,0.0,0.0,0.0,0.0,0.0,0.0,0.0,0.0,0.0,0.0,0.0,0.0,0.0,0.0,0.0,0.0,0.0,0.0,0.0,0.0,0.0,0.0,0.0,0.0,0.0,0.0,0.0,0.0,0.0,0.0,0.0,0.0,0.0,0.0,0.0,0.0,0.0,0.0,0.0,0.0,0.0,0.0,0.0,0.0,0.0,0.0,0.0,0.0,0.0,0.0,0.0,0.0,0.0,0.0,0.0,0.0,0.0,0.0,0.0,0.0,0.0,0.0,0.0,0.0,0.0,0.0,0.0,0.0,0.0,0.0,0.0,0.0,0.0,0.0,0.0,0.0,0.0,0.0,0.0,0.0,0.0,0.0,0.0,0.0,0.0,0.0,0.0,0.0,0.0,0.0,0.0,0.0,0.0,0.0,0.0,0.0,0.0,0.0,0.0,0.0,0.0,0.0,0.0,0.0,0.0,0.0,0.0,0.0,0.0,0.0,0.0,0.0,0.0,0.0,0.0,0.0,0.0,0.0,0.0,0.0,0.0,0.0,0.0,0.0,0.0,0.0,0.0,0.0,0.0,0.0,0.0,0.0,0.0,0.0,0.0,0.0,0.0,0.0,0.0,0.0,0.0,0.0,0.0,0.0,0.0,0.0,0.0,0.0,0.0,0.0,0.0,0.0,0.0,0.0,0.0,0.0,0.0,0.0,0.0,0.0,0.0,0.0,0.0,0.0,0.0,0.0,0.0,0.0,0.0,0.0,0.0,0.0,0.0,0.0,0.0,0.0,0.0,0.0,0.0,0.0,0.0,0.0,0.0,0.0,0.0,0.0,0.0,0.0,0.0,0.0,0.0,0.0,0.0,0.0,0.0,0.0,0.0,0.0,0.0,0.0,0.0,0.0,0.0,0.0,0.0,0.0,0.0,0.0,0.0,0.0,0.0,0.0,0.0,0.0,0.0,0.0,0.0,0.0,0.0,0.0,0.0,0.0,0.0,0.0,0.0,0.0,0.0,0.0,0.0,0.0,0.0,0.0,0.0,0.0,0.0,0.0,0.0,0.0,0.0,0.0,0.0,0.0,0.0,0.0,0.0,0.0,0.0,0.0,0.0,0.0,0.0,0.0,0.0,0.0,0.0,0.0,0.0,0.0,0.0,0.0,0.0,0.0,0.0,0.0,0.0,0.0,0.0,0.0,0.0,0.0,0.0,0.0,0.0,0.0,0.0,0.0,0.0,0.0,0.0,0.0,0.0,0.0,0.0,0.0,0.0,0.0,0.0,0.0,0.0,0.0,0.0,0.0,0.0,0.0,0.0,0.0,0.0,0.0,0.0,0.0,0.0,0.0,0.0,0.0,0.0,0.0,0.0,0.0,0.0,0.0,0.0,0.0,0.0,0.0,0.0,0.0,0.0,0.0,0.0,0.0,0.0,0.0,0.0,0.0,0.0,0.0,0.0,0.0,0.0,0.0,0.0,0.0,0.0,0.0,0.0,0.0,0.0,0.0,0.0,0.0,0.0,0.0,0.0,0.0,0.0,0.0,0.0,0.0,0.0,0.0,0.0,0.0,0.0,0.0,0.0,0.0,0.0,0.0,0.0,0.0,0.0,0.0,0.0,0.0,0.0,0.0,0.0,0.0,0.0,0.0,0.0,0.0,0.0,0.0,0.0,0.0,0.0,0.0,0.0,0.0,0.0,0.0,0.0,0.0,0.0,0.0,0.0,0.0,0.0,0.0,0.0,0.0,0.0,0.0,0.0,0.0,0.0,0.0,0.0,0.0,0.0,0.0,0.0,0.0,0.0,0.0,0.0,0.0,0.0,0.0,0.0,0.0,0.0,0.0,0.0,0.0,0.0,0.0,0.0,0.0,0.0,0.0,0.0,0.0,0.0,0.0,0.0,0.0,0.0,0.0,0.0,0.0,0.0,0.0,0.0,0.0,0.0,0.0,0.0,0.0,0.0,0.0,0.0,0.0,0.0,0.0,0.0,0.0,0.0,0.0,0.0,0.0,0.0,0.0,0.0,0.0,0.0,0.0,0.0,0.0,0.0,0.0,0.0,0.0,0.0,0.0,0.0,0.0,0.0,0.0,0.0,0.0,0.0,0.0,0.0,0.0,0.0,0.0,0.0,0.0,0.0,0.0,0.0,0.0,0.0,0.0,0.0,0.0,0.0,0.0,0.0,0.0,0.0,0.0,0.0,0.0,0.0,0.0,0.0,0.0,0.0,0.0,0.0,0.0,0.0,0.0,0.0,0.0,0.0,0.0,0.0,0.0,0.0,0.0,0.0,0.0,0.0,0.0,0.0,0.0,0.0,0.0,0.0,0.0,0.0,0.0,0.0,0.0,0.0,0.0,0.0,0.0,0.0,0.0,0.0,0.0,0.0,0.0,0.0,0.0,0.0,0.0,0.0,0.0,0.0,0.0,0.0,0.0,0.0,0.0,0.0,0.0,0.0,0.0,0.0,0.0,0.0,0.0,0.0,0.0,0.0,0.0,0.0,0.0,0.0,0.0,0.0,0.0,0.0,0.0,0.0,0.0,0.0,0.0,0.0,0.0,0.0,0.0,0.0,0.0,0.0,0.0,0.0,0.0,0.0,0.0,0.0,0.0,0.0,0.0,0.0,0.0,0.0,0.0,0.0,0.0,0.0,0.0,0.0,0.0,0.0,0.0,0.0,0.0,0.0,0.0,0.0,0.0,0.0,0.0,0.0,0.0,0.0,0.0,0.0,0.0,0.0,0.0,0.0,0.0,0.0,0.0,0.0,0.0,0.0,0.0,0.0,0.0,0.0,0.0,0.0,0.0,0.0,0.0,0.0,0.0,0.0,0.0,0.0,0.0,0.0,0.0,0.0,0.0,0.0,0.0,0.0,0.0,0.0,0.0,0.0,0.0,0.0,0.0,0.0,0.0,0.0,0.0,0.0,0.0,0.0,0.0,0.0,0.0,0.0,0.0,0.0,0.0,0.0,0.0,0.0,0.0,0.0,0.0,0.0,0.0,0.0,0.0,0.0,0.0,0.0,0.0,0.0,0.0,0.0,0.0,0.0,0.0,0.0,0.0,0.0,0.0,0.0,0.0,0.0,0.0,0.0,0.0,0.0,0.0,0.0,0.0,0.0,0.0,0.0,0.0,0.0,0.0,0.0,0.0,0.0,0.0,0.0,0.0,0.0,0.0,0.0,0.0,0.0,0.0,0.0,0.0,0.0,0.0,0.0,0.0,0.0,0.0,0.0,0.0,0.0,0.0,0.0,0.0,0.0,0.0,0.0,0.0,0.0,0.0,0.0,0.0,0.0,0.0,0.0,0.0,0.0,0.0,0.0,0.0,0.0,0.0,0.0,0.0,0.0,0.0,0.0,0.0,0.0,0.0,0.0,0.0,0.0,0.0,0.0,0.0,0.0,0.0,0.0,0.0,0.0,0.0,0.0,0.0,0.0,0.0,0.0,0.0,0.0,0.0,0.0,0.0,0.0,0.0,0.0,0.0,0.0,0.0,0.0,0.0,0.0,0.0,0.0,0.0,0.0,0.0,0.0,0.0,0.0,0.0,0.0,0.0,0.0,0.0,0.0,0.0,0.0,0.0,0.0,0.0,0.0,0.0,0.0,0.0,0.0,0.0,0.0,0.0,0.0,0.0,0.0,0.0,0.0,0.0,0.0,0.0,0.0,0.0,0.0,0.0,0.0,0.0,0.0,0.0,0.0,0.0,0.0,0.0,0.0,0.0,0.0,0.0,0.0,0.0,0.0,0.0,0.0,0.0,0.0,0.0,0.0,0.0,0.0,0.0,0.0,0.0,0.0,0.0,0.0,0.0,0.0,0.0,0.0,0.0,0.0,0.0,0.0,0.0,0.0,0.0,0.0,0.0,0.0,0.0,-0.9542,0.0,0.0,0.0,0.0,0.0,0.0,0.0,0.0,0.0,0.0,0.0,0.0,0.0,0.0,0.0,0.0,0.0,0.0,0.0,0.0,0.0,0.0,0.0,0.0,0.0,0.0,0.0,0.0,0.0,0.0,0.0,0.0,0.0,0.0,0.0,0.0,0.0,0.0,0.0,0.0,0.0,0.0,0.0,0.0,0.0,0.0,0.0,0.0,0.0,0.0,0.0,0.0,0.0,0.0,0.0,0.0,0.0,0.0,0.0,0.0,0.0,0.0,0.0,0.0,0.0,0.0,0.0,0.0,0.0,0.0,0.0,0.0,0.0,0.0,0.0,0.0,0.0,0.0,0.0,0.0,0.0,0.0,0.0,0.0,0.0,0.0,0.0,0.0,0.0,0.0,0.0,0.0,0.0,0.0,0.0,0.0,0.0,0.0,0.0,0.0,0.0,0.0,0.0,0.0,0.0,0.0,0.0,0.0,0.0,0.0,-0.9597,-0.9601,-0.9516,-0.95,-0.95,0.0,0.0,0.0,0.0,0.0,0.0,0.0,0.0,0.0,0.0,0.0,0.0,0.0,0.0,0.0,0.0,0.0,0.0,0.0,0.0,0.0,0.0,0.0,0.0,0.0,0.0,0.0,0.0,0.0,0.0,0.0,0.0,0.0,0.0,0.0,0.0,0.0,0.0,0.0,0.0,0.0,0.0,0.0,0.0,0.0,0.0,0.0,0.0,0.0,0.0,0.0,0.0,0.0,0.0,0.0,0.0,0.0,0.0,0.0,0.0,0.0,0.0,0.0,0.0,0.0,0.0,0.0,0.0,0.0,0.0,0.0,0.0,0.0,0.0,0.0,0.0,0.0,0.0,0.0,0.0,0.0,0.0,0.0,0.0,0.0,0.0,0.0,0.0,0.0,0.0,0.0,0.0,0.0,0.0,0.0,0.0,0.0,0.0,0.0,0.0,0.0,0.0,0.0,0.0,0.0,0.0,0.0,0.0,0.0,0.0,0.0,0.0,-1.0019,-1.0024,-1.0028,0.0,0.0,0.0,0.0,0.0,0.0,0.0,0.0,0.0,0.0,0.0,0.0,0.0,0.0,0.0,0.0,0.0,0.0,0.0,0.0,0.0,0.0,0.0,0.0,0.0,0.0,0.0,0.0,0.0,0.0,0.0,0.0,0.0,0.0,0.0,0.0,0.0,0.0,0.0,0.0,0.0,0.0,0.0,0.0,0.0,0.0,0.0,0.0,0.0,0.0,0.0,0.0,0.0,0.0,0.0,0.0,0.0,0.0,0.0,0.0,0.0,0.0,0.0,0.0,0.0,0.0,0.0,0.0,0.0,0.0,0.0,0.0,0.0,0.0,0.0,0.0,0.0,0.0,0.0,0.0,0.0,0.0,0.0,0.0,0.0,0.0,0.0,0.0,0.0,0.0,0.0,0.0,0.0,0.0,0.0,0.0,0.0,0.0,0.0,0.0,0.0,0.0,0.0,0.0,0.0,0.0,0.0,0.0,0.0,0.0,-1.02,-1.1626,-1.1612,0.0,-1.1587,0.0,0.0,0.0,0.0,0.0,0.0,0.0,0.0,0.0,0.0,0.0,0.0,0.0,0.0,0.0,0.0,0.0,0.0,0.0,0.0,0.0,0.0,0.0,0.0,0.0,0.0,0.0,0.0,0.0,0.0,0.0,0.0,0.0,0.0,0.0,0.0,0.0,0.0,0.0,0.0,0.0,0.0,0.0,0.0,0.0,0.0,0.0,0.0,0.0,0.0,0.0,0.0,0.0,0.0,0.0,0.0,0.0,0.0,0.0,0.0,0.0,0.0,0.0,0.0,0.0,0.0,0.0,0.0,0.0,0.0,0.0,0.0,0.0,0.0,0.0,0.0,0.0,0.0,0.0,0.0,0.0,0.0,0.0,0.0,0.0,0.0,0.0,0.0,0.0,0.0,0.0,0.0,0.0,0.0,0.0,0.0,0.0,0.0,0.0,0.0,0.0,0.0,0.0,0.0,0.0,0.0,0.0,0.0,0.0,0.0,-1.1241,-1.1885,-1.1871,-1.1641,0.0,0.0,0.0,0.0,0.0,0.0,0.0,0.0,0.0,0.0,0.0,0.0,0.0,0.0,0.0,0.0,0.0,0.0,0.0,0.0,0.0,0.0,0.0,0.0,0.0,0.0,0.0,0.0,0.0,0.0,0.0,0.0,0.0,0.0,0.0,0.0,0.0,0.0,0.0,0.0,0.0,0.0,0.0,0.0,0.0,0.0,0.0,0.0,0.0,0.0,0.0,0.0,0.0,0.0,0.0,0.0,0.0,0.0,0.0,0.0,0.0,0.0,0.0,0.0,0.0,0.0,0.0,0.0,0.0,0.0,0.0,0.0,0.0,0.0,0.0,0.0,0.0,0.0,0.0,0.0,0.0,0.0,0.0,0.0,0.0,0.0,0.0,0.0,0.0,0.0,0.0,0.0,0.0,0.0,0.0,0.0,0.0,0.0,0.0,0.0,0.0,0.0,0.0,0.0,0.0,0.0,0.0,0.0,0.0,0.0,-1.1525,-1.2104,-1.2491,-1.2323,-1.1729,-1.072,0.0,0.0,0.0,0.0,0.0,0.0,0.0,0.0,0.0,0.0,0.0,0.0,0.0,0.0,0.0,0.0,0.0,0.0,0.0,0.0,0.0,0.0,0.0,0.0,0.0,0.0,0.0,0.0,0.0,0.0,0.0,0.0,0.0,0.0,0.0,0.0,0.0,0.0,0.0,0.0,0.0,0.0,0.0,0.0,0.0,0.0,0.0,0.0,0.0,0.0,0.0,0.0,0.0,0.0,0.0,0.0,0.0,0.0,0.0,0.0,0.0,0.0,0.0,0.0,0.0,0.0,0.0,0.0,0.0,0.0,0.0,0.0,0.0,0.0,0.0,0.0,0.0,0.0,0.0,0.0,0.0,0.0,0.0,0.0,0.0,0.0,0.0,0.0,0.0,0.0,0.0,0.0,0.0,0.0,0.0,0.0,0.0,0.0,0.0,0.0,0.0,0.0,0.0,0.0,0.0,0.0,0.0,0.0,0.0,-1.2612,-1.2607,-1.4043,-1.3352,-1.2215,0.0,0.0,0.0,0.0,0.0,0.0,0.0,0.0,0.0,0.0,0.0,0.0,0.0,0.0,0.0,0.0,0.0,0.0,0.0,0.0,0.0,0.0,0.0,0.0,0.0,0.0,0.0,0.0,0.0,0.0,0.0,0.0,0.0,0.0,0.0,0.0,0.0,0.0,0.0,0.0,0.0,0.0,0.0,0.0,0.0,0.0,0.0,0.0,0.0,0.0,0.0,0.0,0.0,0.0,0.0,0.0,0.0,0.0,0.0,0.0,0.0,0.0,0.0,0.0,0.0,0.0,0.0,0.0,0.0,0.0,0.0,0.0,0.0,0.0,0.0,0.0,0.0,0.0,0.0,0.0,0.0,0.0,0.0,0.0,0.0,0.0,0.0,0.0,0.0,0.0,0.0,0.0,0.0,0.0,0.0,0.0,0.0,0.0,0.0,0.0,0.0,0.0,0.0,0.0,0.0,0.0,0.0,0.0,0.0,-1.1172,-1.1647,-1.3154,-1.5564,-1.304,-1.1489,0.0,0.0,0.0,0.0,0.0,0.0,0.0,0.0,0.0,0.0,0.0,0.0,0.0,0.0,0.0,0.0,0.0,0.0,0.0,0.0,0.0,0.0,0.0,0.0,0.0,0.0,0.0,0.0,0.0,0.0,0.0,0.0,0.0,0.0,0.0,0.0,0.0,0.0,0.0,0.0,0.0,0.0,0.0,0.0,0.0,0.0,0.0,0.0,0.0,0.0,0.0,0.0,0.0,0.0,0.0,0.0,0.0,0.0,0.0,0.0,0.0,0.0,0.0,0.0,0.0,0.0,0.0,0.0,0.0,0.0,0.0,0.0,0.0,0.0,0.0,0.0,0.0,0.0,0.0,0.0,0.0,0.0,0.0,0.0,0.0,0.0,0.0,0.0,0.0,0.0,0.0,0.0,0.0,0.0,0.0,0.0,0.0,0.0,0.0,0.0,0.0,0.0,0.0,0.0,0.0,0.0,0.0,0.0,0.0,-1.1068,0.0,-1.4258,0.0,-1.3038,-1.1122,0.0,0.0,0.0,0.0,0.0,0.0,0.0,0.0,0.0,0.0,0.0,0.0,0.0,0.0,0.0,0.0,0.0,0.0,0.0,0.0,0.0,0.0,0.0,0.0,0.0,0.0,0.0,0.0,0.0,0.0,0.0,0.0,0.0,0.0,0.0,0.0,0.0,0.0,0.0,0.0,0.0,0.0,0.0,0.0,0.0,0.0,0.0,0.0,0.0,0.0,0.0,0.0,0.0,0.0,0.0,0.0,0.0,0.0,0.0,0.0,0.0,0.0,0.0,0.0,0.0,0.0,0.0,0.0,0.0,0.0,0.0,0.0,0.0,0.0,0.0,0.0,0.0,0.0,0.0,0.0,0.0,0.0,0.0,0.0,0.0,0.0,0.0,0.0,0.0,0.0,0.0,0.0,0.0,0.0,0.0,0.0,0.0,0.0,0.0,0.0,0.0,0.0,0.0,0.0,0.0,0.0,0.0,0.0,-1.1081,-1.4094,-1.5678,-1.5726,-1.439,-1.3431,-1.117,0.0,0.0,0.0,0.0,0.0,0.0,0.0,0.0,0.0,0.0,0.0,0.0,0.0,0.0,0.0,0.0,0.0,0.0,0.0,0.0,0.0,0.0,0.0,0.0,0.0,0.0,0.0,0.0,0.0,0.0,0.0,0.0,0.0,0.0,0.0,0.0,0.0,0.0,0.0,0.0,0.0,0.0,0.0,0.0,0.0,0.0,0.0,0.0,0.0,0.0,0.0,0.0,0.0,0.0,0.0,0.0,0.0,0.0,0.0,0.0,0.0,0.0,0.0,0.0,0.0,0.0,0.0,0.0,0.0,0.0,0.0,0.0,0.0,0.0,0.0,0.0,0.0,0.0,0.0,0.0,0.0,0.0,0.0,0.0,0.0,0.0,0.0,0.0,0.0,0.0,0.0,0.0,0.0,0.0,0.0,0.0,0.0,0.0,0.0,0.0,0.0,0.0,0.0,0.0,0.0,0.0,0.0,0.0,0.0,-1.2671,-1.3672,-1.4493,-1.4936,-1.2173,-1.0546,0.0,0.0,0.0,0.0,0.0,0.0,0.0,0.0,0.0,0.0,0.0,0.0,0.0,0.0,0.0,0.0,0.0,0.0,0.0,0.0,0.0,0.0,0.0,0.0,0.0,0.0,0.0,0.0,0.0,0.0,0.0,0.0,0.0,0.0,0.0,0.0,0.0,0.0,0.0,0.0,0.0,0.0,0.0,0.0,0.0,0.0,0.0,0.0,0.0,0.0,0.0,0.0,0.0,0.0,0.0,0.0,0.0,0.0,0.0,0.0,0.0,0.0,0.0,0.0,0.0,0.0,0.0,0.0,0.0,0.0,0.0,0.0,0.0,0.0,0.0,0.0,0.0,0.0,0.0,0.0,0.0,0.0,0.0,0.0,0.0,0.0,0.0,0.0,0.0,0.0,0.0,0.0,0.0,0.0,0.0,0.0,0.0,0.0,0.0,0.0,0.0,0.0,0.0,0.0,0.0,0.0,0.0,0.0,0.0,-1.3727,-1.4475,-1.5071,-1.5424,-1.2733,-1.1159,-1.0921,0.0,0.0,0.0,0.0,0.0,0.0,0.0,0.0,0.0,0.0,0.0,0.0,0.0,0.0,0.0,0.0,0.0,0.0,0.0,0.0,0.0,0.0,0.0,0.0,0.0,0.0,0.0,0.0,0.0,0.0,0.0,0.0,0.0,0.0,0.0,0.0,0.0,0.0,0.0,0.0,0.0,0.0,0.0,0.0,0.0,0.0,0.0,0.0,0.0,0.0,0.0,0.0,0.0,0.0,0.0,0.0,0.0,0.0,0.0,0.0,0.0,0.0,0.0,0.0,0.0,0.0,0.0,0.0,0.0,0.0,0.0,0.0,0.0,0.0,0.0,0.0,0.0,0.0,0.0,0.0,0.0,0.0,0.0,0.0,0.0,0.0,0.0,0.0,0.0,0.0,0.0,0.0,0.0,0.0,0.0,0.0,0.0,0.0,0.0,0.0,0.0,0.0,0.0,0.0,0.0,0.0,0.0,0.0,-1.6675,-1.7465,-1.7113,-1.5607,-1.4708,-1.283,0.0,0.0,0.0,0.0,0.0,0.0,0.0,0.0,0.0,0.0,0.0,0.0,0.0,0.0,0.0,0.0,0.0,0.0,0.0,0.0,0.0,0.0,0.0,0.0,0.0,0.0,0.0,0.0,0.0,0.0,0.0,0.0,0.0,0.0,0.0,0.0,0.0,0.0,0.0,0.0,0.0,0.0,0.0,0.0,0.0,0.0,0.0,0.0,0.0,0.0,0.0,0.0,0.0,0.0,0.0,0.0,0.0,0.0,0.0,0.0,0.0,0.0,0.0,0.0,0.0,0.0,0.0,0.0,0.0,0.0,0.0,0.0,0.0,0.0,0.0,0.0,0.0,0.0,0.0,0.0,0.0,0.0,0.0,0.0,0.0,0.0,0.0,0.0,0.0,0.0,0.0,0.0,0.0,0.0,0.0,0.0,0.0,0.0,0.0,0.0,0.0,0.0,0.0,0.0,0.0,0.0,0.0,0.0,0.0,-1.6675,-1.7491,-1.7395,-1.632,-1.5002,-1.3262,0.0,0.0,0.0,0.0,0.0,0.0,0.0,0.0,0.0,0.0,0.0,0.0,0.0,0.0,0.0,0.0,0.0,0.0,0.0,0.0,0.0,0.0,0.0,0.0,0.0,0.0,0.0,0.0,0.0,0.0,0.0,0.0,0.0,0.0,0.0,0.0,0.0,0.0,0.0,0.0,0.0,0.0,0.0,0.0,0.0,0.0,0.0,0.0,0.0,0.0,0.0,0.0,0.0,0.0,0.0,0.0,0.0,0.0,0.0,0.0,0.0,0.0,0.0,0.0,0.0,0.0,0.0,0.0,0.0,0.0,0.0,0.0,0.0,0.0,0.0,0.0,0.0,0.0,0.0,0.0,0.0,0.0,0.0,0.0,0.0,0.0,0.0,0.0,0.0,0.0,0.0,0.0,0.0,0.0,0.0,0.0,0.0,0.0,0.0,0.0,0.0,0.0,0.0,0.0,0.0,0.0,0.0,0.0,-1.6063,-1.7182,-1.7998,-1.7992,-1.7147,-1.5832,-1.4321,0.0,0.0,0.0,0.0,0.0,0.0,0.0,0.0,0.0,0.0,0.0,0.0,0.0,0.0,0.0,0.0,0.0,0.0,0.0,0.0,0.0,0.0,0.0,0.0,0.0,0.0,0.0,0.0,0.0,0.0,0.0,0.0,0.0,0.0,0.0,0.0,0.0,0.0,0.0,0.0,0.0,0.0,0.0,0.0,0.0,0.0,0.0,0.0,0.0,0.0,0.0,0.0,0.0,0.0,0.0,0.0,0.0,0.0,0.0,0.0,0.0,0.0,0.0,0.0,0.0,0.0,0.0,0.0,0.0,0.0,0.0,0.0,0.0,0.0,0.0,0.0,0.0,0.0,0.0,0.0,0.0,0.0,0.0,0.0,0.0,0.0,0.0,0.0,0.0,0.0,0.0,0.0,0.0,0.0,0.0,0.0,0.0,0.0,0.0,0.0,0.0,0.0,0.0,0.0,0.0,0.0,0.0,0.0,-1.6447,-1.784,-1.8664,-1.871,-1.797,-1.6886,-1.5559,0.0,0.0,0.0,0.0,0.0,0.0,0.0,0.0,0.0,0.0,0.0,0.0,0.0,0.0,0.0,0.0,0.0,0.0,0.0,0.0,0.0,0.0,0.0,0.0,0.0,0.0,0.0,0.0,0.0,0.0,0.0,0.0,0.0,0.0,0.0,0.0,0.0,0.0,0.0,0.0,0.0,0.0,0.0,0.0,0.0,0.0,0.0,0.0,0.0,0.0,0.0,0.0,0.0,0.0,0.0,0.0,0.0,0.0,0.0,0.0,0.0,0.0,0.0,0.0,0.0,0.0,0.0,0.0,0.0,0.0,0.0,0.0,0.0,0.0,0.0,0.0,0.0,0.0,0.0,0.0,0.0,0.0,0.0,0.0,0.0,0.0,0.0,0.0,0.0,0.0,0.0,0.0,0.0,0.0,0.0,0.0,0.0,0.0,0.0,0.0,0.0,0.0,0.0,0.0,0.0,0.0,0.0,0.0,-1.7477,-1.7653,-1.8449,-1.8699,-1.8373,-1.7123,-1.5622,0.0,0.0,0.0,0.0,0.0,0.0,0.0,0.0,0.0,0.0,0.0,0.0,0.0,0.0,0.0,0.0,0.0,0.0,0.0,0.0,0.0,0.0,0.0,0.0,0.0,0.0,0.0,0.0,0.0,0.0,0.0,0.0,0.0,0.0,0.0,0.0,0.0,0.0,0.0,0.0,0.0,0.0,0.0,0.0,0.0,0.0,0.0,0.0,-0.476,0.0,0.0,0.0,0.0,0.0,0.0,0.0,0.0,0.0,0.0,0.0,0.0,0.0,0.0,0.0,0.0,0.0,0.0,0.0,0.0,0.0,0.0,0.0,0.0,0.0,0.0,0.0,0.0,0.0,0.0,0.0,0.0,0.0,0.0,0.0,0.0,0.0,0.0,0.0,0.0,0.0,0.0,0.0,0.0,0.0,0.0,0.0,0.0,0.0,0.0,0.0,0.0,0.0,0.0,0.0,0.0,0.0,0.0,0.0,-1.7218,-1.7611,-1.8296,-1.8619,-1.8469,-1.702,-1.573,0.0,0.0,0.0,0.0,0.0,0.0,0.0,0.0,0.0,0.0,0.0,0.0,0.0,0.0,0.0,0.0,0.0,0.0,0.0,0.0,0.0,0.0,0.0,0.0,0.0,0.0,0.0,0.0,0.0,0.0,0.0,0.0,0.0,0.0,0.0,0.0,0.0,0.0,0.0,0.0,0.0,0.0,0.0,0.0,0.0,0.0,0.0,0.0,0.0,0.0,0.0,0.0,0.0,0.0,0.0,0.0,0.0,0.0,0.0,0.0,0.0,0.0,0.0,0.0,0.0,0.0,0.0,0.0,0.0,0.0,0.0,0.0,0.0,0.0,0.0,0.0,0.0,0.0,0.0,0.0,0.0,0.0,0.0,0.0,0.0,0.0,0.0,0.0,0.0,0.0,0.0,0.0,0.0,0.0,0.0,0.0,0.0,0.0,0.0,0.0,0.0,0.0,0.0,0.0,0.0,0.0,0.0,-1.5254,-1.6739,-1.7648,-1.8163,-1.8455,-1.841,-1.6866,-1.5874,-1.5566,0.0,0.0,0.0,0.0,0.0,0.0,0.0,0.0,0.0,0.0,0.0,0.0,0.0,0.0,0.0,0.0,0.0,0.0,0.0,0.0,0.0,0.0,0.0,0.0,0.0,0.0,0.0,0.0,0.0,0.0,0.0,0.0,0.0,0.0,0.0,0.0,0.0,0.0,-0.4856,-0.5572,0.0,0.0,0.0,0.0,0.0,0.0,0.0,0.0,-0.5821,0.0,0.0,0.0,0.0,0.0,0.0,0.0,0.0,0.0,0.0,0.0,0.0,0.0,0.0,0.0,0.0,0.0,0.0,0.0,0.0,0.0,0.0,0.0,0.0,0.0,0.0,0.0,0.0,0.0,0.0,0.0,0.0,0.0,0.0,0.0,0.0,0.0,0.0,0.0,0.0,0.0,0.0,0.0,0.0,0.0,0.0,0.0,0.0,0.0,0.0,0.0,0.0,0.0,0.0,0.0,0.0,-1.5297,-1.6491,-1.7401,-1.7996,-1.8104,-1.817,-1.8135,-1.7137,-1.6241,-1.5449,0.0,0.0,0.0,0.0,0.0,0.0,0.0,0.0,0.0,0.0,0.0,0.0,0.0,0.0,0.0,0.0,0.0,0.0,0.0,0.0,0.0,0.0,0.0,0.0,0.0,0.0,0.0,0.0,0.0,0.0,0.0,0.0,0.0,0.0,0.0,0.0,0.0,0.0,0.0,-0.6343,-0.6803,0.0,0.0,0.0,0.0,0.0,0.0,0.0,0.0,-0.5837,0.0,0.0,0.0,0.0,0.0,0.0,0.0,0.0,0.0,0.0,0.0,0.0,0.0,0.0,0.0,0.0,0.0,0.0,0.0,0.0,0.0,0.0,0.0,0.0,0.0,0.0,0.0,0.0,0.0,0.0,0.0,0.0,0.0,0.0,0.0,0.0,0.0,0.0,0.0,0.0,0.0,0.0,0.0,0.0,0.0,0.0,0.0,0.0,0.0,0.0,0.0,0.0,0.0,0.0,0.0,-1.5245,-1.6787,-1.7914,-1.8637,-1.8573,-1.8506,-1.8483,-1.6961,-1.593,0.0,0.0,0.0,0.0,0.0,0.0,0.0,0.0,0.0,0.0,0.0,0.0,0.0,0.0,0.0,0.0,0.0,0.0,0.0,0.0,0.0,0.0,0.0,0.0,0.0,0.0,0.0,0.0,0.0,0.0,0.0,0.0,0.0,0.0,0.0,0.0,0.0,0.0,0.0,0.0,-0.6902,-0.7476,-0.71,0.0,0.0,0.0,0.0,0.0,0.0,-0.6445,-0.6042,0.0,0.0,0.0,0.0,0.0,0.0,0.0,0.0,0.0,0.0,0.0,0.0,0.0,0.0,0.0,0.0,0.0,0.0,0.0,0.0,0.0,0.0,0.0,0.0,0.0,0.0,0.0,0.0,0.0,0.0,0.0,0.0,0.0,0.0,0.0,0.0,0.0,0.0,0.0,0.0,0.0,0.0,0.0,0.0,0.0,0.0,0.0,0.0,0.0,0.0,0.0,0.0,0.0,0.0,0.0,-1.4951,-1.6839,-1.8229,-1.907,-1.9,-1.8894,-1.886,-1.7022,-1.5876,0.0,0.0,0.0,0.0,0.0,0.0,0.0,0.0,0.0,0.0,0.0,0.0,0.0,0.0,0.0,0.0,0.0,0.0,0.0,0.0,0.0,0.0,0.0,0.0,0.0,0.0,0.0,0.0,0.0,0.0,0.0,0.0,0.0,0.0,0.0,0.0,0.0,0.0,0.0,0.0,0.0,-0.8212,-0.759,-0.7953,0.0,0.0,0.0,0.0,-0.8189,-0.7211,0.0,0.0,0.0,0.0,0.0,0.0,0.0,0.0,0.0,0.0,0.0,0.0,0.0,0.0,0.0,0.0,0.0,0.0,0.0,0.0,0.0,0.0,0.0,0.0,0.0,0.0,0.0,0.0,0.0,0.0,0.0,0.0,0.0,0.0,0.0,0.0,0.0,0.0,0.0,0.0,0.0,0.0,0.0,0.0,0.0,0.0,0.0,0.0,0.0,0.0,0.0,0.0,0.0,0.0,0.0,0.0,-1.5465,-1.701,-1.8178,-1.8878,-1.8917,-1.8894,-1.8877,-1.7963,-1.6839,0.0,0.0,0.0,0.0,0.0,0.0,0.0,0.0,0.0,0.0,0.0,0.0,0.0,0.0,0.0,0.0,0.0,0.0,0.0,0.0,0.0,0.0,0.0,0.0,0.0,0.0,0.0,0.0,0.0,0.0,0.0,0.0,0.0,0.0,0.0,0.0,0.0,0.0,0.0,0.0,0.0,-0.93,-0.9148,-0.865,-0.8512,0.0,0.0,-0.8207,-0.8297,-0.8091,0.0,0.0,0.0,0.0,0.0,0.0,0.0,0.0,0.0,0.0,0.0,0.0,0.0,0.0,0.0,0.0,0.0,0.0,0.0,0.0,0.0,0.0,0.0,0.0,0.0,0.0,0.0,0.0,0.0,0.0,0.0,0.0,0.0,0.0,0.0,0.0,0.0,0.0,0.0,0.0,0.0,0.0,0.0,0.0,0.0,0.0,0.0,0.0,0.0,0.0,0.0,0.0,0.0,0.0,0.0,-1.3811,-1.5595,-1.7884,-1.9203,-1.9524,-1.9976,-1.9989,-1.9524,-1.7974,-1.6608,0.0,0.0,0.0,0.0,0.0,0.0,0.0,0.0,0.0,0.0,0.0,0.0,0.0,0.0,0.0,0.0,0.0,0.0,0.0,0.0,0.0,0.0,0.0,0.0,0.0,0.0,0.0,0.0,0.0,0.0,0.0,0.0,0.0,0.0,0.0,0.0,0.0,0.0,0.0,0.0,0.0,0.0,-1.0229,-0.9951,0.0,0.0,0.0,-0.9672,-0.965,0.0,0.0,0.0,0.0,0.0,0.0,0.0,0.0,0.0,0.0,0.0,0.0,0.0,0.0,0.0,0.0,0.0,0.0,0.0,0.0,0.0,0.0,0.0,0.0,0.0,0.0,0.0,0.0,0.0,0.0,0.0,0.0,0.0,0.0,0.0,0.0,0.0,0.0,0.0,0.0,0.0,0.0,0.0,0.0,0.0,0.0,0.0,0.0,0.0,0.0,0.0,0.0,0.0,0.0,0.0,0.0,0.0,-1.5876,-1.8594,-2.0103,-2.0302,-2.0903,-2.0805,-1.9985,-1.8031,0.0,0.0,0.0,0.0,0.0,0.0,0.0,0.0,0.0,0.0,0.0,0.0,0.0,0.0,0.0,0.0,0.0,0.0,0.0,0.0,0.0,0.0,0.0,0.0,0.0,0.0,0.0,-0.4592,0.0,0.0,0.0,0.0,0.0,0.0,0.0,0.0,0.0,0.0,0.0,0.0,0.0,0.0,-0.9807,-1.0545,-1.0664,-1.0841,0.0,0.0,-1.0638,-1.0421,-0.9393,-0.8328,0.0,0.0,0.0,0.0,0.0,0.0,0.0,0.0,0.0,0.0,0.0,0.0,0.0,0.0,0.0,0.0,0.0,0.0,0.0,0.0,0.0,0.0,0.0,0.0,0.0,0.0,0.0,0.0,0.0,0.0,0.0,0.0,0.0,0.0,0.0,0.0,0.0,0.0,0.0,0.0,0.0,0.0,0.0,0.0,0.0,0.0,0.0,0.0,0.0,0.0,0.0,0.0,0.0,0.0,0.0,-1.6631,-1.8848,-2.0352,-2.1089,-2.1173,-2.0822,-2.0002,-1.848,-1.6974,0.0,0.0,0.0,0.0,0.0,0.0,0.0,0.0,0.0,0.0,0.0,0.0,0.0,0.0,0.0,0.0,0.0,0.0,0.0,0.0,0.0,0.0,0.0,0.0,0.0,0.0,0.0,0.0,0.0,0.0,0.0,0.0,0.0,0.0,0.0,0.0,0.0,0.0,0.0,0.0,0.0,-0.9588,-0.9617,-1.0241,-1.0979,0.0,0.0,-1.0444,-0.9703,-0.9505,-0.916,-0.8346,0.0,0.0,0.0,0.0,0.0,0.0,0.0,0.0,0.0,0.0,0.0,0.0,0.0,0.0,0.0,0.0,0.0,0.0,0.0,0.0,0.0,0.0,0.0,0.0,0.0,0.0,0.0,0.0,0.0,0.0,0.0,0.0,0.0,0.0,0.0,0.0,0.0,0.0,0.0,0.0,0.0,0.0,0.0,0.0,0.0,0.0,0.0,0.0,0.0,0.0,0.0,0.0,0.0,-1.448,-1.6682,-1.8882,-2.0399,-2.1173,-2.1634,-2.1265,-2.0018,-1.8988,-1.7513,0.0,0.0,0.0,0.0,0.0,0.0,0.0,0.0,0.0,0.0,0.0,0.0,0.0,0.0,0.0,0.0,0.0,0.0,0.0,0.0,0.0,0.0,0.0,0.0,0.0,0.0,0.0,0.0,-0.4768,-0.4762,-0.4787,0.0,0.0,0.0,0.0,0.0,0.0,0.0,0.0,0.0,0.0,-0.9926,-1.0829,-1.0862,0.0,0.0,-1.1265,-1.0821,-1.1034,-1.0164,-0.9405,-0.9076,-0.8355,0.0,0.0,0.0,0.0,0.0,0.0,0.0,0.0,0.0,0.0,0.0,0.0,0.0,0.0,0.0,0.0,0.0,0.0,0.0,0.0,0.0,0.0,0.0,0.0,0.0,0.0,0.0,0.0,0.0,0.0,0.0,0.0,0.0,0.0,0.0,0.0,0.0,0.0,0.0,0.0,0.0,0.0,0.0,0.0,0.0,0.0,0.0,0.0,0.0,0.0,0.0,0.0,-1.4606,-1.701,-1.8983,-2.0504,-2.1498,-2.204,-2.1552,-2.0052,-1.9299,-1.7834,0.0,0.0,0.0,0.0,0.0,0.0,0.0,0.0,0.0,0.0,0.0,0.0,0.0,0.0,0.0,0.0,0.0,0.0,0.0,0.0,0.0,0.0,0.0,0.0,0.0,0.0,0.0,0.0,-0.4872,-0.4748,-0.4787,0.0,0.0,0.0,0.0,0.0,0.0,0.0,0.0,0.0,0.0,-1.0229,-1.1941,-1.16,-1.1514,-1.2597,-1.2043,-1.1718,-1.2274,-1.1166,-1.0164,-0.9932,0.0,0.0,0.0,0.0,0.0,0.0,0.0,0.0,0.0,0.0,0.0,0.0,0.0,0.0,0.0,0.0,0.0,0.0,0.0,0.0,0.0,0.0,0.0,0.0,0.0,0.0,0.0,0.0,0.0,0.0,-1.3388,0.0,0.0,0.0,0.0,0.0,0.0,0.0,0.0,0.0,0.0,0.0,0.0,0.0,0.0,0.0,0.0,0.0,0.0,0.0,0.0,0.0,0.0,-1.486,-1.7743,-1.9253,-2.0741,-2.2195,-2.2296,-2.1569,-2.0069,-1.9299,-1.7862,-1.5629,0.0,0.0,0.0,0.0,0.0,0.0,0.0,0.0,0.0,0.0,0.0,0.0,0.0,0.0,0.0,0.0,0.0,0.0,0.0,0.0,0.0,0.0,0.0,0.0,0.0,0.0,-0.5753,-0.5192,-0.4787,0.0,0.0,0.0,0.0,0.0,0.0,0.0,0.0,0.0,0.0,-0.9653,-1.0418,-1.2544,-1.2362,-1.2542,-1.4166,-1.3673,-1.315,-1.3169,-1.248,-1.1686,0.0,0.0,0.0,0.0,0.0,0.0,0.0,0.0,0.0,0.0,0.0,0.0,0.0,0.0,0.0,0.0,0.0,0.0,0.0,0.0,0.0,0.0,0.0,0.0,0.0,0.0,0.0,-1.7371,-1.6718,0.0,0.0,0.0,0.0,0.0,0.0,0.0,0.0,0.0,0.0,0.0,-1.9713,-2.0209,0.0,0.0,0.0,0.0,0.0,0.0,0.0,0.0,0.0,0.0,0.0,0.0,-1.5595,-1.842,-1.9507,-2.0728,-2.2245,-2.2313,-2.182,-2.0822,-2.0031,-1.8121,-1.4977,0.0,0.0,0.0,0.0,0.0,0.0,0.0,0.0,0.0,0.0,0.0,0.0,0.0,0.0,0.0,0.0,0.0,0.0,0.0,0.0,0.0,0.0,0.0,0.0,0.0,-0.5882,0.0,0.0,0.0,0.0,0.0,0.0,0.0,0.0,0.0,0.0,0.0,-0.9562,-1.0384,-1.0953,-1.1663,-1.2756,-1.2874,-1.3254,0.0,0.0,0.0,0.0,0.0,0.0,0.0,0.0,0.0,0.0,0.0,0.0,0.0,0.0,-1.0314,-0.8178,-0.7336,-0.7064,-0.7341,0.0,0.0,0.0,0.0,0.0,0.0,0.0,0.0,0.0,0.0,0.0,0.0,0.0,0.0,-2.0044,0.0,-1.9372,0.0,0.0,0.0,0.0,0.0,0.0,0.0,0.0,-2.0276,-2.1258,-2.1986,-2.2446,-2.2161,0.0,-2.1181,-1.927,0.0,0.0,0.0,0.0,0.0,0.0,0.0,0.0,-1.6458,-1.8809,-1.9908,-2.1028,-2.2229,-2.2313,-2.1955,-2.1207,-1.9925,-1.7867,-1.4977,-1.3667,-1.2544,0.0,0.0,0.0,0.0,0.0,0.0,0.0,0.0,0.0,0.0,0.0,0.0,0.0,0.0,0.0,0.0,0.0,0.0,0.0,0.0,0.0,0.0,0.0,-0.6372,0.0,0.0,0.0,0.0,0.0,0.0,0.0,0.0,0.0,-0.889,-0.9864,-1.0814,-1.1631,-1.2173,-1.2852,-1.3747,0.0,0.0,0.0,0.0,0.0,0.0,0.0,-1.4319,-1.5111,-1.4093,-1.3114,-1.2869,-1.3212,-1.2973,-1.1282,0.0,0.0,-0.9052,-0.8225,-0.7928,-0.8242,-0.8131,-0.804,-0.8324,-0.839,-0.8395,0.0,0.0,0.0,0.0,0.0,0.0,0.0,0.0,-2.3257,-2.3122,0.0,-2.2381,0.0,0.0,0.0,0.0,0.0,-2.0192,0.0,0.0,-2.3408,-2.4135,-2.3494,-2.3526,-2.3494,-2.3477,-2.3458,-2.2293,-1.9985,-1.7242,0.0,0.0,0.0,0.0,0.0,0.0,-1.7495,-1.9007,-2.0429,-2.1563,-2.2279,-2.2313,-2.1941,-2.1173,-1.9063,-1.7236,-1.5747,-1.496,-1.3878,-1.2449,-1.1586,0.0,0.0,0.0,0.0,0.0,0.0,0.0,0.0,0.0,0.0,0.0,0.0,0.0,0.0,0.0,0.0,0.0,0.0,0.0,0.0,-0.7034,0.0,0.0,0.0,0.0,0.0,0.0,0.0,0.0,0.0,0.0,-1.0102,-1.1273,-1.2485,-1.3262,0.0,0.0,0.0,0.0,-1.5405,-1.7693,-1.7385,-1.7128,-1.7851,-1.6663,-1.541,-1.4726,0.0,0.0,-1.2317,-1.3474,-1.3714,-1.1378,-1.1393,-1.1563,-1.112,-0.9751,-0.9013,-0.9741,-0.9317,-0.914,-0.9783,-0.9824,-0.9879,-2.796,0.0,0.0,0.0,0.0,-2.5101,-2.5778,-2.7063,-2.6691,-2.6116,-2.5406,-2.4881,0.0,0.0,0.0,0.0,0.0,0.0,-2.2276,-2.2815,-2.3966,-2.4677,-2.5,-2.5507,-2.549,-2.5,-2.4983,-2.4088,-2.2446,-2.1583,-1.9333,-1.5825,0.0,0.0,0.0,0.0,-1.9031,-2.0539,-2.1014,-2.1563,-2.2296,-2.2313,-2.1955,-2.1207,-2.0027,-1.8696,-1.7225,-1.6468,-1.5392,-1.3946,-1.3151,0.0,0.0,0.0,0.0,0.0,0.0,0.0,0.0,0.0,0.0,0.0,0.0,0.0,0.0,0.0,0.0,0.0,0.0,0.0,-0.6754,-0.7504,-0.7972,0.0,0.0,0.0,0.0,0.0,0.0,0.0,0.0,0.0,-1.3789,-1.3881,-1.4114,0.0,0.0,-1.6163,-1.7007,-1.6597,-1.6597,-1.766,-1.7293,0.0,0.0,-1.6004,-1.5833,-1.6156,-1.5533,-1.472,-1.395,-1.4267,-1.4044,-1.2207,-1.1799,-1.1607,-1.1263,-1.0372,-0.9759,-0.9908,-0.9796,-0.9718,-0.9944,-1.0004,-1.0011,-3.2141,-2.9008,-2.7706,-2.7673,-2.845,-2.8315,-2.8873,-2.9839,-2.9347,-2.889,-2.8433,-2.7723,-2.6556,-2.5084,-2.4132,0.0,0.0,0.0,-2.5006,-2.5737,-2.5874,-2.6163,-2.6555,-2.6741,-2.6571,-2.6114,-2.6147,-2.5535,-2.4394,-2.4394,-2.2728,-1.9573,0.0,0.0,-1.9653,-2.0327,-2.1166,-2.2075,-2.2084,-2.2276,-2.2733,-2.2448,-2.1955,-2.1207,-2.042,-1.9444,-1.8285,-1.7247,-1.6147,-1.4977,-1.4225,-1.2795,0.0,0.0,0.0,0.0,0.0,0.0,0.0,0.0,0.0,0.0,0.0,-0.5731,-0.5009,0.0,0.0,0.0,-0.6643,-0.763,-0.9125,-0.9533,0.0,0.0,0.0,0.0,0.0,0.0,0.0,-1.2902,-1.3613,-1.4664,-1.6408,-1.6218,-1.6114,-1.6573,-1.708,-1.7612,-1.8236,0.0,-1.7465,-1.7679,-1.7789,-1.7575,-1.6775,-1.6383,-1.6145,-1.5955,-1.5576,-1.5105,-1.4622,-1.4578,-1.4171,-1.3025,-1.2471,-1.2164,-1.1772,-1.1062,-1.0377,-1.0113,-1.0032,-1.0042,-1.0044,-1.0042,-1.0047,-3.6068,-3.4612,-3.2581,-3.1596,-3.1444,-3.2107,-3.2005,-3.1393,-3.136,-3.1396,-3.1328,-3.0531,-2.9347,-2.7859,-2.6638,0.0,-2.713,-2.7862,-2.8545,-2.9245,-2.8527,-2.8169,-2.8083,-2.7401,-2.706,-2.6994,-2.6992,-2.6649,-2.5998,-2.5981,-2.5295,-2.3976,-2.3104,-2.2581,-2.2446,-2.312,-2.3509,-2.3477,-2.3477,-2.346,-2.3408,-2.275,-2.2006,-2.1237,-2.042,-1.9647,-1.8905,-1.7551,-1.6417,-1.5629,-1.496,-1.3557,-1.1333,0.0,0.0,0.0,0.0,0.0,0.0,0.0,0.0,0.0,0.0,0.0,0.0,0.0,0.0,0.0,-0.8567,0.0,-1.2681,-1.2288,0.0,0.0,0.0,-1.092,-1.0253,-1.2196,-1.3899,-1.4677,0.0,0.0,-1.8096,-1.8207,-1.8207,-1.8207,-1.8207,-1.8463,-1.9205,-1.8581,-1.8023,-1.7931,-1.8544,-1.8816,-1.7872,-1.7186,-1.6261,-1.505,-1.4548,-1.453,-1.4517,-1.4522,-1.4191,-1.3561,-1.3313,-1.3078,-1.2516,-1.1876,-1.1154,-1.0357,-1.0154,-1.0094,-1.0094,-1.0094,-1.0096,-3.7485,-3.7188,-3.6581,-3.4996,-3.2916,-3.3068,-3.3034,-3.2882,-3.2882,-3.2923,-3.2937,-3.1596,-3.0241,-2.8936,-2.8613,-2.8544,-2.8732,-2.892,-2.9074,-2.914,-2.9057,-2.8954,-2.8797,-2.8135,-2.7827,-2.7793,-2.7264,-2.6922,-2.6751,-2.6734,-2.6563,-2.6221,-2.5939,-2.4955,-2.3383,-2.3969,-2.4313,-2.4299,-2.4269,-2.3966,-2.3424,-2.3241,-2.253,-2.1241,-2.042,-1.9659,-1.8922,-1.8031,-1.6931,-1.568,-1.5426,-1.4327,-1.2135,-1.0741,0.0,0.0,0.0,0.0,0.0,0.0,0.0,0.0,0.0,-0.8435,-0.6584,0.0,-0.9747,0.0,-1.1225,-1.1904,-1.1943,-1.1907,0.0,0.0,-1.3221,-1.3815,-1.4229,-1.5337,-1.6346,-1.7154,-1.7575,-1.8115,-1.8922,-1.9022,-1.9047,-1.9081,-1.9088,-1.9162,-1.926,-1.8654,-1.8414,-1.8863,-1.8243,-1.7494,-1.7321,-1.6577,-1.5938,-1.5496,-1.4915,-1.4498,-1.4498,-1.4585,-1.4589,-1.437,-1.3877,-1.3515,-1.3376,-1.2697,-1.1908,-1.1163,-1.0531,-1.0096,-1.0096,-1.0096,-1.0096,-3.8732,-3.8499,-3.8403,-3.7252,-3.5457,-3.5069,-3.4726,-3.437,-3.4032,-3.3939,-3.3952,-3.2781,-3.1817,-3.1111,-3.0842,-3.0728,-3.0731,-3.0443,-3.0309,-3.0274,-3.0054,-2.9847,-2.969,-2.9042,-2.8545,-2.8185,-2.779,-2.743,-2.7056,-2.7039,-2.7039,-2.7039,-2.7006,-2.6374,-2.5225,-2.5411,-2.5537,-2.5521,-2.5168,-2.4628,-2.3932,-2.3562,-2.3018,-2.2206,-2.1126,-2.0179,-1.9406,-1.8691,-1.7608,-1.618,-1.6096,-1.5223,-1.3388,-1.2483,-1.1714,0.0,0.0,0.0,0.0,0.0,0.0,0.0,0.0,0.0,0.0,0.0,-1.112,-1.2218,-1.2793,-1.3382,-1.4073,-1.4239,-1.4373,-1.4518,-1.5381,-1.5862,-1.5595,-1.6691,-1.7612,-1.8052,-1.8427,-1.8794,-1.9242,-1.9279,-1.9331,-1.9372,-1.9416,-1.9398,-1.9368,-1.9029,-1.8961,-1.9415,-1.8735,-1.7963,-1.7624,-1.6842,-1.6208,-1.5809,-1.5367,-1.498,-1.4617,-1.4608,-1.4666,-1.4634,-1.4345,-1.411,-1.4114,-1.352,-1.2825,-1.2424,-1.1754,-1.1007,-1.0266,-1.0096,-1.0096,-3.974,-3.9165,-3.9148,-3.879,-3.818,-3.7401,-3.6592,-3.5723,-3.5064,-3.4697,-3.4493,-3.3872,-3.3533,-3.3397,-3.289,-3.2701,-3.2733,-3.2076,-3.1828,-3.1868,-3.1179,-3.0781,-3.0604,-2.9937,-2.9282,-2.8578,-2.8456,-2.8008,-2.7289,-2.717,-2.7135,-2.7101,-2.7103,-2.7086,-2.7069,-2.6842,-2.6708,-2.6691,-2.6082,-2.5389,-2.4643,-2.39,-2.3444,-2.3224,-2.182,-2.0683,-1.9883,-1.9232,-1.8211,-1.6817,-1.6773,-1.612,-1.4596,-1.4419,-1.3777,0.0,-1.2348,0.0,0.0,0.0,0.0,0.0,0.0,0.0,0.0,-1.1761,-1.2542,-1.3787,-1.3993,-1.4915,-1.6975,-1.7178,-1.6941,-1.6407,-1.7156,-1.7214,-1.6056,-1.7381,-1.8493,-1.8518,-1.9164,-1.9609,-1.9683,-1.9609,-1.9651,-1.9829,-1.9855,-1.9778,-1.952,-1.9453,-1.9464,-1.9576,-1.9559,-1.9079,-1.8462,-1.7686,-1.6953,-1.6294,-1.6041,-1.5696,-1.4933,-1.4846,-1.4796,-1.4653,-1.4648,-1.4676,-1.4733,-1.4231,-1.38,-1.3631,-1.3097,-1.218,-1.0761,-1.0321,-1.0211,-4.0078,-4.0034,-3.9918,-3.9469,-3.8817,-3.8657,-3.7892,-3.6729,-3.6463,-3.574,-3.4686,-3.4623,-3.4256,-3.3659,-3.3645,-3.3636,-3.3622,-3.2965,-3.2638,-3.2582,-3.1918,-3.1501,-3.1281,-3.0745,-3.035,-3.002,-2.8955,-2.83,-2.8162,-2.7542,-2.7266,-2.7249,-2.7105,-2.7024,-2.7007,0.0,0.0,0.0,-2.6556,-2.6133,-2.5406,-2.4677,-2.3712,-2.2533,-2.1028,0.0,-1.9164,-1.8978,-1.8211,-1.6834,-1.727,0.0,0.0,0.0,0.0,0.0,0.0,0.0,0.0,0.0,0.0,0.0,-1.4623,-1.3998,-1.2407,-1.4461,-1.5802,-1.552,-1.6148,-1.6526,-1.6326,-1.643,-1.6443,-1.6362,-1.6962,-1.7567,-1.8039,-1.9427,-2.048,-2.0753,-2.1104,-2.1298,-2.1262,-2.1323,-2.1328,-2.1313,-2.1414,-2.0894,-1.9697,-1.9563,-1.9548,-1.9583,-1.9569,-1.9506,-1.93,-1.8577,-1.7983,-1.7717,-1.7219,-1.6571,-1.5855,-1.5798,-1.5581,-1.4932,-1.4688,-1.4741,-1.4826,-1.4662,-1.4359,-1.3959,-1.3723,-1.3071,-1.1441,-1.1083,-1.0892,-4.068,0.0,-4.029,-3.9918,0.0,-3.9579,-3.8977,-3.8027,-3.718,-3.6192,-3.5164,-3.5278,-3.5078,-3.4623,-3.4375,-3.4301,-3.4247,-3.3599,-3.311,-3.2803,-3.2504,-3.2089,-3.1651,-3.1366,-3.1023,-3.0573,-2.9868,-2.9093,-2.827,-2.7875,-2.7514,-2.7154,-2.704,-2.7057,-2.7138,-2.6958,-2.6809,-2.6708,-2.6369,-2.6183,-2.6116,-2.5423,-2.4492,-2.341,0.0,0.0,0.0,0.0,0.0,0.0,0.0,0.0,0.0,0.0,0.0,-1.6079,-1.5757,-1.5733,-1.6129,-1.6571,-1.6843,-1.6881,-1.7285,-1.6559,-1.4315,-1.5896,-1.7016,-1.7053,-1.7807,-1.8274,-1.8256,-1.8283,-1.8326,-1.8353,-1.8548,-1.9009,-1.9823,-2.0832,-2.1507,-2.158,-2.1715,-2.1794,-2.1794,-2.1793,-2.1809,-2.1832,-2.1859,-2.1588,-2.0859,-2.0348,-2.0004,-1.9669,-1.9583,-1.9583,-1.9539,-1.9254,-1.8739,-1.833,-1.7936,-1.7392,-1.6638,-1.639,-1.6118,-1.5542,-1.5078,-1.4744,-1.4859,-1.4831,-1.4715,-1.4511,-1.4453,-1.4064,-1.2804,-1.1902,-1.1203,-4.1204,-4.1136,-4.0417,-4.0163,-4.0238,-4.0121,-3.9756,-3.905,0.0,0.0,0.0,-3.5932,-3.5847,-3.5571,-3.5132,-3.4925,-3.4887,-3.4247,-3.3685,-3.3179,-3.2984,-3.2536,-3.1932,-3.1813,-3.1434,-3.085,-3.0712,-2.9953,-2.8596,-2.8288,-2.7827,-2.7263,-2.7076,-2.704,-2.7169,-2.6936,-2.6773,-2.6674,-2.6165,-2.608,-2.6488,-2.5913,-2.5321,-2.4711,-2.3714,-2.2632,-2.1444,-2.0636,-1.9862,-1.913,-1.8657,-1.8285,-1.802,-1.7986,-1.8268,-1.8843,-1.8917,-1.9009,-1.9187,-1.9291,-1.9076,-1.8542,-1.9109,-1.8689,-1.6812,-1.7259,-1.7862,-1.8528,-1.9148,-1.974,-2.0325,-2.0377,-2.0343,-2.0205,-2.0098,-2.0217,-2.0735,-2.1549,-2.194,-2.1917,-2.2072,-2.2126,-2.2042,-2.206,-2.2004,-2.2019,-2.2083,-2.2053,-2.2009,-2.1113,-2.0244,-1.9966,-1.9754,-1.9587,-1.9583,-1.9564,-1.9286,-1.8722,-1.8555,-1.8228,-1.751,-1.7083,-1.6768,-1.6248,-1.5412,-1.4865,-1.4837,-1.485,-1.4915,-1.4992,-1.5042,-1.4881,-1.4191,-1.2884,-1.1759,-4.1221,-4.1136,-4.0417,-4.0113,-4.0121,-4.0096,-3.969,-3.8962,-3.8125,-3.7313,-3.6643,-3.6643,-3.6254,-3.5622,-3.5747,-3.5822,-3.5788,-3.5246,-3.4891,0.0,-3.3404,-3.2655,-3.2375,-3.1805,-3.1485,-3.135,-3.0791,-3.0468,-3.0213,-2.8939,-2.8201,-2.803,-2.7299,-2.6876,-2.6757,-2.6278,-2.6262,-2.6691,-2.6623,-2.6318,-2.5859,-2.5692,-2.5558,-2.5372,-2.3513,-2.2381,-2.2144,-2.1431,-2.067,-1.9913,-2.0416,-2.0124,-1.8843,-1.8741,-1.8787,-1.8905,-1.8936,-1.9289,-1.9999,-2.0142,-2.0175,-2.009,-2.0188,-2.0102,-1.982,-1.986,-1.9975,-2.0096,-2.0199,-2.0274,-2.0377,-2.0446,-2.0251,-1.9671,-1.9682,-1.9727,-1.9788,-2.0991,-2.1996,-2.2268,-2.3002,-2.3292,-2.2914,-2.2831,-2.283,-2.2838,-2.2838,-2.2874,-2.2624,-2.1099,-2.0157,-2.0374,-2.0026,-1.9649,-1.9587,-1.9583,-1.949,-1.9441,-1.936,-1.9045,-1.8284,-1.855,-1.8272,-1.6693,-1.5746,-1.5014,-1.4846,-1.4737,-1.4874,-1.5046,-1.5015,-1.492,-1.4855,-1.4071,-1.2996,-4.2168,-4.1728,-4.1001,-4.0485,-4.0113,-4.0113,-3.9926,-3.9563,-3.9249,-3.8447,-3.7405,-3.7011,-3.6638,-3.6237,-3.5987,-3.5844,-3.5783,-3.5595,-3.5305,-3.4898,-3.4291,-3.3534,-3.2681,-3.2344,-3.1965,-3.1517,-3.1213,-3.0838,-3.0376,-2.9673,-2.8938,-2.8152,-2.735,-2.6909,-2.6792,-2.6569,-2.6365,-2.6182,-2.6247,-2.6247,-2.6266,-2.6283,-2.608,-2.5592,-2.4561,-2.39,-2.3494,-2.2781,-2.204,-2.1282,-2.1211,-2.0683,-1.9575,-1.949,-1.9705,-2.0107,-2.0166,-2.0569,-2.1386,-2.158,-2.1652,-2.1664,-2.1652,-2.1647,-2.1647,-2.1285,-2.1061,-2.1061,-2.1061,-2.1216,-2.1595,-2.1285,-2.1078,-2.1165,-2.0798,-2.0813,-2.1474,-2.2205,-2.2916,-2.328,-2.3701,-2.3918,-2.3694,-2.3658,-2.364,-2.3658,-2.3658,-2.3731,-2.3785,-2.2946,-2.1836,-2.0971,-2.0111,-1.966,-1.9587,-1.9583,-1.9583,-1.9583,-1.9583,-1.9434,-1.9045,-1.9404,-1.91,-1.8364,-1.7622,-1.6915,-1.6002,-1.5518,-1.5358,-1.4989,-1.5023,-1.5045,-1.4985,-1.4453,-1.3188,-4.3098,-4.2472,-4.1576,-4.0781,-4.0113,-4.0113,-4.0113,-4.0113,-4.0096,-3.9445,-3.8403,-3.7678,-3.717,-3.6745,-3.626,-3.5903,-3.5684,-3.5778,-3.556,-3.5134,-3.498,-3.4316,-3.3234,-3.2892,-3.2356,-3.1752,-3.1547,-3.1117,-3.0534,-3.0309,-2.9526,-2.8286,-2.7555,-2.7181,-2.7097,-2.6978,-2.657,-2.5976,-2.6057,-2.6245,-2.6471,-2.6707,-2.6521,-2.5913,-2.5676,-2.5338,-2.4762,-2.4034,-2.3376,-2.2818,-2.2257,-2.1664,-2.1062,-2.1011,-2.1295,-2.185,-2.1949,-2.2272,-2.2955,-2.3151,-2.3202,-2.3216,-2.3216,-2.3147,-2.2923,-2.244,-2.2009,-2.1888,-2.1854,-2.2061,-2.2457,-2.2181,-2.2009,-2.2371,-2.1716,-2.1484,-2.2517,-2.3021,-2.3382,-2.3684,-2.3898,-2.3989,-2.3941,-2.3914,-2.385,-2.3833,-2.4118,-2.4294,-2.4376,-2.4431,-2.355,-2.1917,-2.0563,-1.99,-1.968,-1.9583,-1.9583,-1.9583,-1.9583,-1.9564,-1.9534,-1.9564,-1.9583,-1.9423,-1.9472,-1.8639,-1.7191,-1.6298,-1.5812,-1.5329,-1.5129,-1.5019,-1.4981,-1.4634,-1.3617,-4.3358,-4.3071,-4.1803,-4.0764,-4.0163,-4.0113,-4.0113,-4.0113,-4.0113,-4.0062,-3.9757,-3.9131,-3.8048,-3.6914,-3.6808,-3.6424,-3.5824,-3.5927,-3.5859,-3.5635,-3.5044,-3.4572,-3.4202,-3.2995,-3.2374,-3.2281,-3.1689,-3.1368,-3.1255,-3.0549,-2.9761,-2.8927,-2.8235,-2.7827,-2.7656,-2.7182,-2.6791,-2.6606,-2.674,-2.6468,-2.5875,-2.6402,-2.6674,-2.6607,-2.5947,-2.5576,-2.5507,-2.478,-2.4372,-2.4305,-2.4186,-2.4135,-2.4034,-2.4034,-2.4085,-2.4118,-2.4215,-2.4407,-2.4619,-2.4714,-2.464,-2.4784,-2.4678,-2.4336,-2.3715,-2.3595,-2.3285,-2.2716,-2.2561,-2.2543,-2.2681,-2.2578,-2.2285,-2.1906,-2.1544,-2.1098,-2.1068,-2.1388,-2.2038,-2.2425,-2.3196,-2.3379,-2.3277,-2.3262,-2.3226,-2.3373,-2.387,-2.4229,-2.4294,-2.4394,-2.4134,-2.3011,-2.1893,-2.0737,-1.9958,-1.9602,-1.9657,-1.9639,-1.9583,-1.9583,-1.9583,-1.9583,-1.9583,-1.9583,-1.9583,-1.9084,-1.7963,-1.6847,-1.6049,-1.5886,-1.5466,-1.4915,-1.4976,-1.494,-1.4367,-4.3842,-4.3341,-4.275,-4.183,-4.0781,-4.0316,-4.0113,-4.0113,-4.0113,-4.0113,-4.0079,-3.9774,-3.908,-3.8065,-3.7248,-3.6655,-3.6373,-3.5977,-3.5778,-3.5778,-3.5472,-3.5098,-3.4563,-3.402,-3.3273,-3.2422,-3.2032,-3.1678,-3.124,-3.0523,-2.9959,-2.9533,-2.8486,-2.7859,-2.7756,-2.7131,-2.6758,-2.6708,-2.6758,-2.6623,-2.6369,-2.6622,-2.6775,-2.6691,-2.642,-2.6251,-2.6218,-2.593,-2.5608,-2.5203,-2.5152,-2.4965,-2.4508,-2.4508,-2.4508,-2.4506,-2.4615,-2.4735,-2.4888,-2.4932,-2.4755,-2.4336,-2.4284,-2.3974,-2.325,-2.3147,-2.3009,-2.2733,-2.2315,-2.2199,-2.2578,-2.2302,-2.2078,-2.2164,-2.213,-2.2026,-2.2038,-2.2294,-2.2647,-2.2923,-2.3207,-2.337,-2.3303,-2.3394,-2.3533,-2.3657,-2.4026,-2.4201,-2.4275,-2.4312,-2.3979,-2.3348,-2.2681,-2.1845,-2.0671,-2.0314,-2.011,-1.975,-1.9583,-1.9583,-1.9602,-1.9602,-1.9583,-1.9583,-1.9583,-1.9249,-1.8327,-1.7838,-1.7244,-1.6763,-1.6083,-1.5475,-1.5098,-1.5056,-1.4896,-4.4265,-4.3741,-4.3521,-4.253,-4.1187,-4.0629,-4.0299,-4.0113,-4.0113,-4.0113,-4.0113,-4.0113,-3.9808,-3.9157,-3.7963,-3.7218,-3.6778,-3.6197,-3.5847,-3.5768,-3.5751,-3.5428,-3.4958,-3.4703,-3.4054,-3.2987,-3.2479,-3.1904,-3.1207,-3.0683,-3.0395,-3.0209,-2.9075,-2.8331,-2.8078,-2.7385,-2.6877,-2.6708,-2.6708,-2.6708,-2.6708,-2.6792,-2.6792,-2.6691,-2.6488,-2.6488,-2.6708,-2.6505,-2.6268,-2.593,-2.5896,-2.5675,-2.5216,-2.5116,-2.5032,-2.486,-2.4919,-2.494,-2.4905,-2.4947,-2.4718,-2.4215,-2.4112,-2.3819,-2.3198,-2.3009,-2.2905,-2.2681,-2.2216,-2.2199,-2.2509,-2.2216,-2.2181,-2.263,-2.2712,-2.2803,-2.2905,-2.2995,-2.3025,-2.3277,-2.3277,-2.3352,-2.3403,-2.3559,-2.3712,-2.3973,-2.4058,-2.4171,-2.4257,-2.4248,-2.4045,-2.3608,-2.3533,-2.2838,-2.1487,-2.1142,-2.0771,-2.024,-1.9973,-1.9917,-1.9701,-1.9602,-1.9583,-1.9583,-1.9583,-1.9434,-1.8878,-1.8581,-1.8029,-1.7269,-1.6569,-1.5983,-1.5514,-1.527,-1.509,-4.4581,-4.4429,-4.3724,-4.2581,-4.1221,-4.1153,-4.073,-4.018,-4.0113,-4.0113,-4.0113,-4.0113,-4.0079,-3.996,-3.914,-3.8149,-3.6924,-3.6715,-3.6253,-3.5678,-3.5639,-3.5605,-3.5504,-3.4844,-3.446,-3.4138,-3.3051,-3.2053,-3.1292,-3.1157,-3.1157,-3.1055,-3.0241,-2.96,-2.8907,-2.8112,-2.7384,-2.6843,-2.6725,-2.6708,-2.6708,-2.6708,-2.6725,-2.664,-2.6065,-2.6065,-2.6539,-2.6031,-2.5964,-2.6623,-2.6556,-2.6606,-2.6689,-2.6555,-2.6132,-2.5654,-2.5602,-2.5391,-2.4979,-2.492,-2.4864,-2.487,-2.4764,-2.4525,-2.3633,-2.3512,-2.3302,-2.2767,-2.2625,-2.263,-2.2681,-2.2595,-2.2578,-2.2664,-2.2712,-2.2694,-2.2738,-2.2764,-2.2855,-2.304,-2.3114,-2.3176,-2.3364,-2.3403,-2.3544,-2.3756,-2.3886,-2.3998,-2.4201,-2.4266,-2.4238,-2.4256,-2.4153,-2.3782,-2.2351,-2.1959,-2.1606,-2.1049,-2.0697,-2.0567,-1.9991,-1.9583,-1.9602,-1.962,-1.9602,-1.9546,-1.9379,-1.8908,-1.8171,-1.7442,-1.6797,-1.625,-1.5833,-1.5363,-1.514,-4.4598,-4.453,-4.3741,-4.3071,-4.254,-4.1627,-4.1052,-4.0747,-4.0299,-4.0113,-4.0113,-4.0113,-4.0113,-4.0096,-3.9842,-3.895,-3.7603,-3.6652,-3.6045,-3.5792,-3.566,-3.5616,-3.5566,-3.5295,-3.4928,-3.4472,-3.3936,-3.3098,-3.1938,-3.1444,-3.119,-3.1072,-3.0463,-2.9956,-2.9533,-2.8415,-2.7655,-2.7384,-2.6962,-2.6708,-2.6725,-2.6708,-2.6708,-2.6691,-2.6454,-2.642,-2.6691,-2.6454,-2.6437,-2.6691,-2.6268,-2.6014,-2.6013,-2.559,-2.5216,-2.5024,-2.4989,-2.51,-2.527,-2.5058,-2.4763,-2.4508,-2.4336,-2.3922,-2.3267,-2.3078,-2.2974,-2.2767,-2.2712,-2.2712,-2.2712,-2.2712,-2.2712,-2.2712,-2.2712,-2.2712,-2.2712,-2.2712,-2.2751,-2.2829,-2.2855,-2.2952,-2.3128,-2.32,-2.3318,-2.3555,-2.3735,-2.3878,-2.4018,-2.4152,-2.4256,-2.4275,-2.4257,-2.41,-2.3701,-2.3021,-2.2534,-2.194,-2.1532,-2.1495,-2.1124,-2.011,-1.9906,-2.011,-1.9998,-1.9583,-1.9446,-1.9318,-1.8545,-1.8027,-1.7368,-1.6747,-1.6145,-1.5927,-1.5548,-4.4598,-4.4513,-4.4012,-4.3639,-4.3291,-4.2354,-4.1521,-4.0918,-4.037,-3.994,-3.9582,-3.9523,-3.9627,-3.9747,-3.9584,-3.9073,-3.8107,-3.7074,-3.6448,-3.6154,-3.5867,-3.566,-3.5616,-3.5616,-3.5351,-3.4856,-3.4577,-3.3835,-3.2713,-3.1901,-3.1562,-3.1512,-3.0818,-3.0328,-2.9954,-2.9024,-2.8466,-2.8129,-2.7435,-2.7063,-2.7029,-2.681,-2.6708,-2.6708,-2.6708,-2.6708,-2.6691,-2.6471,-2.6471,-2.659,-2.6218,-2.5947,-2.5896,-2.5522,-2.518,-2.5006,-2.4972,-2.4965,-2.5032,-2.4751,-2.4282,-2.377,-2.356,-2.3267,-2.306,-2.3129,-2.3147,-2.3095,-2.3043,-2.2992,-2.275,-2.2712,-2.2712,-2.2712,-2.2712,-2.2712,-2.2712,-2.2712,-2.2712,-2.2712,-2.2725,-2.2786,-2.2914,-2.2952,-2.3096,-2.3324,-2.3506,-2.361,-2.3827,-2.3996,-2.4162,-2.4229,-2.4257,-2.4248,-2.4081,-2.3736,-2.3262,-2.2677,-2.238,-2.2351,-2.2025,-2.0975,-2.0437,-2.0585,-2.0307,-1.9799,-1.9555,-1.9512,-1.9176,-1.8689,-1.8167,-1.7534,-1.7058,-1.6645,-1.6214,-4.4598,-4.4598,-4.4581,-4.413,-4.3538,-4.3301,-4.2192,-4.0783,-4.0375,-3.9682,-3.8892,-3.8451,-3.8767,-3.9001,-3.8695,-3.833,-3.8219,-3.7925,-3.7359,-3.6664,-3.6073,-3.5697,-3.5542,-3.5515,-3.5549,-3.5447,-3.4822,-3.4129,-3.3406,-3.2553,-3.2131,-3.2124,-3.1481,-3.0784,-3.0142,-2.9973,-2.9634,-2.8975,-2.823,-2.7807,-2.7722,-2.7131,-2.6776,-2.6708,-2.6708,-2.6708,-2.6691,-2.6082,-2.6082,-2.6623,-2.6607,-2.664,-2.6437,-2.6435,-2.6366,-2.562,-2.5586,-2.5137,-2.4338,-2.4022,-2.3673,-2.3326,-2.2909,-2.3305,-2.377,-2.4008,-2.4043,-2.3871,-2.3802,-2.3564,-2.3026,-2.294,-2.2867,-2.2712,-2.2712,-2.2712,-2.2712,-2.2712,-2.2712,-2.2716,-2.275,-2.2733,-2.2746,-2.298,-2.3198,-2.3355,-2.3358,-2.3495,-2.3844,-2.393,-2.4036,-2.4266,-2.4266,-2.4163,-2.4257,-2.4293,-2.3848,-2.3432,-2.3246,-2.3125,-2.2799,-2.2028,-2.1668,-2.1631,-2.0522,-1.9978,-1.9515,-1.9479,-1.9468,-1.9055,-1.8649,-1.8243,-1.7756,-1.7262,-1.6851,-4.4598,-4.4598,-4.4598,-4.4479,-4.4147,-4.3639,-4.2945,-4.2259,-4.0967,-4.0067,-3.9533,-3.8702,-3.839,-3.8518,-3.8362,-3.8278,-3.8262,-3.7838,-3.7203,-3.6449,-3.5695,-3.5313,-3.5186,-3.5105,-3.524,-3.5346,-3.4471,-3.4063,-3.3857,-3.2567,-3.1926,-3.2097,-3.1562,-3.1106,-3.0816,-3.0378,-2.9939,-2.9719,-2.9008,-2.8383,-2.7858,-2.7587,-2.7249,-2.6759,-2.6708,-2.6708,-2.6691,-2.6471,-2.6471,-2.6708,-2.6218,-2.571,-2.5337,-2.5233,-2.5115,-2.4928,-2.486,-2.4962,-2.4874,-2.4528,-2.4462,-2.4533,-2.4385,-2.4345,-2.4577,-2.4715,-2.4747,-2.4629,-2.4612,-2.4491,-2.435,-2.4281,-2.3819,-2.2832,-2.2712,-2.2785,-2.2836,-2.2785,-2.2712,-2.2767,-2.3147,-2.3422,-2.3578,-2.3802,-2.4171,-2.4233,-2.406,-2.3992,-2.4188,-2.3877,-2.3782,-2.4142,-2.4075,-2.4149,-2.4328,-2.4367,-2.4081,-2.3841,-2.3758,-2.3693,-2.3404,-2.3199,-2.2876,-2.2054,-2.0957,-2.0155,-1.9693,-1.9457,-1.9427,-1.9413,-1.9066,-1.8669,-1.8266,-1.7903,-1.7554,-4.4598,-4.4598,-4.4598,-4.444,-4.4174,-4.3658,-4.2989,-4.2249,-4.1247,-4.0197,-3.9244,-3.8663,-3.8223,-3.8001,-3.7953,-3.7953,-3.7924,-3.7533,-3.7032,-3.638,-3.584,-3.5391,-3.5049,-3.4885,-3.495,-3.5124,-3.4509,-3.4276,-3.4516,-3.3112,-3.2387,-3.2402,-3.1742,-3.1334,-3.1234,-3.0633,-3.0323,-3.0357,-2.9786,-2.9161,-2.8721,-2.8382,-2.8044,-2.7571,-2.7266,-2.7114,-2.708,-2.686,-2.6708,-2.6623,-2.6234,-2.5778,-2.5371,-2.5371,-2.532,-2.5337,-2.5354,-2.5473,-2.5676,-2.5348,-2.5171,-2.5401,-2.5289,-2.5214,-2.5394,-2.5564,-2.5719,-2.5439,-2.5419,-2.5298,-2.504,-2.4988,-2.4522,-2.3715,-2.3626,-2.3557,-2.3543,-2.356,-2.3578,-2.3715,-2.4005,-2.4212,-2.4402,-2.4591,-2.4988,-2.4948,-2.4715,-2.4142,-2.4173,-2.3959,-2.4164,-2.4281,-2.4177,-2.4301,-2.4476,-2.4409,-2.4265,-2.4183,-2.4137,-2.41,-2.3961,-2.3905,-2.3702,-2.2318,-2.1131,-2.0338,-1.9822,-1.9512,-1.9398,-1.9357,-1.943,-1.9081,-1.8728,-1.8705,-1.8377,-4.4598,-4.4598,-4.4542,-4.4133,-4.3571,-4.3416,-4.2484,-4.1023,-4.1111,-4.0066,-3.8388,-3.826,-3.8035,-3.7531,-3.7405,-3.7342,-3.7328,-3.7298,-3.6997,-3.6583,-3.6258,-3.5788,-3.4933,-3.4734,-3.4724,-3.4721,-3.46,-3.4607,-3.458,-3.3679,-3.3381,-3.2787,-3.2005,-3.1543,-3.1307,-3.0803,-3.074,-3.085,-3.0425,-3.0125,-2.9937,-2.9397,-2.8976,-2.884,-2.8213,-2.7874,-2.779,-2.7266,-2.6793,-2.6725,-2.664,-2.6556,-2.6623,-2.6674,-2.6539,-2.6505,-2.664,-2.6573,-2.6555,-2.6162,-2.5834,-2.5665,-2.5759,-2.5769,-2.6074,-2.6519,-2.6653,-2.6216,-2.6163,-2.5921,-2.5436,-2.5316,-2.5229,-2.516,-2.4867,-2.4781,-2.4936,-2.487,-2.4715,-2.4816,-2.4988,-2.5057,-2.5074,-2.5178,-2.5316,-2.5281,-2.5227,-2.4631,-2.4223,-2.4491,-2.4801,-2.4856,-2.4855,-2.471,-2.4968,-2.5098,-2.4951,-2.4921,-2.4723,-2.4469,-2.433,-2.4257,-2.4008,-2.2645,-2.1725,-2.0841,-2.0171,-1.9997,-1.975,-1.9714,-1.9632,-1.9396,-1.9231,-1.9125,-1.8993,-4.4598,-4.4525,-4.4018,-4.3676,-4.3423,-4.2984,-4.2469,-4.1868,-4.1071,-4.0372,-3.9486,-3.8308,-3.7732,-3.7421,-3.6956,-3.6754,-3.6785,-3.6754,-3.6693,-3.6538,-3.6477,-3.5652,-3.465,-3.4383,-3.4327,-3.4217,-3.3935,-3.3818,-3.4079,-3.3167,-3.273,-3.287,-3.2133,-3.1502,-3.1036,-3.1134,-3.0995,-3.0786,-3.09,-3.0615,-3.0176,-2.9973,-2.9533,-2.901,-2.8807,-2.867,-2.8602,-2.7926,-2.7215,-2.6742,-2.6708,-2.6708,-2.6708,-2.6708,-2.6708,-2.6708,-2.6708,-2.6708,-2.6674,-2.6555,-2.6486,-2.6535,-2.648,-2.6665,-2.6716,-2.7033,-2.7082,-2.6891,-2.6907,-2.6885,-2.6695,-2.6626,-2.6659,-2.6555,-2.5764,-2.5143,-2.5109,-2.5005,-2.5005,-2.504,-2.5491,-2.5764,-2.5919,-2.623,-2.654,-2.6488,-2.6161,-2.585,-2.5498,-2.5083,-2.5395,-2.5941,-2.5988,-2.5608,-2.5488,-2.5664,-2.5728,-2.5714,-2.5382,-2.4789,-2.4523,-2.4228,-2.3768,-2.2932,-2.2785,-2.2114,-2.135,-2.0846,-2.057,-2.0239,-1.9937,-1.9738,-1.9444,-1.9268,-1.9275,-4.4598,-4.4542,-4.381,-4.3333,-4.3015,-4.2363,-4.1933,-4.161,-4.1179,-4.0556,-3.9905,-3.8903,-3.8026,-3.7446,-3.6799,-3.6507,-3.6492,-3.6492,-3.6492,-3.6492,-3.6507,-3.5826,-3.4919,-3.4443,-3.4165,-3.4036,-3.3482,-3.3423,-3.3524,-3.2875,-3.2681,-3.258,-3.2219,-3.175,-3.1446,-3.1186,-3.1134,-3.0999,-3.112,-3.0954,-3.0598,-3.0565,-3.0395,-2.9907,-2.967,-2.9364,-2.8993,-2.8535,-2.7824,-2.6979,-2.6708,-2.6708,-2.6708,-2.6708,-2.6708,-2.6708,-2.6708,-2.6708,-2.6725,-2.6742,-2.6775,-2.6825,-2.6925,-2.7008,-2.7006,-2.7137,-2.7184,-2.7182,-2.7266,-2.7299,-2.7315,-2.7315,-2.7315,-2.7142,-2.6488,-2.5971,-2.5954,-2.6023,-2.5971,-2.6074,-2.6316,-2.6609,-2.6609,-2.704,-2.723,-2.7211,-2.6868,-2.6868,-2.6901,-2.635,-2.6038,-2.653,-2.6616,-2.6124,-2.5865,-2.5986,-2.6103,-2.6141,-2.5958,-2.5354,-2.4696,-2.4282,-2.3942,-2.3602,-2.3602,-2.3355,-2.2482,-2.1719,-2.1297,-2.0921,-2.049,-2.0197,-1.9987,-1.9829,-1.9774,-4.4598,-4.4559,-4.3752,-4.3029,-4.2458,-4.1706,-4.1109,-4.0749,-4.1062,-4.0698,-3.982,-3.9563,-3.8682,-3.7584,-3.7046,-3.6599,-3.6507,-3.6492,-3.6492,-3.6492,-3.6461,-3.6107,-3.558,-3.4813,-3.4333,-3.4022,-3.3482,-3.3203,-3.3108,-3.3019,-3.281,-3.2504,-3.2275,-3.2137,-3.1773,-3.1318,-3.1157,-3.1161,-3.1241,-3.1133,-3.0991,-3.0996,-3.0987,-3.0886,-3.0463,-2.9973,-2.9534,-2.9145,-2.8604,-2.7317,-2.6962,-2.6894,-2.686,-2.681,-2.6708,-2.6708,-2.6708,-2.6708,-2.6725,-2.6792,-2.6826,-2.6775,-2.6892,-2.6992,-2.6975,-2.7055,-2.7152,-2.7202,-2.7266,-2.7299,-2.7315,-2.7315,-2.7315,-2.7297,-2.7213,-2.728,-2.7315,-2.7315,-2.7315,-2.7315,-2.7264,-2.7315,-2.7315,-2.7315,-2.7315,-2.7315,-2.7126,-2.7161,-2.7263,-2.6952,-2.6782,-2.7021,-2.6879,-2.6492,-2.6356,-2.6294,-2.6371,-2.6422,-2.6333,-2.5834,-2.4887,-2.4456,-2.4273,-2.4107,-2.3914,-2.3694,-2.329,-2.2657,-2.2106,-2.1757,-2.1427,-2.1125,-2.0859,-2.0721,-2.0637,-4.4598,-4.4514,-4.3259,-4.2645,-4.2332,-4.1243,-4.0662,-4.0524,-4.0646,-4.0572,-4.0189,-3.9722,-3.9009,-3.8246,-3.7538,-3.7015,-3.6538,-3.6492,-3.6492,-3.6492,-3.6492,-3.6445,-3.6138,-3.5516,-3.4634,-3.3934,-3.3488,-3.3085,-3.2757,-3.266,-3.2547,-3.2419,-3.2334,-3.2095,-3.1658,-3.1738,-3.1275,-3.0756,-3.1063,-3.1183,-3.0857,-3.1043,-3.1182,-3.1134,-3.0965,-3.0903,-3.0649,-3.0176,-2.9989,-2.9753,-2.8602,-2.7655,-2.7554,-2.7114,-2.6877,-2.6877,-2.681,-2.6759,-2.6725,-2.6793,-2.6725,-2.6742,-2.6893,-2.6876,-2.6792,-2.7041,-2.7105,-2.7105,-2.7202,-2.7385,-2.7489,-2.7366,-2.7454,-2.7506,-2.7435,-2.7384,-2.7332,-2.7332,-2.7315,-2.7315,-2.7315,-2.7315,-2.7315,-2.7315,-2.7315,-2.7315,-2.7315,-2.7315,-2.7315,-2.7315,-2.7315,-2.7315,-2.6928,-2.6556,-2.6545,-2.6514,-2.6597,-2.668,-2.6626,-2.6445,-2.5491,-2.464,-2.4475,-2.43,-2.4116,-2.3896,-2.3676,-2.3364,-2.274,-2.2538,-2.2336,-2.1987,-2.1694,-2.1592,-2.1335,-4.3604,-4.3499,-4.2458,-4.2029,-4.1868,-4.0972,-4.0489,-4.0489,-4.0489,-4.0489,-4.0351,-3.9782,-3.9121,-3.8462,-3.78,-3.7123,-3.663,-3.6492,-3.6492,-3.6492,-3.6492,-3.6492,-3.6461,-3.6138,-3.5368,-3.4383,-3.3673,-3.3198,-3.289,-3.2567,-3.2425,-3.2398,-3.2398,-3.2268,-3.1894,-3.2013,-3.1732,-3.1306,-3.1385,-3.1396,-3.1085,-3.0969,-3.0962,-3.0905,-3.0878,-3.0955,-3.1086,-3.0835,-3.0852,-3.0717,-2.9717,-2.8787,-2.8636,-2.8129,-2.7808,-2.7791,-2.7774,-2.7537,-2.7368,-2.7181,-2.7063,-2.6759,-2.7114,-2.708,-2.708,-2.7247,-2.7569,-2.762,-2.7753,-2.7887,-2.8265,-2.8351,-2.8334,-2.8247,-2.8006,-2.7816,-2.7747,-2.7523,-2.7315,-2.7315,-2.7315,-2.7315,-2.7315,-2.7366,-2.7332,-2.7332,-2.7366,-2.7366,-2.7315,-2.7315,-2.7315,-2.7228,-2.6851,-2.6636,-2.6647,-2.6687,-2.6781,-2.6898,-2.6957,-2.6796,-2.6303,-2.5456,-2.4695,-2.4474,-2.4224,-2.4171,-2.3951,-2.3657,-2.3501,-2.3456,-2.3226,-2.2822,-2.252,-2.2391,-2.2042,-4.252,-4.2458,-4.1771,-4.1492,-4.1409,-4.0783,-4.0489,-4.0489,-4.0489,-4.0489,-4.0413,-3.9859,-3.929,-3.8523,-3.7969,-3.7261,-3.6661,-3.6492,-3.6492,-3.6492,-3.6492,-3.6492,-3.6461,-3.6353,-3.6122,-3.5537,-3.4475,-3.3798,-3.3275,-3.2859,-3.2582,-3.2444,-3.2398,-3.2351,-3.2322,-3.222,-3.1992,-3.1756,-3.178,-3.165,-3.1373,-3.1087,-3.0903,-3.0593,-3.0559,-3.0638,-3.0878,-3.0968,-3.1134,-3.1078,-3.056,-3.0192,-2.9856,-2.9314,-2.8993,-2.8942,-2.8807,-2.8519,-2.8112,-2.7942,-2.774,-2.7097,-2.7674,-2.7844,-2.7624,-2.7879,-2.8203,-2.8374,-2.8476,-2.8715,-2.9403,-2.9282,-2.9334,-2.9248,-2.8782,-2.8438,-2.8265,-2.7763,-2.7384,-2.7315,-2.7315,-2.7315,-2.7418,-2.7487,-2.7402,-2.7368,-2.7402,-2.7385,-2.7349,-2.7349,-2.7349,-2.7092,-2.673,-2.6454,-2.6448,-2.6822,-2.693,-2.6975,-2.7116,-2.6985,-2.6869,-2.6548,-2.5744,-2.4649,-2.4331,-2.4279,-2.4226,-2.4006,-2.3988,-2.4199,-2.4025,-2.3529,-2.3309,-2.3189,-2.2813,-4.252,-4.2458,-4.1771,-4.1492,-4.1409,-4.0768,-4.0489,-4.0489,-4.0489,-4.0489,-4.0474,-4.0351,-3.9582,-3.8723,-3.8446,-3.7661,-3.6738,-3.6492,-3.6492,-3.6492,-3.6492,-3.6492,-3.6492,-3.6492,-3.6399,-3.6184,-3.5414,-3.4568,-3.3721,-3.326,-3.2906,-3.2536,-3.2398,-3.2398,-3.2394,-3.2322,-3.209,-3.186,-3.1929,-3.1815,-3.1422,-3.1255,-3.0997,-3.0549,-3.0446,-3.0338,-3.0305,-3.0777,-3.1035,-3.0683,-3.0861,-3.0931,-3.063,-2.97,-2.923,-2.9179,-2.9213,-2.9145,-2.8857,-2.8807,-2.8756,-2.8671,-2.874,-2.8792,-2.8656,-2.8778,-2.8933,-2.9038,-2.9161,-2.9351,-2.9489,-2.9678,-2.9523,-2.9351,-2.899,-2.8492,-2.8387,-2.792,-2.747,-2.747,-2.7418,-2.7332,-2.7418,-2.7489,-2.7489,-2.7575,-2.7764,-2.7574,-2.7332,-2.7384,-2.742,-2.7057,-2.6609,-2.635,-2.6143,-2.6692,-2.7035,-2.6997,-2.7059,-2.701,-2.7037,-2.7427,-2.6866,-2.5457,-2.46,-2.4378,-2.4326,-2.43,-2.4199,-2.4199,-2.4171,-2.4135,-2.3914,-2.3676,-2.3776,-4.1475,-4.1426,-4.1109,-4.1005,-4.0938,-4.0646,-4.0489,-4.0489,-4.0489,-4.0489,-4.0489,-4.0428,-3.9751,-3.88,-3.8508,-3.7769,-3.6784,-3.6492,-3.6492,-3.6492,-3.6492,-3.6492,-3.6492,-3.6492,-3.6492,-3.6399,-3.6076,-3.5491,-3.4505,-3.369,-3.3306,-3.2936,-3.2598,-3.2398,-3.2398,-3.2394,-3.224,-3.1987,-3.2086,-3.2066,-3.158,-3.1477,-3.0949,-3.05,-3.0301,-3.0111,-2.9979,-3.0135,-3.0368,-3.0267,-3.058,-3.0781,-3.07,-3.0499,-3.0108,-3.0074,-3.0076,-2.9907,-2.967,-2.9568,-2.9416,-2.9077,-2.9331,-2.9348,-2.923,-2.9282,-2.9625,-2.9765,-3.0249,-3.0515,-3.064,-3.0501,-3.0571,-3.0451,-2.9902,-2.9506,-2.9231,-2.8472,-2.804,-2.7764,-2.7556,-2.7435,-2.7333,-2.742,-2.7523,-2.7747,-2.8023,-2.7867,-2.7505,-2.7575,-2.773,-2.7178,-2.6713,-2.6143,-2.5988,-2.6348,-2.6864,-2.6941,-2.6979,-2.6925,-2.6734,-2.6879,-2.6649,-2.5797,-2.5194,-2.4787,-2.4609,-2.4649,-2.4438,-2.4208,-2.4162,-2.4152,-2.419,-2.419,-2.419,-4.0489,-4.0489,-4.0489,-4.0489,-4.0489,-4.0489,-4.0489,-4.0489,-4.0489,-4.0489,-4.0489,-4.0443,-3.9828,-3.8893,-3.8292,-3.7615,-3.6538,-3.6492,-3.6492,-3.6492,-3.6492,-3.6492,-3.6492,-3.6492,-3.6492,-3.6492,-3.643,-3.6153,-3.5321,-3.4475,-3.3814,-3.329,-3.2798,-3.2475,-3.2428,-3.2398,-3.2398,-3.2398,-3.241,-3.2284,-3.1997,-3.1498,-3.091,-3.0314,-3.0188,-2.9981,-2.9738,-2.9852,-2.981,-2.9837,-3.0075,-3.0398,-3.0539,-3.0841,-3.1095,-3.1188,-3.119,-3.0835,-3.0531,-3.0328,-3.0125,-2.9753,-3.0057,-2.9922,-2.982,-3.0076,-3.0366,-3.0545,-3.091,-3.1346,-3.1319,-3.1509,-3.1511,-3.1376,-3.0932,-3.0504,-3.0108,-2.9438,-2.8559,-2.8196,-2.7799,-2.754,-2.7437,-2.7661,-2.7816,-2.7661,-2.7953,-2.8489,-2.8178,-2.8196,-2.8127,-2.7471,-2.6833,-2.6059,-2.5833,-2.5919,-2.64,-2.6686,-2.6767,-2.6822,-2.6395,-2.6049,-2.5925,-2.6104,-2.5868,-2.5488,-2.5259,-2.4904,-2.4599,-2.4341,-2.4215,-2.4161,-2.418,-2.418,-2.418,-4.0489,-4.0489,-4.0489,-4.0489,-4.0489,-4.0489,-4.0489,-4.0489,-4.0489,-4.0489,-4.0489,-4.0459,-4.0059,-3.9213,-3.8077,-3.7246,-3.6722,-3.6492,-3.6492,-3.6492,-3.6492,-3.6492,-3.6492,-3.6492,-3.6492,-3.6492,-3.6492,-3.6107,-3.566,-3.526,-3.4552,-3.3721,-3.3429,-3.3029,-3.2567,-3.2552,-3.2398,-3.2413,-3.2398,-3.2319,-3.2061,-3.1649,-3.1264,-3.0882,-3.0462,-3.0003,-2.9734,-2.9767,-2.9723,-2.9416,-2.972,-3.0092,-3.0414,-3.0518,-3.0818,-3.1055,-3.1173,-3.114,-3.1004,-3.0937,-3.0903,-3.0649,-3.0903,-3.097,-3.0801,-3.0768,-3.0976,-3.1159,-3.1298,-3.137,-3.1481,-3.1517,-3.154,-3.137,-3.1046,-3.0777,-3.0521,-3.0382,-2.9523,-2.8715,-2.8336,-2.7835,-2.754,-2.7868,-2.8126,-2.7936,-2.7901,-2.842,-2.8627,-2.8403,-2.792,-2.7126,-2.7144,-2.6506,-2.587,-2.5954,-2.6092,-2.6454,-2.6424,-2.6527,-2.617,-2.5879,-2.6486,-2.6552,-2.6241,-2.59,-2.5525,-2.5116,-2.4725,-2.4537,-2.4448,-2.4305,-2.417,-2.417,-2.4161,-4.0489,-4.0489,-4.0489,-4.0489,-4.0489,-4.0489,-4.0489,-4.0489,-4.0489,-4.0489,-4.0489,-4.0489,-4.012,-3.9354,-3.8108,-3.7369,-3.7015,-3.6661,-3.6492,-3.6492,-3.6492,-3.6492,-3.6492,-3.6492,-3.6492,-3.6492,-3.6476,-3.6415,-3.5999,-3.563,-3.506,-3.4629,-3.4152,-3.3675,-3.3044,-3.2967,-3.2721,-3.2536,-3.241,-3.2353,-3.223,-3.2052,-3.172,-3.1291,-3.0974,-3.051,-3.0154,-3.0052,-3.0049,-2.9848,-2.9998,-3.003,-3.0247,-3.0407,-3.0621,-3.076,-3.1055,-3.1173,-3.1173,-3.119,-3.119,-3.119,-3.119,-3.114,-3.119,-3.119,-3.121,-3.1235,-3.1252,-3.1291,-3.1368,-3.1387,-3.1445,-3.1346,-3.1143,-3.1129,-3.1049,-3.0946,-3.0483,-2.966,-2.887,-2.8422,-2.7904,-2.7816,-2.792,-2.7712,-2.7729,-2.8092,-2.8092,-2.7747,-2.7161,-2.6402,-2.6747,-2.7057,-2.6421,-2.6094,-2.6109,-2.623,-2.5747,-2.5828,-2.5833,-2.5929,-2.6444,-2.6318,-2.5694,-2.5493,-2.5546,-2.5563,-2.5375,-2.5052,-2.4689,-2.4519,-2.4358,-2.4113,-2.4094,-4.0489,-4.0489,-4.0489,-4.0489,-4.0489,-4.0489,-4.0489,-4.0489,-4.0489,-4.0489,-4.0489,-4.0474,-4.012,-3.94,-3.8369,-3.7692,-3.743,-3.6799,-3.6553,-3.6492,-3.6492,-3.6492,-3.6492,-3.6492,-3.6492,-3.6492,-3.6492,-3.6445,-3.6307,-3.6014,-3.5691,-3.5476,-3.4951,-3.4352,-3.3844,-3.3614,-3.3398,-3.2767,-3.2505,-3.241,-3.2391,-3.2379,-3.2102,-3.1747,-3.147,-3.1166,-3.0751,-3.0438,-3.0351,-3.0315,-3.0242,-3.024,-3.0458,-3.0635,-3.0669,-3.0787,-3.1041,-3.1153,-3.1116,-3.1092,-3.1131,-3.1112,-3.1171,-3.119,-3.119,-3.119,-3.119,-3.121,-3.121,-3.1232,-3.1254,-3.1293,-3.1351,-3.1426,-3.1449,-3.15,-3.1483,-3.1225,-3.0921,-3.0224,-2.9505,-2.9076,-2.856,-2.7972,-2.7696,-2.7489,-2.7592,-2.7851,-2.7781,-2.7556,-2.7384,-2.6918,-2.7227,-2.7589,-2.6937,-2.6488,-2.6402,-2.623,-2.5747,-2.5708,-2.6083,-2.6057,-2.6246,-2.5846,-2.5442,-2.5589,-2.5968,-2.6027,-2.6021,-2.5262,-2.4668,-2.4707,-2.4569,-2.4271,-2.4054,-4.0489,-4.0489,-4.0489,-4.0489,-4.0489,-4.0489,-4.0489,-4.0489,-4.0489,-4.0489,-4.0489,-4.0459,-4.012,-3.9459,-3.8846,-3.8123,-3.7492,-3.6799,-3.6584,-3.6522,-3.6492,-3.6492,-3.6492,-3.6492,-3.6492,-3.6492,-3.6492,-3.6492,-3.6476,-3.6384,-3.5999,-3.5583,-3.5506,-3.4999,-3.4552,-3.4245,-3.3981,-3.3321,-3.2859,-3.2521,-3.2475,-3.2444,-3.2336,-3.2167,-3.1736,-3.1378,-3.1289,-3.0905,-3.0648,-3.0674,-3.0562,-3.0627,-3.086,-3.0926,-3.0885,-3.0901,-3.121,-3.125,-3.1074,-3.0992,-3.0935,-3.0838,-3.0878,-3.1114,-3.119,-3.119,-3.119,-3.119,-3.119,-3.119,-3.1232,-3.1271,-3.1293,-3.1351,-3.1406,-3.1443,-3.1404,-3.1308,-3.0991,-3.054,-3.0101,-2.9624,-2.9265,-2.8698,-2.8041,-2.7816,-2.7385,-2.7609,-2.8073,-2.8004,-2.8194,-2.8106,-2.8226,-2.8106,-2.7418,-2.709,-2.6885,-2.6851,-2.6609,-2.6695,-2.6983,-2.6793,-2.6444,-2.6409,-2.6266,-2.632,-2.6348,-2.6517,-2.6279,-2.5213,-2.4735,-2.5041,-2.4737,-2.4265,-2.4088,-4.0489,-4.0489,-4.0489,-4.0489,-4.0489,-4.0489,-4.0489,-4.0489,-4.0489,-4.0489,-4.0489,-4.0474,-4.0351,-3.9951,-3.9431,-3.8754,-3.8092,-3.7415,-3.6953,-3.6584,-3.6492,-3.6492,-3.6492,-3.6522,-3.6492,-3.6492,-3.6492,-3.6492,-3.6492,-3.6492,-3.6399,-3.6153,-3.6045,-3.566,-3.5245,-3.4767,-3.4382,-3.4043,-3.3429,-3.3029,-3.2936,-3.2567,-3.2398,-3.2351,-3.2244,-3.2013,-3.1967,-3.1797,-3.1674,-3.152,-3.1213,-3.1217,-3.127,-3.1209,-3.1112,-3.1078,-3.1424,-3.1482,-3.1237,-3.104,-3.0675,-3.0621,-3.0683,-3.0949,-3.132,-3.1258,-3.1207,-3.119,-3.1275,-3.1393,-3.1244,-3.123,-3.1252,-3.1274,-3.1312,-3.1329,-3.1327,-3.1249,-3.1181,-3.084,-3.0486,-3.0097,-2.9759,-2.9419,-2.875,-2.8145,-2.7713,-2.7402,-2.7815,-2.8073,-2.8107,-2.8125,-2.8141,-2.8072,-2.7418,-2.7315,-2.7315,-2.7315,-2.7315,-2.7315,-2.7315,-2.728,-2.6985,-2.7004,-2.6869,-2.6695,-2.6699,-2.7002,-2.6616,-2.5693,-2.5511,-2.5713,-2.5159,-2.4313,-2.4082,-4.0489,-4.0489,-4.0489,-4.0489,-4.0489,-4.0489,-4.0489,-4.0489,-4.0489,-4.0489,-4.0489,-4.0489,-4.0489,-4.0305,-3.9767,-3.9275,-3.8708,-3.8138,-3.76,-3.7246,-3.7015,-3.683,-3.6738,-3.6615,-3.6492,-3.6492,-3.6492,-3.6492,-3.6492,-3.6492,-3.6445,-3.6445,-3.6461,-3.6122,-3.5784,-3.5183,-3.4813,-3.4643,-3.4166,-3.3737,-3.3644,-3.309,-3.2736,-3.2675,-3.2505,-3.2336,-3.2305,-3.2228,-3.2259,-3.2136,-3.1951,-3.172,-3.1654,-3.1576,-3.1383,-3.1414,-3.1568,-3.1823,-3.1531,-3.1342,-3.0995,-3.1283,-3.1272,-3.1529,-3.1692,-3.185,-3.207,-3.2002,-3.1935,-3.1765,-3.163,-3.1616,-3.1433,-3.1421,-3.1249,-3.1269,-3.1269,-3.123,-3.1249,-3.1118,-3.0834,-3.0619,-3.0421,-3.0068,-2.9214,-2.8594,-2.811,-2.7628,-2.7355,-2.7542,-2.7556,-2.7556,-2.7522,-2.7453,-2.7315,-2.7315,-2.7315,-2.7315,-2.7315,-2.7315,-2.7315,-2.7315,-2.7299,-2.7195,-2.7026,-2.6891,-2.6919,-2.7076,-2.6779,-2.6294,-2.6146,-2.5976,-2.5194,-2.4394,-2.4104,-4.0489,-4.0489,-4.0489,-4.0489,-4.0489,-4.0489,-4.0489,-4.0489,-4.0489,-4.0489,-4.0489,-4.0489,-4.0489,-4.0366,-3.9874,-3.9554,-3.9244,-3.8769,-3.8354,-3.8108,-3.7677,-3.7523,-3.7215,-3.6938,-3.663,-3.6507,-3.6492,-3.6492,-3.6492,-3.6492,-3.6492,-3.6492,-3.6476,-3.6445,-3.6384,-3.5799,-3.5506,-3.5368,-3.4813,-3.4551,-3.4291,-3.3752,-3.3444,-3.329,-3.2844,-3.2613,-3.2613,-3.2444,-3.2413,-3.2336,-3.2321,-3.2198,-3.2206,-3.2206,-3.1979,-3.1573,-3.1878,-3.1795,-3.127,-3.1638,-3.1925,-3.1987,-3.1706,-3.2155,-3.292,-3.3157,-3.2963,-3.261,-3.2959,-3.2739,-3.2544,-3.2259,-3.1921,-3.1684,-3.1562,-3.1326,-3.1362,-3.121,-3.123,-3.123,-3.1291,-3.123,-3.1066,-3.0697,-2.9744,-2.9042,-2.856,-2.8026,-2.7495,-2.7188,-2.7256,-2.725,-2.725,-2.7299,-2.7299,-2.7299,-2.7315,-2.7315,-2.7315,-2.7315,-2.7315,-2.7315,-2.7299,-2.7299,-2.7166,-2.6982,-2.6986,-2.7038,-2.6712,-2.6399,-2.6191,-2.5854,-2.5099,-2.4599,-2.4399,-4.0489,-4.0489,-4.0489,-4.0489,-4.0489,-4.0489,-4.0489,-4.0489,-4.0489,-4.0489,-4.0489,-4.0489,-4.0489,-4.0382,-4.0243,-3.9905,-3.9474,-3.9351,-3.9062,-3.8539,-3.8277,-3.7877,-3.7569,-3.7338,-3.6938,-3.6599,-3.6492,-3.6538,-3.6492,-3.6492,-3.6492,-3.6492,-3.6492,-3.6492,-3.6461,-3.6215,-3.6153,-3.603,-3.5568,-3.5152,-3.506,-3.4506,-3.4106,-3.4075,-3.3444,-3.3075,-3.2982,-3.269,-3.2475,-3.2413,-3.2398,-3.2398,-3.2398,-3.2398,-3.229,-3.2086,-3.2299,-3.221,-3.2122,-3.2362,-3.2299,-3.1999,-3.1862,-3.2232,-3.2724,-3.2857,-3.2878,-3.3049,-3.3379,-3.3105,-3.2632,-3.2892,-3.2756,-3.2544,-3.2324,-3.187,-3.165,-3.1362,-3.121,-3.121,-3.1232,-3.1274,-3.1196,-3.1098,-3.0337,-2.9827,-2.9384,-2.8648,-2.8032,-2.7418,-2.7163,-2.7155,-2.7151,-2.7217,-2.7266,-2.7333,-2.7333,-2.7315,-2.7315,-2.7315,-2.7315,-2.7299,-2.7283,-2.7267,-2.7186,-2.7106,-2.7007,-2.6908,-2.674,-2.6501,-2.6319,-2.6098,-2.562,-2.5177,-2.4933,-4.0489,-4.0489,-4.0489,-4.0489,-4.0489,-4.0489,-4.0489,-4.0489,-4.0489,-4.0489,-4.0489,-4.0489,-4.0489,-4.0489,-4.0443,-4.0351,-3.9828,-3.9813,-3.9751,-3.9152,-3.8923,-3.8662,-3.8323,-3.7892,-3.7492,-3.7015,-3.6815,-3.6799,-3.6507,-3.6492,-3.6492,-3.6492,-3.6492,-3.6492,-3.6476,-3.6445,-3.643,-3.6307,-3.5999,-3.586,-3.566,-3.5275,-3.4844,-3.4659,-3.4183,-3.366,-3.3367,-3.3013,-3.2644,-3.2505,-3.2398,-3.2398,-3.2398,-3.2398,-3.2398,-3.2398,-3.2398,-3.2394,-3.247,-3.2575,-3.2327,-3.1826,-3.1693,-3.2229,-3.2882,-3.3233,-3.3201,-3.3347,-3.3556,-3.3261,-3.2964,-3.3317,-3.3292,-3.3067,-3.2488,-3.2001,-3.1435,-3.1093,-3.1009,-3.1029,-3.1171,-3.1213,-3.1271,-3.1225,-3.0942,-3.0604,-3.0265,-2.9465,-2.8681,-2.8083,-2.7606,-2.7623,-2.7584,-2.7719,-2.7631,-2.7421,-2.7402,-2.7332,-2.7386,-2.7474,-2.7234,-2.7185,-2.7218,-2.7251,-2.7154,-2.7056,-2.6908,-2.6791,-2.6691,-2.6606,-2.6484,-2.6287,-2.6069,-2.5802,-2.5498,-4.0489,-4.0489,-4.0489,-4.0489,-4.0489,-4.0489,-4.0489,-4.0489,-4.0489,-4.0489,-4.0489,-4.0489,-4.0489,-4.0489,-4.0489,-4.0459,-4.0382,-4.0382,-4.032,-4.0182,-3.9705,-3.9474,-3.9136,-3.8754,-3.8169,-3.7738,-3.7477,-3.7246,-3.6645,-3.6492,-3.6492,-3.6492,-3.6492,-3.6492,-3.6492,-3.6492,-3.6492,-3.643,-3.6384,-3.6276,-3.6122,-3.586,-3.5583,-3.5337,-3.4891,-3.4291,-3.3875,-3.3444,-3.3013,-3.2705,-3.2428,-3.2413,-3.2398,-3.2398,-3.2398,-3.2398,-3.2398,-3.2398,-3.2425,-3.252,-3.2477,-3.223,-3.2618,-3.3312,-3.3574,-3.3581,-3.3476,-3.3681,-3.394,-3.3526,-3.325,-3.3357,-3.3456,-3.2937,-3.2314,-3.1704,-3.1049,-3.0782,-3.0726,-3.0824,-3.1069,-3.1171,-3.123,-3.1218,-3.1186,-3.1051,-3.0696,-3.0376,-2.9628,-2.8965,-2.8608,-2.8595,-2.8528,-2.839,-2.8218,-2.7959,-2.7941,-2.8028,-2.7788,-2.7772,-2.7447,-2.7344,-2.7497,-2.7515,-2.7225,-2.7024,-2.6842,-2.6758,-2.6708,-2.664,-2.6588,-2.6485,-2.6273,-2.6308,-2.606,-4.0489,-4.0489,-4.0489,-4.0489,-4.0489,-4.0489,-4.0489,-4.0489,-4.0489,-4.0489,-4.0489,-4.0489,-4.0489,-4.0489,-4.0489,-4.0489,-4.0489,-4.0489,-4.0489,-4.0366,-4.0213,-3.9874,-3.9567,-3.9259,-3.8767,-3.8431,-3.8123,-3.7877,-3.7246,-3.6846,-3.6538,-3.6492,-3.6507,-3.6507,-3.6492,-3.6492,-3.6492,-3.6492,-3.6492,-3.6492,-3.6492,-3.6245,-3.6107,-3.5938,-3.5568,-3.4999,-3.4706,-3.3906,-3.3444,-3.3183,-3.2659,-3.2444,-3.2398,-3.2398,-3.2398,-3.2398,-3.2398,-3.2398,-3.2398,-3.2398,-3.2398,-3.2398,-3.2602,-3.2868,-3.3235,-3.3433,-3.3433,-3.3614,-3.3869,-3.3537,-3.3299,-3.3345,-3.3494,-3.3217,-3.2649,-3.2106,-3.144,-3.0861,-3.0827,-3.1008,-3.1243,-3.1092,-3.1151,-3.121,-3.1179,-3.1213,-3.1108,-3.084,-3.0537,-2.9875,-2.9521,-2.9512,-2.9243,-2.904,-2.8972,-2.8767,-2.875,-2.8716,-2.8425,-2.8288,-2.8357,-2.8254,-2.8049,-2.7793,-2.752,-2.713,-2.6741,-2.6708,-2.6708,-2.6708,-2.6657,-2.6605,-2.6536,-2.6561,-2.6513,-4.0489,-4.0489,-4.0489,-4.0489,-4.0489,-4.0489,-4.0489,-4.0489,-4.0489,-4.0489,-4.0489,-4.0489,-4.0489,-4.0489,-4.0489,-4.0489,-4.0489,-4.0489,-4.0489,-4.0489,-4.0489,-4.0243,-3.9967,-3.9813,-3.9508,-3.9139,-3.88,-3.8569,-3.7892,-3.7292,-3.6907,-3.6907,-3.6707,-3.6538,-3.6492,-3.6492,-3.6492,-3.6492,-3.6492,-3.6492,-3.6492,-3.6492,-3.6492,-3.6415,-3.5999,-3.5829,-3.5491,-3.446,-3.4168,-3.3891,-3.3321,-3.3059,-3.2859,-3.2598,-3.2413,-3.2398,-3.2398,-3.2398,-3.2398,-3.2398,-3.2398,-3.2398,-3.2398,-3.2559,-3.2722,-3.2911,-3.2911,-3.2975,-3.3329,-3.3505,-3.3391,-3.3287,-3.3479,-3.3627,-3.3185,-3.2718,-3.199,-3.1166,-3.1147,-3.1319,-3.1279,-3.1106,-3.1075,-3.1134,-3.119,-3.119,-3.119,-3.1108,-3.0956,-3.0685,-3.0398,-3.0336,-2.9934,-2.9598,-2.9548,-2.9465,-2.9279,-2.9125,-2.8902,-2.8868,-2.9089,-2.8986,-2.8628,-2.8236,-2.781,-2.7453,-2.7131,-2.6793,-2.6708,-2.6708,-2.6708,-2.6674,-2.664,-2.6672,-2.6613,-4.0397,-4.0397,-4.0459,-4.0489,-4.0489,-4.0489,-4.0489,-4.0489,-4.0489,-4.0489,-4.0489,-4.0489,-4.0489,-4.0489,-4.0489,-4.0489,-4.0489,-4.0489,-4.0489,-4.0489,-4.0489,-4.0382,-4.0397,-4.0428,-4.0013,-3.9705,-3.9474,-3.9262,-3.8585,-3.7969,-3.7569,-3.7538,-3.7107,-3.6938,-3.6999,-3.6784,-3.6769,-3.6753,-3.6599,-3.6492,-3.6492,-3.6492,-3.6492,-3.6492,-3.6368,-3.6245,-3.5783,-3.5429,-3.5229,-3.4797,-3.4382,-3.4014,-3.3537,-3.3118,-3.2841,-3.2752,-3.2903,-3.2798,-3.2767,-3.2705,-3.249,-3.2444,-3.2425,-3.2437,-3.252,-3.2574,-3.2602,-3.2614,-3.2949,-3.3002,-3.2868,-3.2922,-3.3066,-3.3093,-3.2835,-3.2568,-3.22,-3.1561,-3.1342,-3.1356,-3.0997,-3.0862,-3.0898,-3.0918,-3.0918,-3.1035,-3.119,-3.119,-3.1061,-3.0993,-3.0965,-3.0866,-3.0605,-3.0219,-3.0206,-3.0073,-2.9736,-2.9514,-2.9461,-2.9543,-2.9849,-2.9591,-2.9128,-2.8943,-2.8758,-2.8062,-2.7638,-2.7283,-2.6945,-2.6708,-2.6708,-2.6708,-2.6725,-2.6742,-2.6723,-3.9721,-3.9782,-4.0274,-4.0489,-4.0489,-4.0489,-4.0489,-4.0489,-4.0489,-4.0489,-4.0489,-4.0489,-4.0489,-4.0489,-4.0489,-4.0489,-4.0489,-4.0489,-4.0489,-4.0489,-4.0489,-4.0489,-4.0489,-4.0489,-4.0351,-4.0336,-4.0151,-3.9859,-3.9262,-3.8662,-3.8262,-3.8262,-3.7923,-3.7815,-3.7784,-3.7523,-3.7261,-3.723,-3.6923,-3.6738,-3.6707,-3.6569,-3.6492,-3.6492,-3.6445,-3.643,-3.6061,-3.5752,-3.5552,-3.5244,-3.4736,-3.4443,-3.4243,-3.4058,-3.3996,-3.3981,-3.3827,-3.3614,-3.3383,-3.3183,-3.2982,-3.2598,-3.2475,-3.2428,-3.2425,-3.2398,-3.2425,-3.2437,-3.2465,-3.2465,-3.2492,-3.2559,-3.2641,-3.2559,-3.2504,-3.242,-3.2334,-3.1967,-3.1582,-3.123,-3.0817,-3.0669,-3.0713,-3.0658,-3.0662,-3.0801,-3.1092,-3.1131,-3.0898,-3.0808,-3.0925,-3.0917,-3.1069,-3.0891,-3.0809,-3.0675,-3.0359,-3.0374,-3.0438,-3.0537,-3.0605,-3.0247,-2.9854,-2.9991,-2.9822,-2.9008,-2.8263,-2.779,-2.7435,-2.7063,-2.686,-2.6894,-2.6708,-2.6657,-2.6708,-3.949,-3.9567,-4.0197,-4.0489,-4.0489,-4.0489,-4.0489,-4.0489,-4.0489,-4.0489,-4.0489,-4.0489,-4.0489,-4.0489,-4.0489,-4.0489,-4.0489,-4.0489,-4.0489,-4.0489,-4.0489,-4.0489,-4.0489,-4.0489,-4.0474,-4.0489,-4.0474,-4.0197,-3.9847,-3.9339,-3.8954,-3.8908,-3.8785,-3.8569,-3.8492,-3.8123,-3.7954,-3.7938,-3.7492,-3.7338,-3.7184,-3.6907,-3.6553,-3.6492,-3.6492,-3.6492,-3.6415,-3.6107,-3.6014,-3.5783,-3.5337,-3.5337,-3.5136,-3.4751,-3.4489,-3.4428,-3.4351,-3.4305,-3.3998,-3.3798,-3.3598,-3.3213,-3.3013,-3.3152,-3.2829,-3.2782,-3.2428,-3.2453,-3.2453,-3.2425,-3.2425,-3.2492,-3.2492,-3.2465,-3.2437,-3.2403,-3.2199,-3.1896,-3.1752,-3.1686,-3.1142,-3.0525,-3.0473,-3.0297,-3.0264,-3.0204,-3.0514,-3.0716,-3.0539,-3.0497,-3.0675,-3.0855,-3.0955,-3.1114,-3.1058,-3.1024,-3.0976,-3.1108,-3.119,-3.1075,-3.0871,-3.0753,-3.0632,-3.0581,-3.0328,-2.9685,-2.9007,-2.8534,-2.7942,-2.7503,-2.73,-2.7147,-2.6893,-2.6606,-2.6623,-3.9305,-3.9567,-4.0105,-4.0428,-4.0489,-4.0489,-4.0489,-4.0489,-4.0489,-4.0489,-4.0489,-4.0489,-4.0489,-4.0489,-4.0489,-4.0489,-4.0489,-4.0489,-4.0489,-4.0489,-4.0489,-4.0489,-4.0489,-4.0489,-4.0489,-4.0489,-4.0489,-4.0489,-4.0351,-3.989,-3.9582,-3.949,-3.9167,-3.88,-3.8754,-3.8677,-3.8646,-3.8569,-3.8385,-3.84,-3.7954,-3.7338,-3.6892,-3.6661,-3.6522,-3.6507,-3.6492,-3.6492,-3.6461,-3.6276,-3.5922,-3.5953,-3.5876,-3.5506,-3.5183,-3.5044,-3.5075,-3.4814,-3.4522,-3.4582,-3.4306,-3.4075,-3.3998,-3.3798,-3.349,-3.3121,-3.2752,-3.2536,-3.2536,-3.2413,-3.2413,-3.2398,-3.2398,-3.2398,-3.2398,-3.2398,-3.2148,-3.1886,-3.1933,-3.1966,-3.1363,-3.0625,-3.0286,-3.0097,-2.9893,-2.9819,-2.981,-2.9946,-3.0038,-3.0075,-3.0177,-3.041,-3.0617,-3.0801,-3.1035,-3.119,-3.119,-3.119,-3.119,-3.119,-3.1157,-3.0987,-3.0937,-3.0987,-3.0632,-3.0142,-2.9786,-2.9364,-2.8737,-2.7993,-2.7638,-2.7333,-2.6774,-2.6554,-2.652,-3.8523,-3.949,-3.9628,-3.9967,-4.0443,-4.0489,-4.0489,-4.0489,-4.0489,-4.0489,-4.0489,-4.0489,-4.0489,-4.0489,-4.0489,-4.0489,-4.0489,-4.0489,-4.0489,-4.0489,-4.0489,-4.0489,-4.0489,-4.0489,-4.0489,-4.0489,-4.0489,-4.0489,-4.0489,-4.0351,-4.0274,-4.0182,-4.0213,-3.9997,-3.9936,-3.9721,-3.929,-3.9198,-3.889,-3.8754,-3.8477,-3.7923,-3.7446,-3.7123,-3.6784,-3.6599,-3.6492,-3.6492,-3.6492,-3.643,-3.6353,-3.6353,-3.6276,-3.6138,-3.5922,-3.5753,-3.5784,-3.5753,-3.5584,-3.5398,-3.5122,-3.4922,-3.4814,-3.466,-3.4291,-3.386,-3.346,-3.3029,-3.289,-3.2521,-3.2444,-3.2413,-3.2398,-3.2398,-3.2398,-3.2398,-3.2287,-3.2163,-3.2118,-3.19,-3.1446,-3.0829,-3.0338,-3.0093,-2.9815,-2.9726,-2.9659,-2.9723,-2.9483,-2.9572,-2.9694,-2.9897,-3.014,-3.0418,-3.0621,-3.1095,-3.119,-3.119,-3.119,-3.119,-3.119,-3.119,-3.1157,-3.114,-3.1038,-3.07,-3.0362,-3.0074,-2.9277,-2.8516,-2.7992,-2.7535,-2.6925,-2.6468,-2.6434]},{"header":{"parameterUnit":"m.s-1","parameterCategory":1,"la1":31.0,"la2":29.5877,"lo1":-88.7671,"lo2":-86.6584,"dy":0.0162,"dx":0.0185,"nx":115,"ny":88,"refTime":"2026-04-11T00:00:00:Z","depth":0,"parameterNumber":3,"parameterNumberName":"V-component_of_WINDS"},"data":[0.0,0.0,0.0,0.0,0.0,0.0,0.0,0.0,0.0,0.0,0.0,0.0,0.0,0.0,0.0,0.0,0.0,0.0,0.0,0.0,0.0,0.0,0.0,0.0,0.0,0.0,0.0,0.0,0.0,0.0,0.0,0.0,0.0,0.0,0.0,0.0,0.0,0.0,0.0,0.0,0.0,0.0,0.0,0.0,0.0,0.0,0.0,0.0,0.0,0.0,0.0,0.0,0.0,0.0,0.0,0.0,0.0,0.0,0.0,0.0,0.0,0.0,0.0,0.0,0.0,0.0,0.0,0.0,0.0,0.0,0.0,0.0,0.0,0.0,0.0,0.0,0.0,0.0,0.0,0.0,0.0,0.0,0.0,0.0,0.0,0.0,0.0,0.0,0.0,0.0,0.0,0.0,0.0,0.0,0.0,0.0,0.0,0.0,0.0,0.0,0.0,0.0,0.0,0.0,0.0,0.0,0.0,0.0,0.0,0.0,0.0,0.0,0.0,0.0,0.0,0.0,0.0,0.0,0.0,0.0,0.0,0.0,0.0,0.0,0.0,0.0,0.0,0.0,0.0,0.0,0.0,0.0,0.0,0.0,0.0,0.0,0.0,0.0,0.0,0.0,0.0,0.0,0.0,0.0,0.0,0.0,0.0,0.0,0.0,0.0,0.0,0.0,0.0,0.0,0.0,0.0,0.0,0.0,0.0,0.0,0.0,0.0,0.0,0.0,0.0,0.0,0.0,0.0,0.0,0.0,0.0,0.0,0.0,0.0,0.0,0.0,0.0,0.0,0.0,0.0,0.0,0.0,0.0,0.0,0.0,0.0,0.0,0.0,0.0,0.0,0.0,0.0,0.0,0.0,0.0,0.0,0.0,0.0,0.0,0.0,0.0,0.0,0.0,0.0,0.0,0.0,0.0,0.0,0.0,0.0,0.0,0.0,0.0,0.0,0.0,0.0,0.0,0.0,0.0,0.0,0.0,0.0,0.0,0.0,0.0,0.0,0.0,0.0,0.0,0.0,0.0,0.0,0.0,0.0,0.0,0.0,0.0,0.0,0.0,0.0,0.0,0.0,0.0,0.0,0.0,0.0,0.0,0.0,0.0,0.0,0.0,0.0,0.0,0.0,0.0,0.0,0.0,0.0,0.0,0.0,0.0,0.0,0.0,0.0,0.0,0.0,0.0,0.0,0.0,0.0,0.0,0.0,0.0,0.0,0.0,0.0,0.0,0.0,0.0,0.0,0.0,0.0,0.0,0.0,0.0,0.0,0.0,0.0,0.0,0.0,0.0,0.0,0.0,0.0,0.0,0.0,0.0,0.0,0.0,0.0,0.0,0.0,0.0,0.0,0.0,0.0,0.0,0.0,0.0,0.0,0.0,0.0,0.0,0.0,0.0,0.0,0.0,0.0,0.0,0.0,0.0,0.0,0.0,0.0,0.0,0.0,0.0,0.0,0.0,0.0,0.0,0.0,0.0,0.0,0.0,0.0,0.0,0.0,0.0,0.0,0.0,0.0,0.0,0.0,0.0,0.0,0.0,0.0,0.0,0.0,0.0,0.0,0.0,0.0,0.0,0.0,0.0,0.0,0.0,0.0,0.0,0.0,0.0,0.0,0.0,0.0,0.0,0.0,0.0,0.0,0.0,0.0,0.0,0.0,0.0,0.0,0.0,0.0,0.0,0.0,0.0,0.0,0.0,0.0,0.0,0.0,0.0,0.0,0.0,0.0,0.0,0.0,0.0,0.0,0.0,0.0,0.0,0.0,0.0,0.0,0.0,0.0,0.0,0.0,0.0,0.0,0.0,0.0,0.0,0.0,0.0,0.0,0.0,0.0,0.0,0.0,0.0,0.0,0.0,0.0,0.0,0.0,0.0,0.0,0.0,0.0,0.0,0.0,0.0,0.0,0.0,0.0,0.0,0.0,0.0,0.0,0.0,0.0,0.0,0.0,0.0,0.0,0.0,0.0,0.0,0.0,0.0,0.0,0.0,0.0,0.0,0.0,0.0,0.0,0.0,0.0,0.0,0.0,0.0,0.0,0.0,0.0,0.0,0.0,0.0,0.0,0.0,0.0,0.0,0.0,0.0,0.0,0.0,0.0,0.0,0.0,0.0,0.0,0.0,0.0,0.0,0.0,0.0,0.0,0.0,0.0,0.0,0.0,0.0,0.0,0.0,0.0,0.0,0.0,0.0,0.0,0.0,0.0,0.0,0.0,0.0,0.0,0.0,0.0,0.0,0.0,0.0,0.0,0.0,0.0,0.0,0.0,0.0,0.0,0.0,0.0,0.0,0.0,0.0,0.0,0.0,0.0,0.0,0.0,0.0,0.0,0.0,0.0,0.0,0.0,0.0,0.0,0.0,0.0,0.0,0.0,0.0,0.0,0.0,0.0,0.0,0.0,0.0,0.0,0.0,0.0,0.0,0.0,0.0,0.0,0.0,0.0,0.0,0.0,0.0,0.0,0.0,0.0,0.0,0.0,0.0,0.0,0.0,0.0,0.0,0.0,0.0,0.0,0.0,0.0,0.0,0.0,0.0,0.0,0.0,0.0,0.0,0.0,0.0,0.0,0.0,0.0,0.0,0.0,0.0,0.0,0.0,0.0,0.0,0.0,0.0,0.0,0.0,0.0,0.0,0.0,0.0,0.0,0.0,0.0,0.0,0.0,0.0,0.0,0.0,0.0,0.0,0.0,0.0,0.0,0.0,0.0,0.0,0.0,0.0,0.0,0.0,0.0,0.0,0.0,0.0,0.0,0.0,0.0,0.0,0.0,0.0,0.0,0.0,0.0,0.0,0.0,0.0,0.0,0.0,0.0,0.0,0.0,0.0,0.0,0.0,0.0,0.0,0.0,0.0,0.0,0.0,0.0,0.0,0.0,0.0,0.0,0.0,0.0,0.0,0.0,0.0,0.0,0.0,0.0,0.0,0.0,0.0,0.0,0.0,0.0,0.0,0.0,0.0,0.0,0.0,0.0,0.0,0.0,0.0,0.0,0.0,0.0,0.0,0.0,0.0,0.0,0.0,0.0,0.0,0.0,0.0,0.0,0.0,0.0,0.0,0.0,0.0,0.0,0.0,0.0,0.0,0.0,0.0,0.0,0.0,0.0,0.0,0.0,0.0,0.0,0.0,0.0,0.0,0.0,0.0,0.0,0.0,0.0,0.0,0.0,0.0,0.0,0.0,0.0,0.0,0.0,0.0,0.0,0.0,0.0,0.0,0.0,0.0,0.0,0.0,0.0,0.0,0.0,0.0,0.0,0.0,0.0,0.0,0.0,0.0,0.0,0.0,0.0,0.0,0.0,0.0,0.0,0.0,0.0,0.0,0.0,0.0,0.0,0.0,0.0,0.0,0.0,0.0,0.0,0.0,0.0,0.0,0.0,0.0,0.0,0.0,0.0,0.0,0.0,0.0,0.0,0.0,0.0,0.0,0.0,0.0,0.0,0.0,0.0,0.0,0.0,0.0,0.0,0.0,0.0,0.0,0.0,0.0,0.0,0.0,0.0,0.0,0.0,0.0,0.0,0.0,0.0,0.0,0.0,0.0,0.0,0.0,0.0,0.0,0.0,0.0,0.0,0.0,0.0,0.0,0.0,0.0,0.0,0.0,0.0,0.0,0.0,0.0,0.0,0.0,0.0,0.0,0.0,0.0,0.0,0.0,0.0,0.0,0.0,0.0,0.0,0.0,0.0,0.0,0.0,0.0,0.0,0.0,0.0,0.0,0.0,0.0,0.0,0.0,0.0,0.0,0.0,0.0,0.0,0.0,0.0,0.0,0.0,0.0,0.0,0.0,0.0,0.0,0.0,0.0,0.0,0.0,0.0,0.0,0.0,0.0,0.0,0.0,0.0,0.0,0.0,0.0,0.0,0.0,0.0,0.0,0.0,0.0,0.0,0.0,0.0,0.0,0.0,0.0,0.0,0.0,0.0,0.0,0.0,0.0,0.0,0.0,0.0,0.0,0.0,0.0,0.0,0.0,0.0,0.0,0.0,0.0,0.0,0.0,0.0,0.0,0.0,0.0,0.0,0.0,0.0,0.0,0.0,0.0,0.0,0.0,0.0,0.0,0.0,0.0,0.0,0.0,0.0,0.0,0.0,0.0,0.0,0.0,0.0,0.0,0.0,0.0,0.0,0.0,0.0,0.0,0.0,0.0,0.0,0.0,0.0,0.0,0.0,0.0,0.0,0.0,0.0,0.0,0.0,0.0,0.0,0.0,0.0,0.0,0.0,0.0,0.0,0.0,0.0,0.0,0.0,0.0,0.0,0.0,0.0,0.3807,0.0,0.0,0.0,0.0,0.0,0.0,0.0,0.0,0.0,0.0,0.0,0.0,0.0,0.0,0.0,0.0,0.0,0.0,0.0,0.0,0.0,0.0,0.0,0.0,0.0,0.0,0.0,0.0,0.0,0.0,0.0,0.0,0.0,0.0,0.0,0.0,0.0,0.0,0.0,0.0,0.0,0.0,0.0,0.0,0.0,0.0,0.0,0.0,0.0,0.0,0.0,0.0,0.0,0.0,0.0,0.0,0.0,0.0,0.0,0.0,0.0,0.0,0.0,0.0,0.0,0.0,0.0,0.0,0.0,0.0,0.0,0.0,0.0,0.0,0.0,0.0,0.0,0.0,0.0,0.0,0.0,0.0,0.0,0.0,0.0,0.0,0.0,0.0,0.0,0.0,0.0,0.0,0.0,0.0,0.0,0.0,0.0,0.0,0.0,0.0,0.0,0.0,0.0,0.0,0.0,0.0,0.0,0.0,0.0,0.0,0.372,0.371,0.382,0.3911,0.3911,0.0,0.0,0.0,0.0,0.0,0.0,0.0,0.0,0.0,0.0,0.0,0.0,0.0,0.0,0.0,0.0,0.0,0.0,0.0,0.0,0.0,0.0,0.0,0.0,0.0,0.0,0.0,0.0,0.0,0.0,0.0,0.0,0.0,0.0,0.0,0.0,0.0,0.0,0.0,0.0,0.0,0.0,0.0,0.0,0.0,0.0,0.0,0.0,0.0,0.0,0.0,0.0,0.0,0.0,0.0,0.0,0.0,0.0,0.0,0.0,0.0,0.0,0.0,0.0,0.0,0.0,0.0,0.0,0.0,0.0,0.0,0.0,0.0,0.0,0.0,0.0,0.0,0.0,0.0,0.0,0.0,0.0,0.0,0.0,0.0,0.0,0.0,0.0,0.0,0.0,0.0,0.0,0.0,0.0,0.0,0.0,0.0,0.0,0.0,0.0,0.0,0.0,0.0,0.0,0.0,0.0,0.0,0.0,0.0,0.0,0.0,0.0,0.4137,0.4178,0.4167,0.0,0.0,0.0,0.0,0.0,0.0,0.0,0.0,0.0,0.0,0.0,0.0,0.0,0.0,0.0,0.0,0.0,0.0,0.0,0.0,0.0,0.0,0.0,0.0,0.0,0.0,0.0,0.0,0.0,0.0,0.0,0.0,0.0,0.0,0.0,0.0,0.0,0.0,0.0,0.0,0.0,0.0,0.0,0.0,0.0,0.0,0.0,0.0,0.0,0.0,0.0,0.0,0.0,0.0,0.0,0.0,0.0,0.0,0.0,0.0,0.0,0.0,0.0,0.0,0.0,0.0,0.0,0.0,0.0,0.0,0.0,0.0,0.0,0.0,0.0,0.0,0.0,0.0,0.0,0.0,0.0,0.0,0.0,0.0,0.0,0.0,0.0,0.0,0.0,0.0,0.0,0.0,0.0,0.0,0.0,0.0,0.0,0.0,0.0,0.0,0.0,0.0,0.0,0.0,0.0,0.0,0.0,0.0,0.0,0.0,0.416,0.4697,0.4884,0.0,0.4993,0.0,0.0,0.0,0.0,0.0,0.0,0.0,0.0,0.0,0.0,0.0,0.0,0.0,0.0,0.0,0.0,0.0,0.0,0.0,0.0,0.0,0.0,0.0,0.0,0.0,0.0,0.0,0.0,0.0,0.0,0.0,0.0,0.0,0.0,0.0,0.0,0.0,0.0,0.0,0.0,0.0,0.0,0.0,0.0,0.0,0.0,0.0,0.0,0.0,0.0,0.0,0.0,0.0,0.0,0.0,0.0,0.0,0.0,0.0,0.0,0.0,0.0,0.0,0.0,0.0,0.0,0.0,0.0,0.0,0.0,0.0,0.0,0.0,0.0,0.0,0.0,0.0,0.0,0.0,0.0,0.0,0.0,0.0,0.0,0.0,0.0,0.0,0.0,0.0,0.0,0.0,0.0,0.0,0.0,0.0,0.0,0.0,0.0,0.0,0.0,0.0,0.0,0.0,0.0,0.0,0.0,0.0,0.0,0.0,0.0,0.4556,0.4787,0.4872,0.4866,0.0,0.0,0.0,0.0,0.0,0.0,0.0,0.0,0.0,0.0,0.0,0.0,0.0,0.0,0.0,0.0,0.0,0.0,0.0,0.0,0.0,0.0,0.0,0.0,0.0,0.0,0.0,0.0,0.0,0.0,0.0,0.0,0.0,0.0,0.0,0.0,0.0,0.0,0.0,0.0,0.0,0.0,0.0,0.0,0.0,0.0,0.0,0.0,0.0,0.0,0.0,0.0,0.0,0.0,0.0,0.0,0.0,0.0,0.0,0.0,0.0,0.0,0.0,0.0,0.0,0.0,0.0,0.0,0.0,0.0,0.0,0.0,0.0,0.0,0.0,0.0,0.0,0.0,0.0,0.0,0.0,0.0,0.0,0.0,0.0,0.0,0.0,0.0,0.0,0.0,0.0,0.0,0.0,0.0,0.0,0.0,0.0,0.0,0.0,0.0,0.0,0.0,0.0,0.0,0.0,0.0,0.0,0.0,0.0,0.0,0.4686,0.4921,0.511,0.5057,0.4858,0.4537,0.0,0.0,0.0,0.0,0.0,0.0,0.0,0.0,0.0,0.0,0.0,0.0,0.0,0.0,0.0,0.0,0.0,0.0,0.0,0.0,0.0,0.0,0.0,0.0,0.0,0.0,0.0,0.0,0.0,0.0,0.0,0.0,0.0,0.0,0.0,0.0,0.0,0.0,0.0,0.0,0.0,0.0,0.0,0.0,0.0,0.0,0.0,0.0,0.0,0.0,0.0,0.0,0.0,0.0,0.0,0.0,0.0,0.0,0.0,0.0,0.0,0.0,0.0,0.0,0.0,0.0,0.0,0.0,0.0,0.0,0.0,0.0,0.0,0.0,0.0,0.0,0.0,0.0,0.0,0.0,0.0,0.0,0.0,0.0,0.0,0.0,0.0,0.0,0.0,0.0,0.0,0.0,0.0,0.0,0.0,0.0,0.0,0.0,0.0,0.0,0.0,0.0,0.0,0.0,0.0,0.0,0.0,0.0,0.0,0.5176,0.5238,0.5907,0.5685,0.5264,0.0,0.0,0.0,0.0,0.0,0.0,0.0,0.0,0.0,0.0,0.0,0.0,0.0,0.0,0.0,0.0,0.0,0.0,0.0,0.0,0.0,0.0,0.0,0.0,0.0,0.0,0.0,0.0,0.0,0.0,0.0,0.0,0.0,0.0,0.0,0.0,0.0,0.0,0.0,0.0,0.0,0.0,0.0,0.0,0.0,0.0,0.0,0.0,0.0,0.0,0.0,0.0,0.0,0.0,0.0,0.0,0.0,0.0,0.0,0.0,0.0,0.0,0.0,0.0,0.0,0.0,0.0,0.0,0.0,0.0,0.0,0.0,0.0,0.0,0.0,0.0,0.0,0.0,0.0,0.0,0.0,0.0,0.0,0.0,0.0,0.0,0.0,0.0,0.0,0.0,0.0,0.0,0.0,0.0,0.0,0.0,0.0,0.0,0.0,0.0,0.0,0.0,0.0,0.0,0.0,0.0,0.0,0.0,0.0,0.457,0.475,0.5348,0.6367,0.5368,0.4774,0.0,0.0,0.0,0.0,0.0,0.0,0.0,0.0,0.0,0.0,0.0,0.0,0.0,0.0,0.0,0.0,0.0,0.0,0.0,0.0,0.0,0.0,0.0,0.0,0.0,0.0,0.0,0.0,0.0,0.0,0.0,0.0,0.0,0.0,0.0,0.0,0.0,0.0,0.0,0.0,0.0,0.0,0.0,0.0,0.0,0.0,0.0,0.0,0.0,0.0,0.0,0.0,0.0,0.0,0.0,0.0,0.0,0.0,0.0,0.0,0.0,0.0,0.0,0.0,0.0,0.0,0.0,0.0,0.0,0.0,0.0,0.0,0.0,0.0,0.0,0.0,0.0,0.0,0.0,0.0,0.0,0.0,0.0,0.0,0.0,0.0,0.0,0.0,0.0,0.0,0.0,0.0,0.0,0.0,0.0,0.0,0.0,0.0,0.0,0.0,0.0,0.0,0.0,0.0,0.0,0.0,0.0,0.0,0.0,0.4514,0.0,0.5743,0.0,0.5268,0.4536,0.0,0.0,0.0,0.0,0.0,0.0,0.0,0.0,0.0,0.0,0.0,0.0,0.0,0.0,0.0,0.0,0.0,0.0,0.0,0.0,0.0,0.0,0.0,0.0,0.0,0.0,0.0,0.0,0.0,0.0,0.0,0.0,0.0,0.0,0.0,0.0,0.0,0.0,0.0,0.0,0.0,0.0,0.0,0.0,0.0,0.0,0.0,0.0,0.0,0.0,0.0,0.0,0.0,0.0,0.0,0.0,0.0,0.0,0.0,0.0,0.0,0.0,0.0,0.0,0.0,0.0,0.0,0.0,0.0,0.0,0.0,0.0,0.0,0.0,0.0,0.0,0.0,0.0,0.0,0.0,0.0,0.0,0.0,0.0,0.0,0.0,0.0,0.0,0.0,0.0,0.0,0.0,0.0,0.0,0.0,0.0,0.0,0.0,0.0,0.0,0.0,0.0,0.0,0.0,0.0,0.0,0.0,0.0,0.4533,0.573,0.6295,0.6334,0.5832,0.5495,0.4627,0.0,0.0,0.0,0.0,0.0,0.0,0.0,0.0,0.0,0.0,0.0,0.0,0.0,0.0,0.0,0.0,0.0,0.0,0.0,0.0,0.0,0.0,0.0,0.0,0.0,0.0,0.0,0.0,0.0,0.0,0.0,0.0,0.0,0.0,0.0,0.0,0.0,0.0,0.0,0.0,0.0,0.0,0.0,0.0,0.0,0.0,0.0,0.0,0.0,0.0,0.0,0.0,0.0,0.0,0.0,0.0,0.0,0.0,0.0,0.0,0.0,0.0,0.0,0.0,0.0,0.0,0.0,0.0,0.0,0.0,0.0,0.0,0.0,0.0,0.0,0.0,0.0,0.0,0.0,0.0,0.0,0.0,0.0,0.0,0.0,0.0,0.0,0.0,0.0,0.0,0.0,0.0,0.0,0.0,0.0,0.0,0.0,0.0,0.0,0.0,0.0,0.0,0.0,0.0,0.0,0.0,0.0,0.0,0.0,0.5135,0.5524,0.5892,0.6149,0.5011,0.4395,0.0,0.0,0.0,0.0,0.0,0.0,0.0,0.0,0.0,0.0,0.0,0.0,0.0,0.0,0.0,0.0,0.0,0.0,0.0,0.0,0.0,0.0,0.0,0.0,0.0,0.0,0.0,0.0,0.0,0.0,0.0,0.0,0.0,0.0,0.0,0.0,0.0,0.0,0.0,0.0,0.0,0.0,0.0,0.0,0.0,0.0,0.0,0.0,0.0,0.0,0.0,0.0,0.0,0.0,0.0,0.0,0.0,0.0,0.0,0.0,0.0,0.0,0.0,0.0,0.0,0.0,0.0,0.0,0.0,0.0,0.0,0.0,0.0,0.0,0.0,0.0,0.0,0.0,0.0,0.0,0.0,0.0,0.0,0.0,0.0,0.0,0.0,0.0,0.0,0.0,0.0,0.0,0.0,0.0,0.0,0.0,0.0,0.0,0.0,0.0,0.0,0.0,0.0,0.0,0.0,0.0,0.0,0.0,0.0,0.5546,0.583,0.6128,0.6349,0.5242,0.4651,0.4664,0.0,0.0,0.0,0.0,0.0,0.0,0.0,0.0,0.0,0.0,0.0,0.0,0.0,0.0,0.0,0.0,0.0,0.0,0.0,0.0,0.0,0.0,0.0,0.0,0.0,0.0,0.0,0.0,0.0,0.0,0.0,0.0,0.0,0.0,0.0,0.0,0.0,0.0,0.0,0.0,0.0,0.0,0.0,0.0,0.0,0.0,0.0,0.0,0.0,0.0,0.0,0.0,0.0,0.0,0.0,0.0,0.0,0.0,0.0,0.0,0.0,0.0,0.0,0.0,0.0,0.0,0.0,0.0,0.0,0.0,0.0,0.0,0.0,0.0,0.0,0.0,0.0,0.0,0.0,0.0,0.0,0.0,0.0,0.0,0.0,0.0,0.0,0.0,0.0,0.0,0.0,0.0,0.0,0.0,0.0,0.0,0.0,0.0,0.0,0.0,0.0,0.0,0.0,0.0,0.0,0.0,0.0,0.0,0.6695,0.7034,0.6914,0.6365,0.6036,0.5314,0.0,0.0,0.0,0.0,0.0,0.0,0.0,0.0,0.0,0.0,0.0,0.0,0.0,0.0,0.0,0.0,0.0,0.0,0.0,0.0,0.0,0.0,0.0,0.0,0.0,0.0,0.0,0.0,0.0,0.0,0.0,0.0,0.0,0.0,0.0,0.0,0.0,0.0,0.0,0.0,0.0,0.0,0.0,0.0,0.0,0.0,0.0,0.0,0.0,0.0,0.0,0.0,0.0,0.0,0.0,0.0,0.0,0.0,0.0,0.0,0.0,0.0,0.0,0.0,0.0,0.0,0.0,0.0,0.0,0.0,0.0,0.0,0.0,0.0,0.0,0.0,0.0,0.0,0.0,0.0,0.0,0.0,0.0,0.0,0.0,0.0,0.0,0.0,0.0,0.0,0.0,0.0,0.0,0.0,0.0,0.0,0.0,0.0,0.0,0.0,0.0,0.0,0.0,0.0,0.0,0.0,0.0,0.0,0.0,0.6695,0.7022,0.705,0.6739,0.6195,0.5646,0.0,0.0,0.0,0.0,0.0,0.0,0.0,0.0,0.0,0.0,0.0,0.0,0.0,0.0,0.0,0.0,0.0,0.0,0.0,0.0,0.0,0.0,0.0,0.0,0.0,0.0,0.0,0.0,0.0,0.0,0.0,0.0,0.0,0.0,0.0,0.0,0.0,0.0,0.0,0.0,0.0,0.0,0.0,0.0,0.0,0.0,0.0,0.0,0.0,0.0,0.0,0.0,0.0,0.0,0.0,0.0,0.0,0.0,0.0,0.0,0.0,0.0,0.0,0.0,0.0,0.0,0.0,0.0,0.0,0.0,0.0,0.0,0.0,0.0,0.0,0.0,0.0,0.0,0.0,0.0,0.0,0.0,0.0,0.0,0.0,0.0,0.0,0.0,0.0,0.0,0.0,0.0,0.0,0.0,0.0,0.0,0.0,0.0,0.0,0.0,0.0,0.0,0.0,0.0,0.0,0.0,0.0,0.0,0.649,0.6899,0.7226,0.7292,0.7037,0.6741,0.6395,0.0,0.0,0.0,0.0,0.0,0.0,0.0,0.0,0.0,0.0,0.0,0.0,0.0,0.0,0.0,0.0,0.0,0.0,0.0,0.0,0.0,0.0,0.0,0.0,0.0,0.0,0.0,0.0,0.0,0.0,0.0,0.0,0.0,0.0,0.0,0.0,0.0,0.0,0.0,0.0,0.0,0.0,0.0,0.0,0.0,0.0,0.0,0.0,0.0,0.0,0.0,0.0,0.0,0.0,0.0,0.0,0.0,0.0,0.0,0.0,0.0,0.0,0.0,0.0,0.0,0.0,0.0,0.0,0.0,0.0,0.0,0.0,0.0,0.0,0.0,0.0,0.0,0.0,0.0,0.0,0.0,0.0,0.0,0.0,0.0,0.0,0.0,0.0,0.0,0.0,0.0,0.0,0.0,0.0,0.0,0.0,0.0,0.0,0.0,0.0,0.0,0.0,0.0,0.0,0.0,0.0,0.0,0.0,0.6687,0.7253,0.7612,0.7654,0.7398,0.7452,0.7255,0.0,0.0,0.0,0.0,0.0,0.0,0.0,0.0,0.0,0.0,0.0,0.0,0.0,0.0,0.0,0.0,0.0,0.0,0.0,0.0,0.0,0.0,0.0,0.0,0.0,0.0,0.0,0.0,0.0,0.0,0.0,0.0,0.0,0.0,0.0,0.0,0.0,0.0,0.0,0.0,0.0,0.0,0.0,0.0,0.0,0.0,0.0,0.0,0.0,0.0,0.0,0.0,0.0,0.0,0.0,0.0,0.0,0.0,0.0,0.0,0.0,0.0,0.0,0.0,0.0,0.0,0.0,0.0,0.0,0.0,0.0,0.0,0.0,0.0,0.0,0.0,0.0,0.0,0.0,0.0,0.0,0.0,0.0,0.0,0.0,0.0,0.0,0.0,0.0,0.0,0.0,0.0,0.0,0.0,0.0,0.0,0.0,0.0,0.0,0.0,0.0,0.0,0.0,0.0,0.0,0.0,0.0,0.0,0.7262,0.7745,0.807,0.8374,0.8616,0.7736,0.7119,0.0,0.0,0.0,0.0,0.0,0.0,0.0,0.0,0.0,0.0,0.0,0.0,0.0,0.0,0.0,0.0,0.0,0.0,0.0,0.0,0.0,0.0,0.0,0.0,0.0,0.0,0.0,0.0,0.0,0.0,0.0,0.0,0.0,0.0,0.0,0.0,0.0,0.0,0.0,0.0,0.0,0.0,0.0,0.0,0.0,0.0,0.0,0.0,0.2033,0.0,0.0,0.0,0.0,0.0,0.0,0.0,0.0,0.0,0.0,0.0,0.0,0.0,0.0,0.0,0.0,0.0,0.0,0.0,0.0,0.0,0.0,0.0,0.0,0.0,0.0,0.0,0.0,0.0,0.0,0.0,0.0,0.0,0.0,0.0,0.0,0.0,0.0,0.0,0.0,0.0,0.0,0.0,0.0,0.0,0.0,0.0,0.0,0.0,0.0,0.0,0.0,0.0,0.0,0.0,0.0,0.0,0.0,0.0,0.7666,0.7887,0.841,0.8781,0.8958,0.8187,0.7757,0.0,0.0,0.0,0.0,0.0,0.0,0.0,0.0,0.0,0.0,0.0,0.0,0.0,0.0,0.0,0.0,0.0,0.0,0.0,0.0,0.0,0.0,0.0,0.0,0.0,0.0,0.0,0.0,0.0,0.0,0.0,0.0,0.0,0.0,0.0,0.0,0.0,0.0,0.0,0.0,0.0,0.0,0.0,0.0,0.0,0.0,0.0,0.0,0.0,0.0,0.0,0.0,0.0,0.0,0.0,0.0,0.0,0.0,0.0,0.0,0.0,0.0,0.0,0.0,0.0,0.0,0.0,0.0,0.0,0.0,0.0,0.0,0.0,0.0,0.0,0.0,0.0,0.0,0.0,0.0,0.0,0.0,0.0,0.0,0.0,0.0,0.0,0.0,0.0,0.0,0.0,0.0,0.0,0.0,0.0,0.0,0.0,0.0,0.0,0.0,0.0,0.0,0.0,0.0,0.0,0.0,0.0,0.7398,0.8051,0.8183,0.8785,0.9076,0.9079,0.8757,0.8709,0.8897,0.0,0.0,0.0,0.0,0.0,0.0,0.0,0.0,0.0,0.0,0.0,0.0,0.0,0.0,0.0,0.0,0.0,0.0,0.0,0.0,0.0,0.0,0.0,0.0,0.0,0.0,0.0,0.0,0.0,0.0,0.0,0.0,0.0,0.0,0.0,0.0,0.0,0.0,0.2155,0.2466,0.0,0.0,0.0,0.0,0.0,0.0,0.0,0.0,0.2676,0.0,0.0,0.0,0.0,0.0,0.0,0.0,0.0,0.0,0.0,0.0,0.0,0.0,0.0,0.0,0.0,0.0,0.0,0.0,0.0,0.0,0.0,0.0,0.0,0.0,0.0,0.0,0.0,0.0,0.0,0.0,0.0,0.0,0.0,0.0,0.0,0.0,0.0,0.0,0.0,0.0,0.0,0.0,0.0,0.0,0.0,0.0,0.0,0.0,0.0,0.0,0.0,0.0,0.0,0.0,0.0,0.8048,0.8245,0.8652,0.9293,0.9424,0.9509,0.9491,0.945,0.933,0.91,0.0,0.0,0.0,0.0,0.0,0.0,0.0,0.0,0.0,0.0,0.0,0.0,0.0,0.0,0.0,0.0,0.0,0.0,0.0,0.0,0.0,0.0,0.0,0.0,0.0,0.0,0.0,0.0,0.0,0.0,0.0,0.0,0.0,0.0,0.0,0.0,0.0,0.0,0.0,0.2799,0.2967,0.0,0.0,0.0,0.0,0.0,0.0,0.0,0.0,0.2591,0.0,0.0,0.0,0.0,0.0,0.0,0.0,0.0,0.0,0.0,0.0,0.0,0.0,0.0,0.0,0.0,0.0,0.0,0.0,0.0,0.0,0.0,0.0,0.0,0.0,0.0,0.0,0.0,0.0,0.0,0.0,0.0,0.0,0.0,0.0,0.0,0.0,0.0,0.0,0.0,0.0,0.0,0.0,0.0,0.0,0.0,0.0,0.0,0.0,0.0,0.0,0.0,0.0,0.0,0.0,0.8063,0.8949,0.9575,0.9962,1.0163,1.0284,1.0245,0.9645,0.9244,0.0,0.0,0.0,0.0,0.0,0.0,0.0,0.0,0.0,0.0,0.0,0.0,0.0,0.0,0.0,0.0,0.0,0.0,0.0,0.0,0.0,0.0,0.0,0.0,0.0,0.0,0.0,0.0,0.0,0.0,0.0,0.0,0.0,0.0,0.0,0.0,0.0,0.0,0.0,0.0,0.3082,0.3329,0.3069,0.0,0.0,0.0,0.0,0.0,0.0,0.2761,0.2611,0.0,0.0,0.0,0.0,0.0,0.0,0.0,0.0,0.0,0.0,0.0,0.0,0.0,0.0,0.0,0.0,0.0,0.0,0.0,0.0,0.0,0.0,0.0,0.0,0.0,0.0,0.0,0.0,0.0,0.0,0.0,0.0,0.0,0.0,0.0,0.0,0.0,0.0,0.0,0.0,0.0,0.0,0.0,0.0,0.0,0.0,0.0,0.0,0.0,0.0,0.0,0.0,0.0,0.0,0.0,0.7992,0.9503,1.034,1.0435,1.0722,1.0908,1.0889,0.9853,0.9259,0.0,0.0,0.0,0.0,0.0,0.0,0.0,0.0,0.0,0.0,0.0,0.0,0.0,0.0,0.0,0.0,0.0,0.0,0.0,0.0,0.0,0.0,0.0,0.0,0.0,0.0,0.0,0.0,0.0,0.0,0.0,0.0,0.0,0.0,0.0,0.0,0.0,0.0,0.0,0.0,0.0,0.3645,0.336,0.3458,0.0,0.0,0.0,0.0,0.355,0.3107,0.0,0.0,0.0,0.0,0.0,0.0,0.0,0.0,0.0,0.0,0.0,0.0,0.0,0.0,0.0,0.0,0.0,0.0,0.0,0.0,0.0,0.0,0.0,0.0,0.0,0.0,0.0,0.0,0.0,0.0,0.0,0.0,0.0,0.0,0.0,0.0,0.0,0.0,0.0,0.0,0.0,0.0,0.0,0.0,0.0,0.0,0.0,0.0,0.0,0.0,0.0,0.0,0.0,0.0,0.0,0.0,0.8839,0.9796,1.0468,1.0817,1.0867,1.0908,1.0898,1.0449,0.9894,0.0,0.0,0.0,0.0,0.0,0.0,0.0,0.0,0.0,0.0,0.0,0.0,0.0,0.0,0.0,0.0,0.0,0.0,0.0,0.0,0.0,0.0,0.0,0.0,0.0,0.0,0.0,0.0,0.0,0.0,0.0,0.0,0.0,0.0,0.0,0.0,0.0,0.0,0.0,0.0,0.0,0.3984,0.399,0.3716,0.3591,0.0,0.0,0.3558,0.3597,0.3581,0.0,0.0,0.0,0.0,0.0,0.0,0.0,0.0,0.0,0.0,0.0,0.0,0.0,0.0,0.0,0.0,0.0,0.0,0.0,0.0,0.0,0.0,0.0,0.0,0.0,0.0,0.0,0.0,0.0,0.0,0.0,0.0,0.0,0.0,0.0,0.0,0.0,0.0,0.0,0.0,0.0,0.0,0.0,0.0,0.0,0.0,0.0,0.0,0.0,0.0,0.0,0.0,0.0,0.0,0.0,0.7954,0.9004,1.0352,1.1115,1.1301,1.1533,1.1511,1.1301,1.043,0.971,0.0,0.0,0.0,0.0,0.0,0.0,0.0,0.0,0.0,0.0,0.0,0.0,0.0,0.0,0.0,0.0,0.0,0.0,0.0,0.0,0.0,0.0,0.0,0.0,0.0,0.0,0.0,0.0,0.0,0.0,0.0,0.0,0.0,0.0,0.0,0.0,0.0,0.0,0.0,0.0,0.0,0.0,0.4395,0.4198,0.0,0.0,0.0,0.4056,0.4059,0.0,0.0,0.0,0.0,0.0,0.0,0.0,0.0,0.0,0.0,0.0,0.0,0.0,0.0,0.0,0.0,0.0,0.0,0.0,0.0,0.0,0.0,0.0,0.0,0.0,0.0,0.0,0.0,0.0,0.0,0.0,0.0,0.0,0.0,0.0,0.0,0.0,0.0,0.0,0.0,0.0,0.0,0.0,0.0,0.0,0.0,0.0,0.0,0.0,0.0,0.0,0.0,0.0,0.0,0.0,0.0,0.0,0.9143,1.0762,1.1665,1.1751,1.2038,1.2012,1.1596,1.041,0.0,0.0,0.0,0.0,0.0,0.0,0.0,0.0,0.0,0.0,0.0,0.0,0.0,0.0,0.0,0.0,0.0,0.0,0.0,0.0,0.0,0.0,0.0,0.0,0.0,0.0,0.0,0.2346,0.0,0.0,0.0,0.0,0.0,0.0,0.0,0.0,0.0,0.0,0.0,0.0,0.0,0.0,0.4087,0.4449,0.4417,0.4449,0.0,0.0,0.4379,0.429,0.3915,0.3524,0.0,0.0,0.0,0.0,0.0,0.0,0.0,0.0,0.0,0.0,0.0,0.0,0.0,0.0,0.0,0.0,0.0,0.0,0.0,0.0,0.0,0.0,0.0,0.0,0.0,0.0,0.0,0.0,0.0,0.0,0.0,0.0,0.0,0.0,0.0,0.0,0.0,0.0,0.0,0.0,0.0,0.0,0.0,0.0,0.0,0.0,0.0,0.0,0.0,0.0,0.0,0.0,0.0,0.0,0.0,0.9554,1.0909,1.178,1.2145,1.2194,1.2021,1.1606,1.0804,0.9974,0.0,0.0,0.0,0.0,0.0,0.0,0.0,0.0,0.0,0.0,0.0,0.0,0.0,0.0,0.0,0.0,0.0,0.0,0.0,0.0,0.0,0.0,0.0,0.0,0.0,0.0,0.0,0.0,0.0,0.0,0.0,0.0,0.0,0.0,0.0,0.0,0.0,0.0,0.0,0.0,0.0,0.385,0.3934,0.4164,0.4422,0.0,0.0,0.4286,0.3982,0.3949,0.3864,0.3532,0.0,0.0,0.0,0.0,0.0,0.0,0.0,0.0,0.0,0.0,0.0,0.0,0.0,0.0,0.0,0.0,0.0,0.0,0.0,0.0,0.0,0.0,0.0,0.0,0.0,0.0,0.0,0.0,0.0,0.0,0.0,0.0,0.0,0.0,0.0,0.0,0.0,0.0,0.0,0.0,0.0,0.0,0.0,0.0,0.0,0.0,0.0,0.0,0.0,0.0,0.0,0.0,0.0,0.8318,0.9583,1.0929,1.1777,1.2194,1.249,1.2308,1.1616,1.1018,1.0213,0.0,0.0,0.0,0.0,0.0,0.0,0.0,0.0,0.0,0.0,0.0,0.0,0.0,0.0,0.0,0.0,0.0,0.0,0.0,0.0,0.0,0.0,0.0,0.0,0.0,0.0,0.0,0.0,0.1963,0.1978,0.1862,0.0,0.0,0.0,0.0,0.0,0.0,0.0,0.0,0.0,0.0,0.3898,0.4375,0.4347,0.0,0.0,0.4494,0.4344,0.4388,0.4145,0.3884,0.376,0.3461,0.0,0.0,0.0,0.0,0.0,0.0,0.0,0.0,0.0,0.0,0.0,0.0,0.0,0.0,0.0,0.0,0.0,0.0,0.0,0.0,0.0,0.0,0.0,0.0,0.0,0.0,0.0,0.0,0.0,0.0,0.0,0.0,0.0,0.0,0.0,0.0,0.0,0.0,0.0,0.0,0.0,0.0,0.0,0.0,0.0,0.0,0.0,0.0,0.0,0.0,0.0,0.0,0.8412,0.9796,1.0987,1.1868,1.2412,1.2725,1.2475,1.1636,1.1143,1.0322,0.0,0.0,0.0,0.0,0.0,0.0,0.0,0.0,0.0,0.0,0.0,0.0,0.0,0.0,0.0,0.0,0.0,0.0,0.0,0.0,0.0,0.0,0.0,0.0,0.0,0.0,0.0,0.0,0.2068,0.1961,0.1808,0.0,0.0,0.0,0.0,0.0,0.0,0.0,0.0,0.0,0.0,0.3927,0.4644,0.4497,0.4449,0.4788,0.4653,0.4572,0.4758,0.4427,0.4093,0.3988,0.0,0.0,0.0,0.0,0.0,0.0,0.0,0.0,0.0,0.0,0.0,0.0,0.0,0.0,0.0,0.0,0.0,0.0,0.0,0.0,0.0,0.0,0.0,0.0,0.0,0.0,0.0,0.0,0.0,0.0,0.771,0.0,0.0,0.0,0.0,0.0,0.0,0.0,0.0,0.0,0.0,0.0,0.0,0.0,0.0,0.0,0.0,0.0,0.0,0.0,0.0,0.0,0.0,0.8558,1.0244,1.1144,1.2005,1.2846,1.2905,1.2484,1.1645,1.1143,1.0312,0.9023,0.0,0.0,0.0,0.0,0.0,0.0,0.0,0.0,0.0,0.0,0.0,0.0,0.0,0.0,0.0,0.0,0.0,0.0,0.0,0.0,0.0,0.0,0.0,0.0,0.0,0.0,0.2637,0.2164,0.1808,0.0,0.0,0.0,0.0,0.0,0.0,0.0,0.0,0.0,0.0,0.3573,0.3869,0.4597,0.4637,0.4768,0.5279,0.5146,0.4982,0.4989,0.4822,0.4545,0.0,0.0,0.0,0.0,0.0,0.0,0.0,0.0,0.0,0.0,0.0,0.0,0.0,0.0,0.0,0.0,0.0,0.0,0.0,0.0,0.0,0.0,0.0,0.0,0.0,0.0,0.0,1.0029,0.9676,0.0,0.0,0.0,0.0,0.0,0.0,0.0,0.0,0.0,0.0,0.0,1.1324,1.1638,0.0,0.0,0.0,0.0,0.0,0.0,0.0,0.0,0.0,0.0,0.0,0.0,0.9004,1.0635,1.1291,1.2028,1.2876,1.2915,1.2598,1.2021,1.1594,1.0488,0.8669,0.0,0.0,0.0,0.0,0.0,0.0,0.0,0.0,0.0,0.0,0.0,0.0,0.0,0.0,0.0,0.0,0.0,0.0,0.0,0.0,0.0,0.0,0.0,0.0,0.0,0.2489,0.0,0.0,0.0,0.0,0.0,0.0,0.0,0.0,0.0,0.0,0.0,0.348,0.3792,0.4,0.4274,0.4643,0.4718,0.4873,0.0,0.0,0.0,0.0,0.0,0.0,0.0,0.0,0.0,0.0,0.0,0.0,0.0,0.0,0.2933,0.251,0.219,0.2009,0.2105,0.0,0.0,0.0,0.0,0.0,0.0,0.0,0.0,0.0,0.0,0.0,0.0,0.0,0.0,1.1572,0.0,1.1213,0.0,0.0,0.0,0.0,0.0,0.0,0.0,0.0,1.1677,1.2242,1.2662,1.2959,1.2827,0.0,1.2259,1.1154,0.0,0.0,0.0,0.0,0.0,0.0,0.0,0.0,0.9502,1.0859,1.1494,1.2171,1.2866,1.2915,1.2676,1.2213,1.1504,1.0342,0.8669,0.793,0.7297,0.0,0.0,0.0,0.0,0.0,0.0,0.0,0.0,0.0,0.0,0.0,0.0,0.0,0.0,0.0,0.0,0.0,0.0,0.0,0.0,0.0,0.0,0.0,0.2582,0.0,0.0,0.0,0.0,0.0,0.0,0.0,0.0,0.0,0.3214,0.3566,0.3923,0.4248,0.4416,0.4662,0.5003,0.0,0.0,0.0,0.0,0.0,0.0,0.0,0.5371,0.565,0.5304,0.4968,0.4843,0.476,0.4499,0.383,0.0,0.0,0.2585,0.2281,0.2106,0.2218,0.2103,0.1986,0.2056,0.2034,0.1928,0.0,0.0,0.0,0.0,0.0,0.0,0.0,0.0,1.3428,1.335,0.0,1.2954,0.0,0.0,0.0,0.0,0.0,1.1628,0.0,0.0,1.348,1.3899,1.3564,1.3549,1.3564,1.3555,1.351,1.2871,1.1596,0.998,0.0,0.0,0.0,0.0,0.0,0.0,1.005,1.0946,1.1765,1.2418,1.2895,1.2915,1.27,1.2194,1.1006,0.9951,0.9092,0.8659,0.8033,0.7187,0.6689,0.0,0.0,0.0,0.0,0.0,0.0,0.0,0.0,0.0,0.0,0.0,0.0,0.0,0.0,0.0,0.0,0.0,0.0,0.0,0.0,0.3215,0.0,0.0,0.0,0.0,0.0,0.0,0.0,0.0,0.0,0.0,0.3652,0.4089,0.4529,0.4794,0.0,0.0,0.0,0.0,0.5645,0.644,0.6371,0.6277,0.6519,0.6127,0.5685,0.5396,0.0,0.0,0.459,0.4838,0.4806,0.4029,0.328,0.287,0.3097,0.2624,0.2279,0.2429,0.2269,0.2173,0.2337,0.2336,0.2269,1.6102,0.0,0.0,0.0,0.0,1.4492,1.4883,1.5586,1.541,1.5116,1.4668,1.4365,0.0,0.0,0.0,0.0,0.0,0.0,1.2861,1.3139,1.3802,1.4211,1.4434,1.4727,1.4717,1.4434,1.4424,1.3942,1.2959,1.2461,1.1162,0.9114,0.0,0.0,0.0,0.0,1.0905,1.165,1.2041,1.2418,1.2905,1.2915,1.2676,1.2213,1.1562,1.0821,0.997,0.9484,0.8887,0.8072,0.7574,0.0,0.0,0.0,0.0,0.0,0.0,0.0,0.0,0.0,0.0,0.0,0.0,0.0,0.0,0.0,0.0,0.0,0.0,0.0,0.3479,0.341,0.3312,0.0,0.0,0.0,0.0,0.0,0.0,0.0,0.0,0.0,0.5002,0.5035,0.5137,0.0,0.0,0.5903,0.6211,0.6082,0.6082,0.6471,0.6337,0.0,0.0,0.5825,0.5782,0.592,0.5692,0.5412,0.5129,0.4878,0.4496,0.3761,0.3051,0.26,0.2613,0.2478,0.2354,0.2402,0.2284,0.2188,0.225,0.2252,0.2219,1.851,1.6748,1.5996,1.5937,1.6426,1.6348,1.667,1.7184,1.6943,1.668,1.6416,1.6006,1.5332,1.4482,1.3827,0.0,0.0,0.0,1.4148,1.4561,1.4676,1.4878,1.5177,1.5245,1.5148,1.4963,1.4906,1.4521,1.3801,1.3801,1.2859,1.1018,0.0,0.0,1.1233,1.1706,1.2128,1.2585,1.2686,1.2861,1.3125,1.2993,1.2676,1.2213,1.1819,1.1283,1.0557,0.9932,0.9299,0.8669,0.8213,0.7369,0.0,0.0,0.0,0.0,0.0,0.0,0.0,0.0,0.0,0.0,0.0,0.3276,0.2848,0.0,0.0,0.0,0.3523,0.3825,0.4231,0.4133,0.0,0.0,0.0,0.0,0.0,0.0,0.0,0.4696,0.4971,0.5337,0.5972,0.5923,0.5865,0.6032,0.6238,0.6432,0.666,0.0,0.6378,0.6478,0.6518,0.6419,0.6106,0.5983,0.5896,0.5846,0.5688,0.5498,0.534,0.5055,0.4673,0.4091,0.3415,0.2878,0.284,0.2617,0.2372,0.23,0.2213,0.2169,0.2158,0.2169,0.2147,2.0771,1.9933,1.8763,1.8242,1.8154,1.849,1.8432,1.8125,1.8105,1.8081,1.8042,1.7627,1.6943,1.6044,1.5071,0.0,1.5271,1.5484,1.5782,1.6211,1.5854,1.5695,1.5808,1.5306,1.5116,1.5234,1.5078,1.4772,1.4374,1.4364,1.3949,1.3188,1.3105,1.3037,1.2959,1.3315,1.3539,1.3555,1.3555,1.3545,1.348,1.3135,1.2705,1.22,1.1819,1.14,1.0888,1.0108,0.9455,0.9023,0.8659,0.7847,0.6543,0.0,0.0,0.0,0.0,0.0,0.0,0.0,0.0,0.0,0.0,0.0,0.0,0.0,0.0,0.0,0.4353,0.0,0.5366,0.509,0.0,0.0,0.0,0.3975,0.3694,0.4409,0.5042,0.536,0.0,0.0,0.6587,0.6627,0.6627,0.6627,0.6627,0.672,0.6966,0.674,0.656,0.6526,0.6727,0.6779,0.6461,0.6234,0.5919,0.5478,0.5313,0.5306,0.5284,0.5214,0.5095,0.4769,0.4086,0.3489,0.3471,0.2906,0.2384,0.219,0.2112,0.2111,0.2111,0.2111,0.21,2.1479,2.1094,2.1014,2.0205,1.9004,1.9092,1.9072,1.8984,1.8984,1.8913,1.873,1.7967,1.711,1.6164,1.5901,1.5863,1.5968,1.6031,1.6157,1.6319,1.6148,1.6132,1.6251,1.5716,1.5465,1.5486,1.5152,1.4923,1.4828,1.4819,1.4724,1.4535,1.4601,1.4119,1.3129,1.3561,1.3826,1.3888,1.3941,1.3802,1.349,1.3418,1.3008,1.2233,1.1819,1.1379,1.0897,1.041,0.9775,0.9053,0.8906,0.8271,0.6989,0.6201,0.0,0.0,0.0,0.0,0.0,0.0,0.0,0.0,0.0,0.4882,0.3792,0.0,0.5459,0.0,0.5719,0.571,0.549,0.5039,0.0,0.0,0.496,0.5045,0.5162,0.5601,0.597,0.6265,0.6419,0.6593,0.6887,0.69,0.6886,0.6851,0.683,0.6856,0.6986,0.6652,0.6453,0.6587,0.6349,0.6066,0.6028,0.5789,0.5663,0.5621,0.5392,0.5223,0.5223,0.4915,0.4652,0.4565,0.411,0.3669,0.3428,0.3166,0.2859,0.2436,0.2215,0.21,0.21,0.21,0.21,2.2249,2.1948,2.2116,2.1453,2.0265,2.0196,2.0049,1.9844,1.9648,1.9496,1.9356,1.8689,1.8093,1.7557,1.7317,1.7121,1.7035,1.6788,1.6628,1.6609,1.6361,1.6332,1.6415,1.5892,1.5579,1.5463,1.5168,1.4971,1.4882,1.4872,1.4872,1.4872,1.4931,1.4582,1.3875,1.4304,1.4596,1.4624,1.4494,1.4219,1.3782,1.3603,1.3256,1.2788,1.2197,1.165,1.1232,1.0791,1.0166,0.9318,0.927,0.8789,0.7749,0.7207,0.678,0.0,0.0,0.0,0.0,0.0,0.0,0.0,0.0,0.0,0.0,0.0,0.6085,0.66,0.6642,0.669,0.6788,0.6527,0.6324,0.6237,0.6195,0.6148,0.6025,0.622,0.6432,0.6593,0.6707,0.684,0.698,0.6993,0.6964,0.6907,0.6899,0.6893,0.6859,0.6645,0.6483,0.6543,0.636,0.6142,0.6047,0.5799,0.5601,0.5559,0.5404,0.5268,0.5122,0.4906,0.473,0.4702,0.4386,0.4079,0.3848,0.3497,0.3138,0.2883,0.2566,0.2327,0.2147,0.21,0.21,2.2886,2.2555,2.2545,2.2227,2.1601,2.143,2.1073,2.0625,2.0244,1.9982,1.9865,1.9457,1.9263,1.9185,1.8656,1.8314,1.8097,1.7507,1.7146,1.6989,1.6578,1.6453,1.6617,1.6044,1.5652,1.5476,1.521,1.497,1.474,1.4714,1.4656,1.4677,1.4715,1.4745,1.4736,1.5186,1.542,1.541,1.5059,1.4658,1.4192,1.3799,1.3535,1.3408,1.2598,1.1911,1.1538,1.1103,1.0488,0.9661,0.9659,0.9307,0.8469,0.8346,0.7974,0.0,0.7129,0.0,0.0,0.0,0.0,0.0,0.0,0.0,0.0,0.6419,0.6739,0.7311,0.7381,0.764,0.8279,0.8309,0.808,0.7564,0.7371,0.713,0.6712,0.6715,0.6754,0.6855,0.7022,0.7113,0.714,0.7113,0.7055,0.7022,0.7007,0.6931,0.6721,0.6675,0.6583,0.6432,0.6544,0.65,0.6312,0.6047,0.5776,0.5591,0.5484,0.5347,0.5105,0.5058,0.5022,0.4956,0.4724,0.4504,0.4452,0.3863,0.3425,0.321,0.2918,0.2631,0.2263,0.217,0.2124,2.2965,2.2766,2.293,2.273,2.2298,2.2262,2.1712,2.0833,2.0946,2.0479,1.9725,1.9439,1.9135,1.8802,1.8506,1.8358,1.8303,1.7712,1.7537,1.7599,1.706,1.697,1.725,1.652,1.6223,1.63,1.5477,1.5087,1.5013,1.4683,1.4536,1.4526,1.4793,1.4941,1.497,0.0,0.0,0.0,1.5332,1.5088,1.4668,1.4211,1.3656,1.3042,1.2171,0.0,1.1064,1.0957,1.0488,0.967,0.9971,0.0,0.0,0.0,0.0,0.0,0.0,0.0,0.0,0.0,0.0,0.0,0.8064,0.766,0.6824,0.7872,0.8513,0.8295,0.8317,0.8262,0.8095,0.7837,0.7624,0.7521,0.7375,0.7502,0.7984,0.7702,0.7632,0.8227,0.7969,0.7726,0.7712,0.7656,0.7526,0.7391,0.7399,0.7169,0.6686,0.6593,0.6517,0.641,0.6453,0.6456,0.6458,0.6216,0.6083,0.6079,0.5845,0.5565,0.5305,0.5228,0.5138,0.4924,0.479,0.4559,0.4129,0.4135,0.3915,0.2999,0.298,0.2943,0.2445,0.2343,0.2303,2.3368,0.0,2.3145,2.293,0.0,2.2736,2.2333,2.1515,2.1304,2.079,2.0149,1.9908,1.9745,1.9639,1.9202,1.9014,1.9032,1.8386,1.7977,1.7764,1.7374,1.7197,1.7185,1.6809,1.6539,1.6427,1.5923,1.5591,1.5349,1.5135,1.4939,1.4743,1.4911,1.4921,1.4773,1.5059,1.5284,1.542,1.5148,1.5041,1.5078,1.4678,1.4141,1.3516,0.0,0.0,0.0,0.0,0.0,0.0,0.0,0.0,0.0,0.0,0.0,0.926,0.9075,0.9038,0.9172,0.9304,0.9336,0.9309,0.9385,0.8921,0.7732,0.8586,0.9143,0.9115,0.9319,0.9437,0.9428,0.929,0.9162,0.9151,0.8748,0.8588,0.8826,0.8656,0.8391,0.8257,0.8065,0.7905,0.7905,0.7851,0.775,0.7624,0.7607,0.7433,0.703,0.6833,0.6693,0.6462,0.641,0.641,0.6419,0.6349,0.6225,0.6155,0.5979,0.5756,0.5486,0.5365,0.5256,0.5069,0.4917,0.4614,0.4156,0.4113,0.3943,0.3217,0.3023,0.2973,0.2605,0.2435,0.2343,2.3789,2.375,2.3276,2.3013,2.2882,2.3047,2.278,2.2206,0.0,0.0,0.0,2.0537,2.0488,2.0537,1.9928,1.9659,1.9688,1.9032,1.8432,1.8015,1.7676,1.7437,1.7158,1.7049,1.6846,1.649,1.6416,1.6137,1.5729,1.56,1.5385,1.5073,1.5047,1.4911,1.4675,1.4816,1.507,1.5362,1.4954,1.4906,1.5254,1.4961,1.4619,1.4231,1.3691,1.3066,1.235,1.1914,1.1496,1.1045,1.0771,1.0557,1.043,1.041,1.0547,1.0879,1.0867,1.0864,1.0828,1.0721,1.0465,1.0015,1.0241,0.999,0.8986,0.9225,0.9548,0.9877,1.0208,1.0551,1.0864,1.0892,1.0873,1.08,1.0158,0.9697,0.9559,0.951,0.9144,0.8413,0.828,0.8135,0.8023,0.7975,0.79,0.7798,0.7793,0.7701,0.7471,0.7193,0.6897,0.656,0.6514,0.6459,0.641,0.6404,0.6313,0.6151,0.6096,0.5967,0.5711,0.5571,0.5468,0.5299,0.5026,0.4687,0.4307,0.4188,0.3875,0.3392,0.3163,0.2977,0.2742,0.2504,0.2352,2.3799,2.375,2.3276,2.3101,2.3047,2.3091,2.2857,2.2438,2.2012,2.1543,2.1103,2.1103,2.0878,2.0566,2.0071,1.9856,1.9837,1.9037,1.8748,0.0,1.809,1.7915,1.8177,1.7675,1.7407,1.7288,1.6805,1.6457,1.6149,1.5631,1.5312,1.5259,1.521,1.5205,1.5216,1.4754,1.4783,1.5371,1.5332,1.5118,1.4742,1.4758,1.4756,1.4648,1.361,1.2954,1.2817,1.2373,1.1934,1.1526,1.1787,1.1589,1.0879,1.082,1.0819,1.0888,1.0795,1.0885,1.1257,1.1079,1.0897,1.0766,1.0791,1.0745,1.0566,1.0616,1.0649,1.0713,1.0769,1.0837,1.0892,1.0929,1.0796,1.0514,1.041,1.0324,1.0164,1.0069,0.9851,0.9423,0.944,0.9028,0.8425,0.8197,0.8084,0.8059,0.8059,0.8016,0.7845,0.7472,0.7089,0.6817,0.6749,0.6646,0.6459,0.641,0.638,0.634,0.6337,0.6234,0.5985,0.605,0.5959,0.5444,0.5135,0.486,0.4681,0.47,0.4248,0.3508,0.338,0.3359,0.2904,0.264,0.2438,2.4346,2.4092,2.3672,2.3315,2.3101,2.3101,2.2994,2.2842,2.2604,2.2197,2.1541,2.1207,2.0993,2.0869,2.0361,2.0177,2.0245,1.9782,1.9419,1.9146,1.8667,1.8302,1.8069,1.7791,1.7628,1.747,1.7213,1.6962,1.6708,1.6406,1.604,1.5565,1.5238,1.5147,1.5274,1.4994,1.4879,1.4964,1.4888,1.4888,1.5012,1.5022,1.4944,1.4813,1.4216,1.3799,1.3564,1.312,1.2725,1.2318,1.2246,1.1911,1.133,1.1281,1.1377,1.158,1.1555,1.1637,1.1977,1.1747,1.1573,1.155,1.1573,1.154,1.154,1.1347,1.1228,1.1228,1.1228,1.1311,1.1513,1.1347,1.1237,1.1283,1.1058,1.0777,1.0416,1.0149,0.9845,0.9376,0.9217,0.9032,0.8682,0.8552,0.8429,0.8378,0.832,0.8229,0.8132,0.7929,0.7492,0.6941,0.6802,0.6674,0.6459,0.641,0.641,0.641,0.641,0.6362,0.6234,0.6328,0.6252,0.5989,0.5747,0.5394,0.4911,0.4689,0.4331,0.3824,0.3434,0.3335,0.3151,0.2924,0.2578,2.4883,2.4521,2.4004,2.3545,2.3101,2.3101,2.3101,2.3101,2.3091,2.2773,2.2116,2.1535,2.1244,2.1161,2.0672,2.0468,2.0498,2.0294,1.9965,1.9525,1.924,1.8826,1.828,1.8092,1.7889,1.7691,1.7577,1.7426,1.7187,1.7148,1.6748,1.6004,1.5471,1.5261,1.5409,1.5263,1.5071,1.4772,1.463,1.4773,1.5206,1.5226,1.5158,1.4961,1.4824,1.4629,1.426,1.3841,1.3496,1.3174,1.2817,1.2476,1.2191,1.2162,1.2295,1.2584,1.2608,1.2633,1.2692,1.2537,1.2402,1.2376,1.2376,1.234,1.222,1.1963,1.1733,1.1669,1.1651,1.1761,1.1972,1.1825,1.1733,1.1926,1.1577,1.1095,1.059,1.019,0.9745,0.9151,0.9084,0.9119,0.8803,0.8704,0.8651,0.8528,0.8482,0.8395,0.8275,0.8234,0.7851,0.7254,0.693,0.6755,0.649,0.641,0.641,0.641,0.641,0.6404,0.6371,0.6404,0.641,0.6334,0.6374,0.5966,0.5092,0.4808,0.459,0.4143,0.3825,0.3536,0.3441,0.3111,0.2724,2.5096,2.493,2.4196,2.3535,2.313,2.3101,2.3101,2.3101,2.3101,2.3071,2.2896,2.2535,2.1912,2.1259,2.0931,2.066,2.0371,2.0069,2.0031,2.011,1.9726,1.961,1.9548,1.8906,1.8456,1.8264,1.7883,1.7657,1.7459,1.724,1.6967,1.6575,1.6015,1.5784,1.5927,1.5457,1.5235,1.5323,1.5206,1.4975,1.4714,1.5128,1.5362,1.5361,1.498,1.4803,1.4727,1.4307,1.4036,1.3997,1.3929,1.3899,1.3841,1.3841,1.387,1.389,1.384,1.3738,1.3437,1.3384,1.3274,1.3213,1.3121,1.2974,1.2643,1.2579,1.2413,1.211,1.2027,1.2018,1.2092,1.2036,1.188,1.1678,1.1485,1.1159,1.088,1.046,1.0043,0.9751,0.9936,0.9804,0.8848,0.8611,0.8482,0.8478,0.8541,0.8521,0.8395,0.8281,0.8075,0.7616,0.7325,0.6964,0.6581,0.6416,0.6434,0.6428,0.641,0.641,0.641,0.641,0.641,0.641,0.641,0.6178,0.5772,0.5413,0.5022,0.4687,0.438,0.4101,0.363,0.3176,0.2858,2.5312,2.5086,2.4744,2.415,2.3545,2.3218,2.3101,2.3101,2.3101,2.3101,2.3081,2.2906,2.2506,2.1921,2.1343,2.1003,2.0789,2.0458,2.0294,2.0294,2.012,1.9908,1.9704,1.9395,1.8969,1.8531,1.8308,1.806,1.7765,1.7445,1.721,1.7051,1.6364,1.6004,1.6065,1.5585,1.5332,1.542,1.5332,1.5255,1.5109,1.5216,1.5342,1.5371,1.5215,1.5156,1.5137,1.4971,1.4747,1.4551,1.4521,1.4377,1.4114,1.4114,1.4114,1.4077,1.3926,1.3711,1.3513,1.3432,1.3267,1.2974,1.2946,1.2781,1.2395,1.234,1.2266,1.2119,1.1865,1.1834,1.2036,1.1889,1.177,1.1816,1.1798,1.1619,1.1169,1.0964,1.0681,1.0266,1.0302,1.0222,0.9682,0.9304,0.8945,0.8669,0.8626,0.8659,0.8448,0.8401,0.8227,0.784,0.7616,0.7283,0.6791,0.6625,0.6558,0.6465,0.641,0.641,0.6416,0.6416,0.641,0.641,0.641,0.6301,0.5977,0.5839,0.5582,0.5225,0.4707,0.4274,0.3625,0.3286,0.3098,2.5557,2.5254,2.5127,2.4617,2.3779,2.3457,2.3208,2.3101,2.3101,2.3101,2.3101,2.3101,2.2925,2.2607,2.1863,2.1434,2.1181,2.0898,2.0644,2.0391,2.0381,2.0198,1.9879,1.9734,1.9414,1.8997,1.8705,1.8373,1.8018,1.7715,1.7549,1.7441,1.6829,1.6398,1.6211,1.5811,1.5518,1.542,1.542,1.542,1.5381,1.5274,1.5313,1.5371,1.5293,1.5293,1.5381,1.5303,1.5166,1.4971,1.4951,1.4786,1.4449,1.4428,1.4416,1.4245,1.4063,1.3825,1.3523,1.3405,1.3212,1.2909,1.2854,1.2698,1.2367,1.2266,1.2211,1.2092,1.1844,1.1834,1.2,1.1844,1.1825,1.2064,1.2076,1.1902,1.1576,1.1528,1.1292,1.0762,1.0669,1.055,1.0389,1.0031,0.9611,0.9053,0.8935,0.8798,0.8501,0.8468,0.8397,0.7985,0.7902,0.7641,0.7059,0.6921,0.6799,0.6601,0.6538,0.652,0.6425,0.6416,0.641,0.641,0.641,0.6362,0.6179,0.6082,0.5945,0.5632,0.5125,0.4489,0.3976,0.3578,0.3311,2.5674,2.5586,2.5244,2.4646,2.3799,2.376,2.3516,2.314,2.3101,2.3101,2.3101,2.3101,2.3081,2.3013,2.2598,2.197,2.1318,2.1251,2.1036,2.0703,2.0576,2.0557,2.0498,2.0117,1.9845,1.966,1.9082,1.8506,1.8066,1.7988,1.7988,1.793,1.7504,1.709,1.6689,1.623,1.585,1.5498,1.543,1.542,1.542,1.542,1.5391,1.5381,1.5049,1.5049,1.5322,1.5029,1.499,1.5332,1.5332,1.5245,1.5138,1.5216,1.5011,1.4588,1.4522,1.422,1.3633,1.3495,1.3395,1.3259,1.3167,1.3075,1.2632,1.2567,1.2422,1.2138,1.203,1.2064,1.2092,1.2046,1.2036,1.2082,1.2076,1.2067,1.2026,1.1977,1.1803,1.1393,1.1242,1.1023,1.0525,1.0389,1.0115,0.9658,0.9439,0.9152,0.8659,0.8474,0.8375,0.8263,0.814,0.7957,0.737,0.7188,0.7072,0.689,0.6775,0.6732,0.6544,0.641,0.6416,0.6422,0.6416,0.6398,0.6343,0.6212,0.6014,0.573,0.5377,0.4833,0.4447,0.3937,0.3617,2.5684,2.5645,2.5254,2.493,2.456,2.4033,2.3701,2.3525,2.3208,2.3101,2.3101,2.3101,2.3101,2.3091,2.2945,2.2886,2.2818,2.2351,2.2034,2.1773,2.1005,2.0615,2.0586,2.0429,2.0166,1.9902,1.989,1.9351,1.8393,1.8154,1.8008,1.7939,1.7588,1.7295,1.7051,1.6447,1.6007,1.585,1.5566,1.542,1.543,1.542,1.542,1.541,1.5273,1.5254,1.541,1.5235,1.5264,1.541,1.5166,1.4981,1.4943,1.47,1.4449,1.4194,1.4138,1.402,1.3792,1.357,1.3375,1.3066,1.2974,1.2753,1.2404,1.2303,1.2248,1.2138,1.2076,1.2076,1.2076,1.2076,1.2076,1.2076,1.2076,1.2076,1.2076,1.2076,1.2002,1.1852,1.1803,1.1569,1.1124,1.0973,1.0719,1.009,0.971,0.9406,0.9099,0.885,0.8619,0.8507,0.8441,0.8357,0.8074,0.7647,0.7376,0.7182,0.7048,0.7036,0.6914,0.6558,0.6492,0.6558,0.6522,0.641,0.6389,0.6464,0.625,0.6076,0.5706,0.5341,0.4975,0.4473,0.4003,2.5684,2.5635,2.541,2.5195,2.5057,2.4453,2.4215,2.4163,2.3899,2.3821,2.396,2.3983,2.381,2.3647,2.3844,2.412,2.4335,2.3449,2.272,2.2155,2.1498,2.1005,2.0615,2.0615,2.041,2.0175,2.0266,1.9831,1.8887,1.8418,1.8223,1.8193,1.7793,1.751,1.7337,1.6799,1.6476,1.624,1.584,1.5625,1.5605,1.5478,1.542,1.542,1.542,1.542,1.541,1.5283,1.5283,1.5352,1.5137,1.498,1.4951,1.4661,1.4355,1.4148,1.4128,1.3981,1.3698,1.3439,1.3115,1.2706,1.256,1.2404,1.2294,1.233,1.234,1.2312,1.2285,1.2257,1.2128,1.2076,1.2076,1.2076,1.2076,1.2076,1.2076,1.2076,1.2076,1.2076,1.2051,1.1893,1.1644,1.1569,1.1234,1.066,1.0251,0.9961,0.9536,0.9211,0.8824,0.858,0.8501,0.8468,0.8292,0.7971,0.7727,0.7505,0.7407,0.737,0.7236,0.6866,0.669,0.6738,0.6647,0.6505,0.6496,0.6623,0.6579,0.6435,0.6211,0.5888,0.546,0.501,0.4535,2.5684,2.5684,2.5674,2.5478,2.5137,2.5,2.5039,2.4992,2.4985,2.5098,2.5317,2.5631,2.5115,2.4787,2.5189,2.5672,2.5416,2.4511,2.3288,2.203,2.2323,2.1929,2.0936,2.0712,2.0576,2.0517,2.0155,1.9754,1.9287,1.8889,1.8644,1.85,1.813,1.7773,1.7402,1.7305,1.7109,1.6728,1.6299,1.6095,1.6046,1.5664,1.5459,1.542,1.542,1.542,1.541,1.5059,1.5059,1.5332,1.5361,1.5381,1.5225,1.5071,1.4955,1.4569,1.455,1.4113,1.3421,1.3145,1.2887,1.2501,1.2245,1.2457,1.2706,1.2799,1.2817,1.2726,1.2689,1.2595,1.2275,1.2229,1.2159,1.2076,1.2076,1.2076,1.2076,1.2076,1.2076,1.211,1.2128,1.2119,1.2094,1.2154,1.1948,1.1549,1.1141,1.0707,1.006,0.9699,0.9106,0.8533,0.8533,0.8705,0.8501,0.8276,0.8066,0.7897,0.7835,0.7766,0.7573,0.729,0.7197,0.7185,0.6867,0.6709,0.6553,0.666,0.6751,0.6631,0.649,0.6349,0.5963,0.5526,0.5072,2.5684,2.5684,2.5684,2.5615,2.5488,2.5195,2.5108,2.5079,2.5104,2.522,2.5368,2.5677,2.5652,2.5495,2.5694,2.5819,2.5808,2.5945,2.5628,2.4759,2.385,2.3152,2.2524,2.125,2.0603,2.0613,2.0712,2.0366,1.9794,1.952,1.9183,1.8625,1.8223,1.7959,1.7836,1.7539,1.7285,1.7158,1.6748,1.6387,1.6124,1.5968,1.5732,1.5449,1.542,1.542,1.541,1.5283,1.5283,1.5381,1.5137,1.4844,1.4591,1.4458,1.4391,1.4284,1.4245,1.4303,1.4181,1.3842,1.3559,1.339,1.3171,1.3081,1.3102,1.3176,1.3158,1.313,1.3121,1.3056,1.2947,1.291,1.2698,1.214,1.2076,1.2147,1.2174,1.2147,1.2076,1.2138,1.234,1.2487,1.2569,1.2689,1.2784,1.2581,1.2061,1.1444,1.1119,1.0475,0.9699,0.8877,0.9001,0.9029,0.8825,0.8599,0.8351,0.8209,0.8151,0.81,0.7916,0.7791,0.771,0.7459,0.7165,0.6915,0.6757,0.6723,0.6808,0.6851,0.6775,0.6611,0.6401,0.6077,0.564,2.5684,2.5684,2.5684,2.5917,2.6215,2.5974,2.6215,2.6593,2.6277,2.6354,2.6657,2.6572,2.6454,2.6362,2.6329,2.6329,2.637,2.6958,2.7215,2.6981,2.5564,2.4437,2.3585,2.1904,2.1052,2.1104,2.1251,2.1107,2.0637,2.039,2.0189,1.9905,1.9072,1.8688,1.8628,1.8225,1.7906,1.7615,1.7197,1.6836,1.6582,1.6427,1.6191,1.5918,1.5742,1.5654,1.5635,1.5508,1.542,1.5371,1.5146,1.4883,1.4611,1.4611,1.4582,1.4591,1.4601,1.4707,1.4824,1.4414,1.4133,1.408,1.3838,1.369,1.3645,1.37,1.3783,1.3562,1.3516,1.3451,1.3314,1.3286,1.3039,1.2643,1.2562,1.2525,1.2551,1.256,1.2569,1.2643,1.2764,1.2874,1.2975,1.3075,1.3286,1.3195,1.2797,1.2202,1.1921,1.1332,1.0696,1.0026,0.9554,0.945,0.9212,0.8944,0.8652,0.8534,0.8429,0.8357,0.8221,0.8202,0.8132,0.7712,0.7379,0.7102,0.6922,0.6862,0.6893,0.695,0.6976,0.6851,0.6678,0.6624,0.626,2.5684,2.5684,2.5781,2.6322,2.7094,2.7195,2.7854,2.8925,2.8321,2.8316,2.8796,2.8182,2.7697,2.7393,2.7301,2.7255,2.7307,2.7348,2.7753,2.7881,2.7014,2.5704,2.3896,2.2718,2.2122,2.1907,2.1989,2.1941,2.1765,2.1508,2.1574,2.1804,2.0537,1.9806,1.9705,1.9295,1.8654,1.8127,1.7654,1.7393,1.7328,1.6973,1.6687,1.6609,1.6289,1.6134,1.6085,1.5742,1.5469,1.543,1.5381,1.5332,1.5371,1.54,1.5322,1.5264,1.5381,1.5342,1.5255,1.484,1.4468,1.441,1.4242,1.4101,1.4194,1.4399,1.4396,1.4013,1.3948,1.3819,1.3525,1.3461,1.3415,1.3378,1.3222,1.3176,1.3259,1.3259,1.3176,1.3195,1.3286,1.3323,1.3332,1.3387,1.3461,1.3442,1.3378,1.2959,1.2643,1.2378,1.2501,1.1856,1.0969,1.0267,1.0151,0.9665,0.9391,0.9194,0.8937,0.8605,0.8526,0.8501,0.8443,0.8019,0.7693,0.738,0.7168,0.7131,0.7067,0.7054,0.7049,0.7012,0.6952,0.6843,0.6749,2.5684,2.5771,2.6514,2.6962,2.7332,2.7981,2.8511,2.8909,2.9026,2.9131,2.9285,2.9064,2.8757,2.8714,2.8293,2.8139,2.8099,2.8139,2.8219,2.8419,2.818,2.6683,2.4945,2.4243,2.3537,2.2863,2.3106,2.3243,2.2717,2.2742,2.2653,2.2276,2.1623,2.095,2.0591,1.9978,1.9321,1.8728,1.8156,1.7676,1.7422,1.7305,1.7051,1.6707,1.659,1.6553,1.6514,1.6123,1.5752,1.5439,1.542,1.542,1.542,1.542,1.542,1.542,1.542,1.542,1.5362,1.5216,1.5061,1.4975,1.4754,1.4742,1.4771,1.4639,1.459,1.4449,1.442,1.4295,1.4194,1.4157,1.4138,1.4083,1.3699,1.3369,1.3351,1.3296,1.3296,1.3314,1.3589,1.3699,1.3782,1.3947,1.4112,1.4084,1.391,1.3745,1.3451,1.3232,1.3184,1.3361,1.2745,1.1771,1.1082,1.0565,1.0199,0.9967,0.9522,0.887,0.8744,0.8639,0.8534,0.8318,0.8209,0.794,0.7639,0.7484,0.7385,0.7267,0.7183,0.716,0.7053,0.6965,0.6944,2.5684,2.5781,2.6781,2.7474,2.7934,2.8912,2.9567,2.9886,2.9782,2.9873,2.9866,2.9249,2.9112,2.9256,2.8751,2.8522,2.851,2.851,2.851,2.851,2.8459,2.7552,2.6194,2.5428,2.4482,2.3888,2.3993,2.3841,2.3529,2.3667,2.3635,2.3508,2.277,2.2283,2.1968,2.0789,1.9978,1.9276,1.8514,1.7871,1.7666,1.7646,1.7549,1.7223,1.7087,1.6953,1.6697,1.6475,1.6064,1.5576,1.542,1.542,1.542,1.542,1.542,1.542,1.542,1.542,1.5391,1.5362,1.5303,1.5254,1.5117,1.5009,1.4931,1.4734,1.4606,1.4567,1.4536,1.4515,1.4485,1.4485,1.4485,1.4394,1.4084,1.3809,1.38,1.3837,1.3809,1.3864,1.3992,1.4148,1.4148,1.4378,1.4478,1.443,1.4286,1.4286,1.4266,1.4011,1.3808,1.3921,1.3671,1.2601,1.1958,1.1502,1.0679,1.0429,0.9932,0.926,0.8897,0.8778,0.8685,0.8591,0.8591,0.8472,0.8127,0.7825,0.7673,0.7563,0.7433,0.7326,0.7275,0.7193,0.7173,2.5684,2.5791,2.6877,2.7876,2.8773,2.9886,3.0767,3.1339,3.0732,3.0599,3.0624,2.9476,2.9282,2.9364,2.8943,2.8595,2.8522,2.851,2.851,2.851,2.8486,2.8083,2.7487,2.6174,2.5347,2.4946,2.4494,2.4345,2.4276,2.4266,2.4612,2.4661,2.3991,2.3618,2.319,2.198,2.0868,2.0043,1.8957,1.8339,1.8118,1.8031,1.7891,1.7832,1.7588,1.7305,1.7009,1.6785,1.6473,1.5732,1.5566,1.5527,1.5508,1.5478,1.542,1.542,1.542,1.542,1.5391,1.5313,1.5293,1.5303,1.5176,1.5039,1.5029,1.4843,1.4666,1.4654,1.4536,1.4515,1.4485,1.4485,1.4485,1.4476,1.4469,1.4467,1.4485,1.4485,1.4485,1.4485,1.4497,1.4485,1.4485,1.4485,1.4485,1.4485,1.4423,1.4442,1.4458,1.4293,1.424,1.433,1.3843,1.3136,1.2748,1.2471,1.1501,1.0776,1.0207,0.9595,0.9058,0.8871,0.8805,0.8745,0.8704,0.8624,0.8477,0.8218,0.8019,0.7892,0.7772,0.7689,0.7618,0.7542,0.7486,2.5684,2.583,2.7626,2.8495,2.8958,3.0588,3.1484,3.1661,3.1472,3.1344,3.1328,3.0687,3.0204,2.9881,2.9328,2.8919,2.8546,2.851,2.851,2.851,2.851,2.8474,2.817,2.7314,2.6635,2.6039,2.5754,2.5445,2.5135,2.5004,2.5087,2.5158,2.498,2.4683,2.4128,2.3271,2.2412,2.1386,2.0124,1.9203,1.8724,1.8377,1.8139,1.8066,1.7968,1.7842,1.7695,1.7422,1.7314,1.7178,1.6514,1.6007,1.5908,1.5654,1.5518,1.5518,1.5478,1.5449,1.543,1.543,1.5352,1.5362,1.5293,1.5205,1.5274,1.495,1.4793,1.4793,1.4654,1.4561,1.4616,1.4513,1.4598,1.4625,1.4549,1.4522,1.4494,1.4494,1.4485,1.4485,1.4485,1.4485,1.4485,1.4485,1.4485,1.4485,1.4485,1.4485,1.4485,1.4485,1.4485,1.4485,1.413,1.3531,1.338,1.3003,1.2191,1.1325,1.069,1.035,0.9785,0.8938,0.8878,0.8844,0.8778,0.8697,0.8617,0.8504,0.8277,0.8203,0.813,0.8003,0.7896,0.7832,0.7739,2.7115,2.7247,2.8773,2.9429,2.9658,3.1015,3.1705,3.1705,3.1705,3.1705,3.1597,3.1151,3.0633,3.005,2.9532,2.9003,2.8619,2.851,2.851,2.851,2.851,2.851,2.8486,2.817,2.7633,2.6863,2.6249,2.5937,2.5697,2.5444,2.5276,2.5312,2.5312,2.5097,2.4751,2.4015,2.3214,2.2537,2.1369,2.0292,1.9471,1.9399,1.8927,1.8569,1.8462,1.8371,1.7993,1.7803,1.7812,1.7734,1.72,1.6662,1.6533,1.624,1.6015,1.6005,1.5995,1.5898,1.5801,1.5733,1.5625,1.5449,1.5458,1.5399,1.536,1.5142,1.5125,1.5113,1.499,1.4906,1.5029,1.5074,1.5065,1.5019,1.4891,1.479,1.4753,1.4634,1.4485,1.4485,1.4485,1.4485,1.4485,1.4513,1.4494,1.4494,1.4513,1.4513,1.4485,1.4485,1.4485,1.444,1.4277,1.4014,1.3909,1.3488,1.281,1.2046,1.1373,1.1202,1.0962,0.9931,0.8958,0.8938,0.8937,0.8798,0.8717,0.8611,0.8583,0.8537,0.8425,0.8278,0.8196,0.815,0.8023,2.868,2.8773,2.9795,3.0215,3.0362,3.1294,3.1705,3.1705,3.1705,3.1705,3.1645,3.1211,3.0766,3.0098,2.9665,2.9112,2.8643,2.851,2.851,2.851,2.851,2.851,2.8486,2.8402,2.8222,2.7702,2.6935,2.6406,2.5997,2.5673,2.5456,2.5348,2.5312,2.5276,2.5027,2.439,2.3781,2.3445,2.2512,2.1499,2.0471,2.0479,1.983,1.9116,1.8911,1.8821,1.8462,1.8196,1.8066,1.8124,1.7733,1.7432,1.7194,1.6882,1.6697,1.6668,1.659,1.6424,1.623,1.6173,1.6016,1.5644,1.5817,1.5794,1.5629,1.5653,1.5673,1.5566,1.5461,1.5429,1.5675,1.5652,1.5638,1.5592,1.5344,1.516,1.5029,1.4723,1.4522,1.4485,1.4485,1.4485,1.454,1.4577,1.457,1.4552,1.457,1.4561,1.4504,1.4504,1.4504,1.4405,1.4212,1.4066,1.3952,1.4037,1.3353,1.2722,1.2037,1.1803,1.1823,1.1337,1.0369,0.9308,0.9097,0.8957,0.8818,0.8738,0.8731,0.8778,0.8744,0.8564,0.8484,0.8469,0.8303,2.868,2.8773,2.9795,3.0215,3.0362,3.1282,3.1705,3.1705,3.1705,3.1705,3.1693,3.1597,3.0995,3.0254,3.0037,2.9424,2.8703,2.851,2.851,2.851,2.851,2.851,2.851,2.851,2.8438,2.827,2.7669,2.7007,2.6346,2.5985,2.5709,2.542,2.5312,2.5312,2.5252,2.5027,2.4624,2.4282,2.3572,2.2798,2.2002,2.0933,2.0082,1.9368,1.9349,1.9374,1.9353,1.863,1.8236,1.871,1.8224,1.7948,1.7729,1.7191,1.6833,1.6804,1.6824,1.6785,1.6619,1.659,1.656,1.6512,1.651,1.6498,1.642,1.6365,1.6328,1.6221,1.604,1.5895,1.5721,1.5947,1.5905,1.573,1.5577,1.5349,1.5173,1.4845,1.4568,1.4568,1.454,1.4494,1.454,1.4616,1.4616,1.4662,1.4763,1.4623,1.4494,1.4522,1.4579,1.4387,1.4148,1.4011,1.3901,1.4118,1.3924,1.335,1.2726,1.2132,1.2215,1.2535,1.1927,1.035,0.9381,0.9084,0.8944,0.8844,0.8778,0.8778,0.8798,0.8784,0.8704,0.8617,0.8683,3.0272,3.0306,3.0767,3.097,3.1059,3.1472,3.1705,3.1705,3.1705,3.1705,3.1705,3.1657,3.1127,3.0314,3.0086,2.9508,2.8739,2.851,2.851,2.851,2.851,2.851,2.851,2.851,2.851,2.8438,2.8186,2.7729,2.6898,2.6322,2.6021,2.5733,2.5468,2.5312,2.5312,2.5252,2.5132,2.4822,2.4565,2.3945,2.3156,2.1786,2.1072,2.0621,2.0391,2.0358,1.9889,1.9616,1.9253,1.9375,1.8877,1.8586,1.8265,1.7876,1.7383,1.7363,1.7321,1.7223,1.7087,1.7028,1.6941,1.6746,1.6892,1.6902,1.6833,1.6821,1.6889,1.684,1.6897,1.6698,1.655,1.6561,1.6555,1.6448,1.6109,1.5896,1.5706,1.5179,1.4909,1.4763,1.4613,1.4549,1.4533,1.4579,1.4634,1.4753,1.49,1.4778,1.4586,1.4662,1.4744,1.4451,1.4203,1.3901,1.3818,1.3973,1.4209,1.3764,1.3341,1.2735,1.236,1.2605,1.1935,1.0653,0.9956,0.9764,0.9079,0.8971,0.8865,0.8811,0.8824,0.885,0.8804,0.8804,0.8804,3.1705,3.1705,3.1705,3.1705,3.1705,3.1705,3.1705,3.1705,3.1705,3.1705,3.1705,3.1669,3.1187,3.0386,2.9917,2.9388,2.8546,2.851,2.851,2.851,2.851,2.851,2.851,2.851,2.851,2.851,2.8462,2.8246,2.7534,2.6935,2.6418,2.6009,2.5624,2.5372,2.5336,2.5312,2.5312,2.5312,2.5264,2.4661,2.3677,2.3201,2.2716,2.2075,2.1983,2.1435,2.0968,2.0183,2.0107,2.0031,1.9671,1.9133,1.8944,1.8486,1.8134,1.8052,1.8008,1.7803,1.7627,1.751,1.7393,1.7178,1.7353,1.7275,1.7217,1.7321,1.7444,1.7326,1.7355,1.7375,1.7182,1.7242,1.7198,1.7036,1.6708,1.6391,1.6178,1.5776,1.5265,1.5032,1.4781,1.4643,1.4588,1.4708,1.479,1.4708,1.4824,1.5148,1.4983,1.4992,1.4955,1.4607,1.4268,1.3892,1.3736,1.3782,1.4,1.4003,1.3675,1.3263,1.2802,1.253,1.1781,1.1282,1.1382,1.1082,1.0109,0.9126,0.9106,0.9071,0.8963,0.8883,0.8831,0.8831,0.8831,3.1705,3.1705,3.1705,3.1705,3.1705,3.1705,3.1705,3.1705,3.1705,3.1705,3.1705,3.1681,3.1368,3.0706,2.9749,2.91,2.8691,2.851,2.851,2.851,2.851,2.851,2.851,2.851,2.851,2.851,2.851,2.821,2.7798,2.7548,2.6995,2.6346,2.6117,2.5805,2.5444,2.5432,2.5312,2.5324,2.5312,2.4743,2.3886,2.4012,2.3613,2.2852,2.2336,2.2201,2.2203,2.1331,2.0716,2.0982,2.0378,1.9682,1.9144,1.8977,1.8563,1.8202,1.7998,1.7978,1.79,1.7861,1.7842,1.7695,1.7842,1.7881,1.7783,1.7764,1.7794,1.7629,1.7662,1.7613,1.7495,1.747,1.7348,1.721,1.6989,1.6667,1.6442,1.6453,1.5905,1.5389,1.5186,1.4839,1.4643,1.4818,1.4915,1.4815,1.4796,1.5111,1.5221,1.5102,1.4845,1.4423,1.4433,1.4093,1.3791,1.38,1.3873,1.4066,1.3829,1.3589,1.3083,1.2657,1.2704,1.2381,1.2446,1.1837,1.0442,0.9673,0.9491,0.9327,0.9232,0.9057,0.8857,0.8857,0.8883,3.1705,3.1705,3.1705,3.1705,3.1705,3.1705,3.1705,3.1705,3.1705,3.1705,3.1705,3.1705,3.1416,3.0747,2.9773,2.9196,2.8919,2.8643,2.851,2.851,2.851,2.851,2.851,2.851,2.851,2.851,2.8498,2.845,2.8126,2.7837,2.7392,2.7055,2.6683,2.631,2.5817,2.5757,2.5564,2.542,2.5264,2.5051,2.4731,2.4706,2.456,2.374,2.3447,2.3411,2.3138,2.2852,2.2337,2.2441,2.1745,2.1027,2.0402,1.9699,1.8811,1.862,1.8202,1.7998,1.7998,1.8008,1.8008,1.8008,1.8008,1.7978,1.8008,1.8008,1.7974,1.7852,1.7862,1.7794,1.7657,1.7623,1.752,1.7375,1.7218,1.7122,1.6902,1.6846,1.6594,1.6062,1.5553,1.5232,1.4915,1.479,1.4845,1.4696,1.4705,1.4937,1.4937,1.4753,1.4442,1.4038,1.4222,1.4387,1.4085,1.3911,1.3882,1.3947,1.369,1.3409,1.3056,1.2822,1.2969,1.2872,1.2636,1.1786,1.0647,1.0296,1.0188,0.9837,0.9477,0.932,0.9137,0.8956,0.9008,3.1705,3.1705,3.1705,3.1705,3.1705,3.1705,3.1705,3.1705,3.1705,3.1705,3.1705,3.1693,3.1416,3.0783,2.9977,2.9448,2.9244,2.8751,2.8558,2.851,2.851,2.851,2.851,2.851,2.851,2.851,2.851,2.8474,2.8366,2.8138,2.7885,2.7717,2.7246,2.6839,2.6442,2.6262,2.6093,2.56,2.5396,2.5264,2.5193,2.524,2.5024,2.4748,2.4532,2.435,2.4025,2.3727,2.3713,2.3472,2.2893,2.2275,2.1776,2.0908,2.0012,1.9613,1.9022,1.8534,1.8329,1.8178,1.811,1.8144,1.8042,1.8008,1.8008,1.8008,1.8008,1.7974,1.7974,1.7896,1.7818,1.775,1.7647,1.7554,1.7432,1.7461,1.7451,1.7353,1.7096,1.6539,1.6062,1.5705,1.5346,1.4912,1.4726,1.4616,1.4671,1.4808,1.4732,1.4613,1.4522,1.4275,1.4401,1.4592,1.4323,1.4084,1.4038,1.3947,1.369,1.3597,1.347,1.3348,1.3409,1.3205,1.2964,1.2758,1.2247,1.1554,1.0878,1.0464,1.0061,0.9701,0.9462,0.9256,0.9113,3.1705,3.1705,3.1705,3.1705,3.1705,3.1705,3.1705,3.1705,3.1705,3.1705,3.1705,3.1681,3.1416,3.0898,3.035,2.9785,2.9292,2.8751,2.8582,2.8534,2.851,2.851,2.851,2.851,2.851,2.851,2.851,2.851,2.8498,2.8426,2.8062,2.7738,2.7678,2.7344,2.6995,2.6755,2.6489,2.6033,2.5673,2.5408,2.5372,2.5348,2.5264,2.5131,2.4795,2.446,2.4446,2.4145,2.3998,2.3965,2.3664,2.329,2.2783,2.2161,2.1475,2.0794,2.0075,1.9575,1.9229,1.8576,1.8405,1.8529,1.8462,1.81,1.8008,1.8008,1.8008,1.8008,1.8008,1.8008,1.7896,1.7828,1.775,1.7647,1.7588,1.7564,1.7632,1.7803,1.749,1.7016,1.66,1.6252,1.589,1.546,1.4949,1.479,1.4561,1.468,1.4848,1.4812,1.4912,1.4827,1.4851,1.4827,1.454,1.4366,1.4295,1.4277,1.4148,1.4194,1.4234,1.4134,1.3876,1.3858,1.371,1.3775,1.3679,1.2684,1.1804,1.1127,1.0659,1.0436,0.9994,0.965,0.9458,3.1705,3.1705,3.1705,3.1705,3.1705,3.1705,3.1705,3.1705,3.1705,3.1705,3.1705,3.1693,3.1597,3.1284,3.0807,3.0278,2.9761,2.9232,2.8871,2.8582,2.851,2.851,2.851,2.8534,2.851,2.851,2.851,2.851,2.851,2.851,2.8438,2.8246,2.8162,2.7861,2.7536,2.7102,2.6801,2.6537,2.6117,2.5805,2.5733,2.5444,2.5312,2.5276,2.5192,2.5011,2.4975,2.4843,2.4747,2.4626,2.4386,2.4062,2.3671,2.3199,2.2604,2.2015,2.1346,2.0838,2.0286,1.9396,1.8798,1.8811,1.871,1.8458,1.8174,1.8047,1.8018,1.8008,1.8057,1.8125,1.7993,1.794,1.7862,1.7784,1.7716,1.7725,1.7769,1.7906,1.7867,1.736,1.7073,1.6769,1.6411,1.6056,1.5488,1.5004,1.4735,1.457,1.4751,1.4848,1.4866,1.4876,1.4845,1.4808,1.454,1.4485,1.4485,1.4485,1.4485,1.4485,1.4485,1.4467,1.4273,1.4321,1.4324,1.4194,1.3936,1.3426,1.2838,1.2324,1.1794,1.1347,1.0809,1.0102,0.9791,3.1705,3.1705,3.1705,3.1705,3.1705,3.1705,3.1705,3.1705,3.1705,3.1705,3.1705,3.1705,3.1705,3.156,3.1139,3.0754,3.0242,2.9797,2.9376,2.91,2.8919,2.8775,2.8703,2.8607,2.851,2.851,2.851,2.851,2.851,2.851,2.8474,2.8474,2.8486,2.8222,2.7957,2.7426,2.7138,2.7006,2.6633,2.6358,2.6286,2.5853,2.5576,2.5528,2.5396,2.5264,2.524,2.518,2.5204,2.5107,2.4963,2.4783,2.4454,2.4011,2.3488,2.3086,2.2674,2.2179,2.157,2.0696,1.9651,1.9596,1.9541,1.9085,1.8621,1.8389,1.8516,1.8477,1.8437,1.834,1.8262,1.8208,1.8056,1.7959,1.7906,1.7872,1.7872,1.794,1.7906,1.7741,1.749,1.7235,1.6949,1.6539,1.5862,1.5324,1.4986,1.4729,1.466,1.4683,1.4613,1.4613,1.4595,1.4558,1.4485,1.4485,1.4485,1.4485,1.4485,1.4485,1.4485,1.4485,1.4515,1.446,1.4446,1.4449,1.4313,1.4057,1.3866,1.3615,1.3,1.2321,1.1217,1.0512,1.0046,3.1705,3.1705,3.1705,3.1705,3.1705,3.1705,3.1705,3.1705,3.1705,3.1705,3.1705,3.1705,3.1705,3.1609,3.1223,3.0903,3.073,3.029,2.9965,2.9773,2.9436,2.9316,2.9076,2.8859,2.8619,2.8522,2.851,2.851,2.851,2.851,2.851,2.851,2.8498,2.8474,2.8426,2.7969,2.7678,2.7633,2.7138,2.6934,2.6791,2.637,2.6129,2.6009,2.5661,2.548,2.548,2.5348,2.5324,2.5264,2.5252,2.5155,2.5049,2.5049,2.4705,2.4336,2.3804,2.326,2.2719,2.1897,2.1231,2.0673,2.0639,2.0191,1.9537,1.9288,1.9272,1.9257,1.9125,1.8997,1.8789,1.8578,1.8383,1.8247,1.8223,1.8086,1.8061,1.7974,1.794,1.794,1.7794,1.7624,1.7398,1.7016,1.6276,1.5728,1.5305,1.5019,1.4851,1.4762,1.476,1.4565,1.4565,1.4515,1.4515,1.4515,1.4485,1.4485,1.4485,1.4485,1.4485,1.4485,1.4515,1.4515,1.4597,1.465,1.4767,1.4834,1.4617,1.4333,1.3853,1.3102,1.1938,1.092,1.0451,3.1705,3.1705,3.1705,3.1705,3.1705,3.1705,3.1705,3.1705,3.1705,3.1705,3.1705,3.1705,3.1705,3.1621,3.1512,3.1247,3.091,3.0814,3.0518,3.011,2.9905,2.9593,2.9352,2.9172,2.8859,2.8595,2.851,2.8546,2.851,2.851,2.851,2.851,2.851,2.851,2.8486,2.8294,2.8246,2.815,2.7726,2.7402,2.7392,2.6959,2.6647,2.6622,2.6129,2.5841,2.5769,2.554,2.5372,2.5324,2.5312,2.5312,2.5312,2.5312,2.5228,2.5012,2.4672,2.466,2.426,2.3675,2.2826,2.2302,2.1847,2.1334,2.0349,2.0135,2.0099,2.0006,1.976,1.9647,1.9753,1.9278,1.9007,1.8789,1.8662,1.8354,1.8227,1.8061,1.7974,1.7974,1.7896,1.7784,1.7605,1.746,1.6859,1.6491,1.6121,1.5635,1.5418,1.5276,1.5212,1.4782,1.4627,1.4586,1.4536,1.4533,1.4533,1.4485,1.4485,1.4485,1.4485,1.4515,1.4545,1.4575,1.4684,1.4832,1.497,1.5069,1.5167,1.4955,1.4439,1.3986,1.3089,1.1908,1.0841,3.1705,3.1705,3.1705,3.1705,3.1705,3.1705,3.1705,3.1705,3.1705,3.1705,3.1705,3.1705,3.1705,3.1705,3.1669,3.1597,3.1187,3.1175,3.1127,3.0657,3.041,3.0206,2.9941,2.9605,2.9292,2.8919,2.8763,2.8751,2.8522,2.851,2.851,2.851,2.851,2.851,2.8498,2.8474,2.8462,2.8366,2.8062,2.7954,2.7798,2.7498,2.7162,2.7018,2.6707,2.6298,2.6069,2.5793,2.5504,2.5396,2.5312,2.5312,2.5312,2.5312,2.5312,2.5312,2.5312,2.5252,2.5028,2.4827,2.4085,2.3711,2.3398,2.262,2.1661,2.1479,2.1458,2.1193,2.0563,2.0633,2.0849,2.0317,1.9905,1.9673,1.9424,1.9133,1.8748,1.8636,1.8357,1.8323,1.8042,1.793,1.7828,1.7711,1.7417,1.7183,1.6949,1.6459,1.598,1.5848,1.5699,1.5351,1.5016,1.4972,1.4847,1.4618,1.457,1.4494,1.46,1.4685,1.4595,1.4645,1.4625,1.4604,1.4743,1.4882,1.5108,1.5235,1.5294,1.5245,1.4946,1.4496,1.4081,1.3076,1.1822,3.1705,3.1705,3.1705,3.1705,3.1705,3.1705,3.1705,3.1705,3.1705,3.1705,3.1705,3.1705,3.1705,3.1705,3.1705,3.1681,3.1621,3.1621,3.1573,3.1464,3.1091,3.091,3.0645,3.0278,2.9821,2.9484,2.928,2.91,2.8631,2.851,2.851,2.851,2.851,2.851,2.851,2.851,2.851,2.8462,2.8426,2.8342,2.8222,2.7954,2.7738,2.7546,2.726,2.6791,2.6466,2.6129,2.5793,2.5552,2.5336,2.5324,2.5312,2.5312,2.5312,2.5312,2.5312,2.5312,2.5276,2.5123,2.5146,2.4731,2.4413,2.3761,2.3183,2.2758,2.2739,2.2505,2.2041,2.2138,2.2165,2.1611,2.1058,2.0782,2.0488,2.0101,1.9638,1.9328,1.9014,1.8704,1.8255,1.8042,1.794,1.7842,1.7779,1.7702,1.7456,1.7229,1.6805,1.6471,1.6268,1.6014,1.5732,1.5495,1.5281,1.5102,1.5053,1.5139,1.5049,1.5079,1.4941,1.4885,1.493,1.4978,1.4859,1.4941,1.5186,1.5332,1.5381,1.5264,1.5158,1.4984,1.4563,1.4173,1.3171,3.1705,3.1705,3.1705,3.1705,3.1705,3.1705,3.1705,3.1705,3.1705,3.1705,3.1705,3.1705,3.1705,3.1705,3.1705,3.1705,3.1705,3.1705,3.1705,3.1609,3.1488,3.1223,3.0983,3.0742,3.0356,3.0025,2.9785,2.9593,2.91,2.8787,2.8546,2.851,2.8522,2.8522,2.851,2.851,2.851,2.851,2.851,2.851,2.851,2.8318,2.821,2.8077,2.7726,2.7344,2.7115,2.649,2.6129,2.5925,2.5516,2.5348,2.5312,2.5312,2.5312,2.5312,2.5312,2.5312,2.5312,2.5312,2.5312,2.5312,2.5016,2.46,2.4036,2.3793,2.3793,2.3537,2.3169,2.2996,2.31,2.2757,2.2327,2.2038,2.1764,2.1452,2.1007,2.0572,2.0163,1.9188,1.8727,1.8178,1.8076,1.7974,1.791,1.793,1.7915,1.7716,1.7498,1.7161,1.6915,1.6654,1.6335,1.6097,1.5977,1.5823,1.5773,1.5754,1.5635,1.56,1.5638,1.5581,1.5468,1.5366,1.5294,1.5271,1.5323,1.5381,1.542,1.542,1.5313,1.5206,1.5052,1.4647,1.4246,3.1705,3.1705,3.1705,3.1705,3.1705,3.1705,3.1705,3.1705,3.1705,3.1705,3.1705,3.1705,3.1705,3.1705,3.1705,3.1705,3.1705,3.1705,3.1705,3.1705,3.1705,3.1512,3.1296,3.1175,3.0867,3.0579,3.0314,3.0134,2.9605,2.9136,2.8835,2.8835,2.8679,2.8546,2.851,2.851,2.851,2.851,2.851,2.851,2.851,2.851,2.851,2.845,2.8126,2.793,2.7666,2.6923,2.6695,2.6478,2.6033,2.5829,2.5673,2.5468,2.5324,2.5312,2.5312,2.5312,2.5312,2.5312,2.5312,2.5312,2.5312,2.504,2.4826,2.4576,2.4576,2.4456,2.3938,2.3624,2.3818,2.3963,2.3661,2.3382,2.3128,2.2909,2.2451,2.2026,2.1058,1.9905,1.9121,1.846,1.8168,1.8066,1.8008,1.8008,1.8008,1.7915,1.7828,1.7672,1.7506,1.7338,1.6979,1.6661,1.659,1.6459,1.6271,1.6186,1.6144,1.6125,1.6291,1.6274,1.6114,1.5934,1.5774,1.5731,1.5664,1.5469,1.542,1.542,1.542,1.5323,1.5264,1.5129,1.4714,3.1633,3.1633,3.1681,3.1705,3.1705,3.1705,3.1705,3.1705,3.1705,3.1705,3.1705,3.1705,3.1705,3.1705,3.1705,3.1705,3.1705,3.1705,3.1705,3.1705,3.1705,3.1621,3.1633,3.1657,3.1332,3.1091,3.091,3.0675,3.0146,2.9665,2.9352,2.9328,2.8991,2.8859,2.8907,2.8739,2.8727,2.8715,2.8595,2.851,2.851,2.851,2.851,2.851,2.8414,2.8254,2.7894,2.7618,2.7462,2.7126,2.6801,2.6574,2.6202,2.5817,2.5601,2.5588,2.5649,2.5624,2.56,2.5552,2.5384,2.5348,2.5276,2.5229,2.5123,2.5052,2.5016,2.4969,2.4492,2.442,2.46,2.4528,2.4301,2.4264,2.4186,2.3989,2.3664,2.2983,2.1946,2.0852,1.9938,1.9238,1.8428,1.8395,1.8395,1.8236,1.8008,1.8008,1.8114,1.8075,1.7968,1.7866,1.7537,1.7228,1.7133,1.6971,1.6653,1.6571,1.6626,1.6757,1.6931,1.687,1.6775,1.6626,1.6478,1.6161,1.5997,1.5791,1.5557,1.542,1.542,1.542,1.5391,1.5362,1.5196,3.1103,3.1151,3.1536,3.1705,3.1705,3.1705,3.1705,3.1705,3.1705,3.1705,3.1705,3.1705,3.1705,3.1705,3.1705,3.1705,3.1705,3.1705,3.1705,3.1705,3.1705,3.1705,3.1705,3.1705,3.1597,3.1585,3.144,3.1211,3.0675,3.0206,2.9893,2.9893,2.9629,2.9544,2.952,2.9316,2.9112,2.9088,2.8847,2.8703,2.8679,2.857,2.851,2.851,2.8474,2.8462,2.8174,2.787,2.7714,2.7474,2.7078,2.6849,2.6693,2.6549,2.6501,2.6489,2.6369,2.6262,2.6081,2.5925,2.5769,2.5468,2.5372,2.5336,2.5276,2.5312,2.5276,2.5229,2.5194,2.5194,2.5158,2.504,2.4933,2.504,2.5111,2.4933,2.4755,2.3816,2.2788,2.1868,2.0884,2.0012,1.9145,1.8787,1.8744,1.8553,1.8178,1.811,1.8428,1.8465,1.8307,1.8166,1.7983,1.7745,1.7653,1.7532,1.722,1.7272,1.7397,1.7498,1.7537,1.7375,1.7236,1.7272,1.7174,1.6748,1.6359,1.6085,1.588,1.5625,1.5508,1.5566,1.5576,1.5546,1.542,3.0922,3.0983,3.1476,3.1705,3.1705,3.1705,3.1705,3.1705,3.1705,3.1705,3.1705,3.1705,3.1705,3.1705,3.1705,3.1705,3.1705,3.1705,3.1705,3.1705,3.1705,3.1705,3.1705,3.1705,3.1693,3.1705,3.1693,3.1476,3.1132,3.0735,3.0434,3.0398,3.0302,3.0134,3.0074,2.9785,2.9653,2.9641,2.9292,2.9172,2.9051,2.8835,2.8558,2.851,2.851,2.851,2.845,2.821,2.8138,2.7894,2.7546,2.7546,2.739,2.709,2.6885,2.6837,2.6777,2.6741,2.6562,2.6406,2.625,2.5949,2.5793,2.5901,2.5648,2.5612,2.5336,2.5241,2.5241,2.5276,2.5276,2.5158,2.5158,2.5194,2.5229,2.5146,2.4931,2.4364,2.3549,2.2811,2.1857,2.093,2.0169,1.9581,1.956,1.9474,1.9021,1.8731,1.8944,1.9011,1.8798,1.8539,1.8371,1.81,1.7886,1.7867,1.7794,1.7915,1.8008,1.7896,1.7779,1.7711,1.7686,1.7656,1.751,1.7139,1.6789,1.6515,1.6173,1.5919,1.5801,1.5753,1.5723,1.5711,1.5643,3.0778,3.0983,3.1404,3.1657,3.1705,3.1705,3.1705,3.1705,3.1705,3.1705,3.1705,3.1705,3.1705,3.1705,3.1705,3.1705,3.1705,3.1705,3.1705,3.1705,3.1705,3.1705,3.1705,3.1705,3.1705,3.1705,3.1705,3.1705,3.1597,3.1235,3.0995,3.0922,3.0669,3.0314,3.0278,3.0218,3.0194,3.0134,2.9989,3.0001,2.9653,2.9172,2.8823,2.8643,2.8534,2.8522,2.851,2.851,2.8486,2.8342,2.8065,2.8089,2.8029,2.7678,2.7426,2.7318,2.7342,2.72,2.6971,2.6958,2.6803,2.6622,2.6562,2.6406,2.6166,2.5877,2.5588,2.542,2.542,2.5324,2.5324,2.5312,2.5312,2.5312,2.5312,2.5312,2.506,2.4856,2.4283,2.3653,2.2891,2.1945,2.1207,2.0588,2.0401,2.0303,2.0107,1.9868,1.9694,1.9671,1.9551,1.9187,1.8854,1.8553,1.8236,1.8008,1.8008,1.8008,1.8008,1.8008,1.7988,1.7891,1.7861,1.7891,1.7686,1.7402,1.7197,1.6953,1.6633,1.6202,1.5997,1.59,1.581,1.5798,1.5856,3.0098,3.0922,3.1031,3.1296,3.1669,3.1705,3.1705,3.1705,3.1705,3.1705,3.1705,3.1705,3.1705,3.1705,3.1705,3.1705,3.1705,3.1705,3.1705,3.1705,3.1705,3.1705,3.1705,3.1705,3.1705,3.1705,3.1705,3.1705,3.1705,3.1597,3.1536,3.1464,3.1488,3.132,3.1271,3.1103,3.0766,3.0694,3.0453,3.0278,3.0062,2.9629,2.9256,2.9003,2.8739,2.8595,2.851,2.851,2.851,2.8462,2.8402,2.8402,2.8342,2.8234,2.8065,2.7933,2.7957,2.7933,2.7801,2.7594,2.744,2.7284,2.72,2.7079,2.6791,2.6454,2.6142,2.5805,2.5697,2.5408,2.5348,2.5324,2.5312,2.5312,2.5312,2.5312,2.5168,2.5072,2.4812,2.4423,2.402,2.3021,2.2042,2.1614,2.1365,2.1154,2.0671,2.0476,2.0549,2.042,2.0313,1.9977,1.9573,1.91,1.8811,1.8134,1.8008,1.8008,1.8008,1.8008,1.8008,1.8008,1.7988,1.7978,1.792,1.7725,1.7529,1.7363,1.6946,1.6547,1.6243,1.6058,1.5939,1.5904,1.5961]}]]